Wetterdaten: Donnerstag, 21.06.2018
Datum Zeit Temp. A. Pool Temp. Feuchte A. Luftdruck Regen Wind Richtung Richtung Sonnenschein ET UV Solar Taupunkt Windchill Windben Empfang
21.06.2018 00:00 18,8 C 25,0 C 80 % 1015,5 hPa 0,0 l/m 3,0 km/h (1 Bft) SO 138 0 min 0,000 mm 0,0 UV-I 0 W/m 15,3 C 18,8 C 3,2 km/h (1 Bft) 95,83 %
21.06.2018 00:02 19,1 C 25,0 C 79 % 1015,5 hPa 0,0 l/m 2,7 km/h (1 Bft) SO 138 0 min 0,000 mm 0,0 UV-I 0 W/m 15,4 C 19,1 C 3,2 km/h (1 Bft) 94,87 %
21.06.2018 00:03 19,1 C 25,0 C 78 % 1015,4 hPa 0,0 l/m 2,9 km/h (1 Bft) SO 138 0 min 0,000 mm 0,0 UV-I 0 W/m 15,2 C 19,1 C 3,2 km/h (1 Bft) 95,83 %
21.06.2018 00:04 19,1 C 25,0 C 78 % 1015,5 hPa 0,0 l/m 2,9 km/h (1 Bft) SO 138 0 min 0,000 mm 0,0 UV-I 0 W/m 15,2 C 19,1 C 3,2 km/h (1 Bft) 95,65 %
21.06.2018 00:05 19,2 C 25,0 C 79 % 1015,5 hPa 0,0 l/m 3,1 km/h (1 Bft) SO 138 0 min 0,000 mm 0,0 UV-I 0 W/m 15,5 C 19,2 C 3,2 km/h (1 Bft) 95,83 %
21.06.2018 00:06 19,3 C 25,0 C 78 % 1015,5 hPa 0,0 l/m 2,0 km/h (1 Bft) SO 138 0 min 0,000 mm 0,0 UV-I 0 W/m 15,4 C 19,3 C 3,2 km/h (1 Bft) 88,46 %
21.06.2018 00:07 19,3 C 25,0 C 78 % 1015,4 hPa 0,0 l/m 1,3 km/h (1 Bft) SO 138 0 min 0,000 mm 0,0 UV-I 0 W/m 15,4 C 19,3 C 1,6 km/h (1 Bft) 95,83 %
21.06.2018 00:08 19,2 C 25,0 C 78 % 1015,4 hPa 0,0 l/m 2,2 km/h (1 Bft) SO 138 0 min 0,000 mm 0,0 UV-I 0 W/m 15,3 C 19,2 C 3,2 km/h (1 Bft) 96,15 %
21.06.2018 00:09 19,2 C 25,0 C 78 % 1015,4 hPa 0,0 l/m 2,3 km/h (1 Bft) SO 138 0 min 0,000 mm 0,0 UV-I 0 W/m 15,3 C 19,2 C 3,2 km/h (1 Bft) 95,83 %
21.06.2018 00:10 19,2 C 25,0 C 79 % 1015,4 hPa 0,0 l/m 1,7 km/h (1 Bft) SO 138 0 min 0,000 mm 0,0 UV-I 0 W/m 15,5 C 19,2 C 3,2 km/h (1 Bft) 95,65 %
21.06.2018 00:11 19,2 C 25,0 C 78 % 1015,4 hPa 0,0 l/m 2,7 km/h (1 Bft) SO 138 0 min 0,000 mm 0,0 UV-I 0 W/m 15,3 C 19,2 C 3,2 km/h (1 Bft) 95,83 %
21.06.2018 00:12 19,2 C 25,0 C 78 % 1015,4 hPa 0,0 l/m 3,2 km/h (1 Bft) SO 138 0 min 0,000 mm 0,0 UV-I 0 W/m 15,3 C 19,2 C 3,2 km/h (1 Bft) 91,30 %
21.06.2018 00:13 19,1 C 25,0 C 79 % 1015,4 hPa 0,0 l/m 3,4 km/h (1 Bft) SO 139 0 min 0,000 mm 0,0 UV-I 0 W/m 15,4 C 19,1 C 4,8 km/h (1 Bft) 95,83 %
21.06.2018 00:14 19,1 C 25,0 C 79 % 1015,4 hPa 0,0 l/m 4,1 km/h (1 Bft) SO 139 0 min 0,000 mm 0,0 UV-I 0 W/m 15,4 C 19,1 C 4,8 km/h (1 Bft) 100,00 %
21.06.2018 00:15 18,9 C 25,0 C 79 % 1015,4 hPa 0,0 l/m 4,1 km/h (1 Bft) S 191 0 min 0,000 mm 0,0 UV-I 0 W/m 15,2 C 18,9 C 4,8 km/h (1 Bft) 95,83 %
21.06.2018 00:16 18,9 C 25,0 C 79 % 1015,4 hPa 0,0 l/m 3,6 km/h (1 Bft) S 191 0 min 0,000 mm 0,0 UV-I 0 W/m 15,2 C 18,9 C 4,8 km/h (1 Bft) 91,30 %
21.06.2018 00:17 18,8 C 25,0 C 80 % 1015,4 hPa 0,0 l/m 4,3 km/h (1 Bft) S 191 0 min 0,000 mm 0,0 UV-I 0 W/m 15,3 C 18,8 C 4,8 km/h (1 Bft) 95,83 %
21.06.2018 00:18 18,8 C 25,0 C 80 % 1015,4 hPa 0,0 l/m 3,4 km/h (1 Bft) S-SW 192 0 min 0,000 mm 0,0 UV-I 0 W/m 15,3 C 18,8 C 4,8 km/h (1 Bft) 91,30 %
21.06.2018 00:19 18,7 C 25,0 C 80 % 1015,4 hPa 0,0 l/m 2,1 km/h (1 Bft) S-SW 192 0 min 0,000 mm 0,0 UV-I 0 W/m 15,2 C 18,7 C 3,2 km/h (1 Bft) 95,83 %
21.06.2018 00:20 18,7 C 25,0 C 80 % 1015,4 hPa 0,0 l/m 3,0 km/h (1 Bft) S-SW 192 0 min 0,000 mm 0,0 UV-I 0 W/m 15,2 C 18,7 C 4,8 km/h (1 Bft) 100,00 %
21.06.2018 00:21 18,7 C 25,0 C 80 % 1015,4 hPa 0,0 l/m 2,3 km/h (1 Bft) S-SW 192 0 min 0,000 mm 0,0 UV-I 0 W/m 15,2 C 18,7 C 3,2 km/h (1 Bft) 95,83 %
21.06.2018 00:22 18,7 C 25,0 C 80 % 1015,4 hPa 0,0 l/m 2,1 km/h (1 Bft) S-SW 192 0 min 0,000 mm 0,0 UV-I 0 W/m 15,2 C 18,7 C 3,2 km/h (1 Bft) 100,00 %
21.06.2018 00:23 18,8 C 25,0 C 81 % 1015,4 hPa 0,0 l/m 3,2 km/h (1 Bft) S-SW 192 0 min 0,000 mm 0,0 UV-I 0 W/m 15,5 C 18,8 C 4,8 km/h (1 Bft) 95,65 %
21.06.2018 00:24 18,8 C 25,0 C 80 % 1015,3 hPa 0,0 l/m 2,5 km/h (1 Bft) S-SW 192 0 min 0,000 mm 0,0 UV-I 0 W/m 15,3 C 18,8 C 3,2 km/h (1 Bft) 100,00 %
21.06.2018 00:25 18,8 C 25,0 C 80 % 1015,3 hPa 0,0 l/m 2,2 km/h (1 Bft) S-SW 192 0 min 0,000 mm 0,0 UV-I 0 W/m 15,3 C 18,8 C 3,2 km/h (1 Bft) 91,67 %
21.06.2018 00:26 18,8 C 25,0 C 81 % 1015,4 hPa 0,0 l/m 3,3 km/h (1 Bft) S-SW 192 0 min 0,000 mm 0,0 UV-I 0 W/m 15,5 C 18,8 C 4,8 km/h (1 Bft) 95,83 %
21.06.2018 00:27 18,8 C 25,0 C 81 % 1015,3 hPa 0,0 l/m 4,2 km/h (1 Bft) S-SW 192 0 min 0,000 mm 0,0 UV-I 0 W/m 15,5 C 18,8 C 4,8 km/h (1 Bft) 100,00 %
21.06.2018 00:28 18,8 C 25,0 C 81 % 1015,4 hPa 0,0 l/m 4,7 km/h (1 Bft) S-SW 192 0 min 0,000 mm 0,0 UV-I 0 W/m 15,5 C 18,8 C 6,4 km/h (2 Bft) 91,67 %
21.06.2018 00:29 18,8 C 25,0 C 81 % 1015,4 hPa 0,0 l/m 4,4 km/h (1 Bft) S-SW 192 0 min 0,000 mm 0,0 UV-I 0 W/m 15,5 C 18,8 C 4,8 km/h (1 Bft) 100,00 %
21.06.2018 00:30 18,7 C 25,0 C 81 % 1015,3 hPa 0,0 l/m 4,0 km/h (1 Bft) S-SW 192 0 min 0,000 mm 0,0 UV-I 0 W/m 15,4 C 18,7 C 4,8 km/h (1 Bft) 95,83 %
21.06.2018 00:31 18,7 C 25,0 C 81 % 1015,3 hPa 0,0 l/m 3,9 km/h (1 Bft) S-SW 205 0 min 0,000 mm 0,0 UV-I 0 W/m 15,4 C 18,7 C 6,4 km/h (2 Bft) 100,00 %
21.06.2018 00:32 18,7 C 25,0 C 81 % 1015,3 hPa 0,0 l/m 3,2 km/h (1 Bft) S-SW 205 0 min 0,000 mm 0,0 UV-I 0 W/m 15,4 C 18,7 C 4,8 km/h (1 Bft) 95,83 %
21.06.2018 00:33 18,6 C 25,0 C 81 % 1015,4 hPa 0,0 l/m 3,4 km/h (1 Bft) S-SW 205 0 min 0,000 mm 0,0 UV-I 0 W/m 15,3 C 18,6 C 4,8 km/h (1 Bft) 100,00 %
21.06.2018 00:34 18,4 C 25,0 C 81 % 1015,3 hPa 0,0 l/m 2,7 km/h (1 Bft) S-SW 205 0 min 0,000 mm 0,0 UV-I 0 W/m 15,1 C 18,4 C 3,2 km/h (1 Bft) 95,83 %
21.06.2018 00:35 18,4 C 25,0 C 81 % 1015,4 hPa 0,0 l/m 3,0 km/h (1 Bft) S-SW 205 0 min 0,000 mm 0,0 UV-I 0 W/m 15,1 C 18,4 C 3,2 km/h (1 Bft) 100,00 %
21.06.2018 00:36 18,4 C 25,0 C 81 % 1015,4 hPa 0,0 l/m 3,2 km/h (1 Bft) S-SW 205 0 min 0,000 mm 0,0 UV-I 0 W/m 15,1 C 18,4 C 4,8 km/h (1 Bft) 95,83 %
21.06.2018 00:37 18,4 C 25,0 C 81 % 1015,4 hPa 0,0 l/m 3,4 km/h (1 Bft) S-SW 205 0 min 0,000 mm 0,0 UV-I 0 W/m 15,1 C 18,4 C 4,8 km/h (1 Bft) 95,65 %
21.06.2018 00:38 18,5 C 25,0 C 81 % 1015,4 hPa 0,0 l/m 4,8 km/h (1 Bft) S-SW 205 0 min 0,000 mm 0,0 UV-I 0 W/m 15,2 C 18,5 C 6,4 km/h (2 Bft) 100,00 %
21.06.2018 00:39 18,6 C 25,0 C 81 % 1015,4 hPa 0,0 l/m 5,3 km/h (1 Bft) S-SW 205 0 min 0,000 mm 0,0 UV-I 0 W/m 15,3 C 18,6 C 8,0 km/h (2 Bft) 95,65 %
21.06.2018 00:40 18,6 C 25,0 C 81 % 1015,4 hPa 0,0 l/m 5,3 km/h (1 Bft) S-SW 203 0 min 0,000 mm 0,0 UV-I 0 W/m 15,3 C 18,6 C 6,4 km/h (2 Bft) 100,00 %
21.06.2018 00:41 18,7 C 25,0 C 81 % 1015,3 hPa 0,0 l/m 5,5 km/h (1 Bft) S 180 0 min 0,000 mm 0,0 UV-I 0 W/m 15,4 C 18,7 C 8,0 km/h (2 Bft) 95,65 %
21.06.2018 00:42 18,7 C 25,0 C 81 % 1015,3 hPa 0,0 l/m 4,4 km/h (1 Bft) S 180 0 min 0,000 mm 0,0 UV-I 0 W/m 15,4 C 18,7 C 6,4 km/h (2 Bft) 100,00 %
21.06.2018 00:43 18,5 C 25,0 C 81 % 1015,3 hPa 0,0 l/m 3,8 km/h (1 Bft) S 180 0 min 0,000 mm 0,0 UV-I 0 W/m 15,2 C 18,5 C 6,4 km/h (2 Bft) 95,65 %
21.06.2018 00:44 18,4 C 25,0 C 81 % 1015,3 hPa 0,0 l/m 4,3 km/h (1 Bft) S 180 0 min 0,000 mm 0,0 UV-I 0 W/m 15,1 C 18,4 C 6,4 km/h (2 Bft) 100,00 %
21.06.2018 00:45 18,3 C 25,0 C 81 % 1015,3 hPa 0,0 l/m 5,1 km/h (1 Bft) S 182 0 min 0,000 mm 0,0 UV-I 0 W/m 15,0 C 18,3 C 6,4 km/h (2 Bft) 95,65 %
21.06.2018 00:46 18,3 C 25,0 C 82 % 1015,3 hPa 0,0 l/m 6,3 km/h (2 Bft) S 182 0 min 0,000 mm 0,0 UV-I 0 W/m 15,2 C 18,3 C 8,0 km/h (2 Bft) 95,83 %
21.06.2018 00:47 18,3 C 25,0 C 83 % 1015,3 hPa 0,0 l/m 6,0 km/h (2 Bft) S 190 0 min 0,000 mm 0,0 UV-I 0 W/m 15,4 C 18,3 C 8,0 km/h (2 Bft) 100,00 %
21.06.2018 00:48 18,4 C 25,0 C 83 % 1015,3 hPa 0,0 l/m 5,7 km/h (1 Bft) S-SW 193 0 min 0,000 mm 0,0 UV-I 0 W/m 15,5 C 18,4 C 6,4 km/h (2 Bft) 100,00 %
21.06.2018 00:49 18,6 C 25,0 C 82 % 1015,3 hPa 0,0 l/m 4,9 km/h (1 Bft) S-SW 193 0 min 0,000 mm 0,0 UV-I 0 W/m 15,5 C 18,6 C 6,4 km/h (2 Bft) 96,30 %
21.06.2018 00:50 18,7 C 25,0 C 82 % 1015,3 hPa 0,0 l/m 4,5 km/h (1 Bft) S-SW 198 0 min 0,000 mm 0,0 UV-I 0 W/m 15,6 C 18,7 C 6,4 km/h (2 Bft) 100,00 %
21.06.2018 00:51 18,8 C 25,0 C 82 % 1015,3 hPa 0,0 l/m 4,4 km/h (1 Bft) S-SW 205 0 min 0,000 mm 0,0 UV-I 0 W/m 15,7 C 18,8 C 4,8 km/h (1 Bft) 96,30 %
21.06.2018 00:52 18,9 C 25,0 C 82 % 1015,3 hPa 0,0 l/m 4,5 km/h (1 Bft) S-SW 207 0 min 0,000 mm 0,0 UV-I 0 W/m 15,8 C 18,9 C 6,4 km/h (2 Bft) 88,46 %
21.06.2018 00:53 18,9 C 25,0 C 81 % 1015,3 hPa 0,0 l/m 4,1 km/h (1 Bft) S-SW 207 0 min 0,000 mm 0,0 UV-I 0 W/m 15,6 C 18,9 C 4,8 km/h (1 Bft) 100,00 %
21.06.2018 00:54 19,0 C 25,0 C 81 % 1015,3 hPa 0,0 l/m 4,5 km/h (1 Bft) S-SW 209 0 min 0,000 mm 0,0 UV-I 0 W/m 15,7 C 19,0 C 6,4 km/h (2 Bft) 91,30 %
21.06.2018 00:55 18,9 C 25,0 C 81 % 1015,3 hPa 0,0 l/m 4,9 km/h (1 Bft) S-SW 209 0 min 0,000 mm 0,0 UV-I 0 W/m 15,6 C 18,9 C 6,4 km/h (2 Bft) 100,00 %
21.06.2018 00:56 18,9 C 25,0 C 81 % 1015,3 hPa 0,0 l/m 5,0 km/h (1 Bft) S-SW 209 0 min 0,000 mm 0,0 UV-I 0 W/m 15,6 C 18,9 C 6,4 km/h (2 Bft) 95,65 %
21.06.2018 00:57 18,8 C 25,0 C 81 % 1015,3 hPa 0,0 l/m 4,7 km/h (1 Bft) S-SW 208 0 min 0,000 mm 0,0 UV-I 0 W/m 15,5 C 18,8 C 6,4 km/h (2 Bft) 100,00 %
21.06.2018 00:58 18,8 C 25,0 C 81 % 1015,3 hPa 0,0 l/m 4,5 km/h (1 Bft) S-SW 208 0 min 0,000 mm 0,0 UV-I 0 W/m 15,5 C 18,8 C 6,4 km/h (2 Bft) 95,65 %
21.06.2018 00:59 18,7 C 25,0 C 82 % 1015,3 hPa 0,0 l/m 5,2 km/h (1 Bft) S-SW 208 0 min 0,000 mm 0,0 UV-I 0 W/m 15,6 C 18,7 C 6,4 km/h (2 Bft) 100,00 %
21.06.2018 01:00 18,7 C 25,0 C 82 % 1015,3 hPa 0,0 l/m 5,7 km/h (1 Bft) S-SW 211 0 min 0,025 mm 0,0 UV-I 0 W/m 15,6 C 18,7 C 8,0 km/h (2 Bft) 100,00 %
21.06.2018 01:01 18,6 C 25,0 C 82 % 1015,3 hPa 0,0 l/m 4,7 km/h (1 Bft) S-SW 207 0 min 0,000 mm 0,0 UV-I 0 W/m 15,5 C 18,6 C 6,4 km/h (2 Bft) 95,83 %
21.06.2018 01:02 18,6 C 25,0 C 82 % 1015,3 hPa 0,0 l/m 5,7 km/h (1 Bft) S-SW 207 0 min 0,000 mm 0,0 UV-I 0 W/m 15,5 C 18,6 C 8,0 km/h (2 Bft) 95,65 %
21.06.2018 01:03 18,6 C 25,0 C 82 % 1015,3 hPa 0,0 l/m 4,8 km/h (1 Bft) S-SW 201 0 min 0,000 mm 0,0 UV-I 0 W/m 15,5 C 18,6 C 8,0 km/h (2 Bft) 100,00 %
21.06.2018 01:04 18,6 C 25,0 C 83 % 1015,3 hPa 0,0 l/m 3,5 km/h (1 Bft) S-SW 201 0 min 0,000 mm 0,0 UV-I 0 W/m 15,7 C 18,6 C 4,8 km/h (1 Bft) 100,00 %
21.06.2018 01:05 18,6 C 25,0 C 83 % 1015,3 hPa 0,0 l/m 4,2 km/h (1 Bft) S-SW 201 0 min 0,000 mm 0,0 UV-I 0 W/m 15,7 C 18,6 C 6,4 km/h (2 Bft) 100,00 %
21.06.2018 01:06 18,6 C 25,0 C 83 % 1015,3 hPa 0,0 l/m 4,6 km/h (1 Bft) S-SW 202 0 min 0,000 mm 0,0 UV-I 0 W/m 15,7 C 18,6 C 6,4 km/h (2 Bft) 100,00 %
21.06.2018 01:07 18,6 C 25,0 C 83 % 1015,3 hPa 0,0 l/m 4,9 km/h (1 Bft) S-SW 196 0 min 0,000 mm 0,0 UV-I 0 W/m 15,7 C 18,6 C 6,4 km/h (2 Bft) 100,00 %
21.06.2018 01:08 18,6 C 25,0 C 83 % 1015,3 hPa 0,0 l/m 4,5 km/h (1 Bft) S-SW 204 0 min 0,000 mm 0,0 UV-I 0 W/m 15,7 C 18,6 C 6,4 km/h (2 Bft) 100,00 %
21.06.2018 01:09 18,6 C 25,0 C 83 % 1015,3 hPa 0,0 l/m 4,4 km/h (1 Bft) S-SW 204 0 min 0,000 mm 0,0 UV-I 0 W/m 15,7 C 18,6 C 6,4 km/h (2 Bft) 100,00 %
21.06.2018 01:10 18,6 C 25,0 C 83 % 1015,3 hPa 0,0 l/m 4,5 km/h (1 Bft) S-SW 202 0 min 0,000 mm 0,0 UV-I 0 W/m 15,7 C 18,6 C 6,4 km/h (2 Bft) 100,00 %
21.06.2018 01:11 18,6 C 25,0 C 83 % 1015,3 hPa 0,0 l/m 3,8 km/h (1 Bft) S-SW 202 0 min 0,000 mm 0,0 UV-I 0 W/m 15,7 C 18,6 C 4,8 km/h (1 Bft) 100,00 %
21.06.2018 01:12 18,6 C 25,0 C 83 % 1015,3 hPa 0,0 l/m 5,2 km/h (1 Bft) S-SW 201 0 min 0,000 mm 0,0 UV-I 0 W/m 15,7 C 18,6 C 6,4 km/h (2 Bft) 100,00 %
21.06.2018 01:13 18,6 C 25,0 C 83 % 1015,3 hPa 0,0 l/m 4,9 km/h (1 Bft) S-SW 201 0 min 0,000 mm 0,0 UV-I 0 W/m 15,7 C 18,6 C 6,4 km/h (2 Bft) 95,65 %
21.06.2018 01:14 18,6 C 25,0 C 83 % 1015,3 hPa 0,0 l/m 4,0 km/h (1 Bft) S-SW 201 0 min 0,000 mm 0,0 UV-I 0 W/m 15,7 C 18,6 C 6,4 km/h (2 Bft) 100,00 %
21.06.2018 01:15 18,7 C 25,0 C 83 % 1015,3 hPa 0,0 l/m 4,6 km/h (1 Bft) S-SW 201 0 min 0,000 mm 0,0 UV-I 0 W/m 15,8 C 18,7 C 6,4 km/h (2 Bft) 100,00 %
21.06.2018 01:16 18,7 C 25,0 C 82 % 1015,3 hPa 0,0 l/m 3,6 km/h (1 Bft) S-SW 201 0 min 0,000 mm 0,0 UV-I 0 W/m 15,6 C 18,7 C 4,8 km/h (1 Bft) 100,00 %
21.06.2018 01:17 18,7 C 25,0 C 82 % 1015,3 hPa 0,0 l/m 3,0 km/h (1 Bft) S-SW 201 0 min 0,000 mm 0,0 UV-I 0 W/m 15,6 C 18,7 C 4,8 km/h (1 Bft) 100,00 %
21.06.2018 01:18 18,7 C 25,0 C 82 % 1015,3 hPa 0,0 l/m 3,2 km/h (1 Bft) S-SW 201 0 min 0,000 mm 0,0 UV-I 0 W/m 15,6 C 18,7 C 4,8 km/h (1 Bft) 100,00 %
21.06.2018 01:19 18,7 C 25,0 C 82 % 1015,3 hPa 0,0 l/m 3,4 km/h (1 Bft) S-SW 201 0 min 0,000 mm 0,0 UV-I 0 W/m 15,6 C 18,7 C 4,8 km/h (1 Bft) 100,00 %
21.06.2018 01:20 18,8 C 25,0 C 82 % 1015,2 hPa 0,0 l/m 4,1 km/h (1 Bft) S-SW 201 0 min 0,000 mm 0,0 UV-I 0 W/m 15,7 C 18,8 C 4,8 km/h (1 Bft) 95,65 %
21.06.2018 01:21 18,8 C 25,0 C 82 % 1015,2 hPa 0,0 l/m 4,1 km/h (1 Bft) S-SW 201 0 min 0,000 mm 0,0 UV-I 0 W/m 15,7 C 18,8 C 4,8 km/h (1 Bft) 100,00 %
21.06.2018 01:22 18,8 C 25,0 C 82 % 1015,2 hPa 0,0 l/m 5,0 km/h (1 Bft) S-SW 201 0 min 0,000 mm 0,0 UV-I 0 W/m 15,7 C 18,8 C 6,4 km/h (2 Bft) 100,00 %
21.06.2018 01:23 18,7 C 25,0 C 82 % 1015,2 hPa 0,0 l/m 4,6 km/h (1 Bft) S-SW 200 0 min 0,000 mm 0,0 UV-I 0 W/m 15,6 C 18,7 C 6,4 km/h (2 Bft) 100,00 %
21.06.2018 01:24 18,7 C 25,0 C 82 % 1015,2 hPa 0,0 l/m 5,5 km/h (1 Bft) S 188 0 min 0,000 mm 0,0 UV-I 0 W/m 15,6 C 18,7 C 6,4 km/h (2 Bft) 100,00 %
21.06.2018 01:25 18,7 C 25,0 C 82 % 1015,2 hPa 0,0 l/m 6,2 km/h (2 Bft) S 187 0 min 0,000 mm 0,0 UV-I 0 W/m 15,6 C 18,7 C 8,0 km/h (2 Bft) 100,00 %
21.06.2018 01:26 18,7 C 25,0 C 82 % 1015,1 hPa 0,0 l/m 4,9 km/h (1 Bft) S 190 0 min 0,000 mm 0,0 UV-I 0 W/m 15,6 C 18,7 C 6,4 km/h (2 Bft) 100,00 %
21.06.2018 01:27 18,7 C 25,0 C 82 % 1015,2 hPa 0,0 l/m 4,8 km/h (1 Bft) S-SW 198 0 min 0,000 mm 0,0 UV-I 0 W/m 15,6 C 18,7 C 8,0 km/h (2 Bft) 100,00 %
21.06.2018 01:28 18,8 C 25,0 C 82 % 1015,1 hPa 0,0 l/m 4,4 km/h (1 Bft) S-SW 199 0 min 0,000 mm 0,0 UV-I 0 W/m 15,7 C 18,8 C 6,4 km/h (2 Bft) 100,00 %
21.06.2018 01:29 18,8 C 25,0 C 82 % 1015,1 hPa 0,0 l/m 4,0 km/h (1 Bft) S-SW 199 0 min 0,000 mm 0,0 UV-I 0 W/m 15,7 C 18,8 C 6,4 km/h (2 Bft) 100,00 %
21.06.2018 01:30 18,8 C 25,0 C 82 % 1015,1 hPa 0,0 l/m 4,0 km/h (1 Bft) S-SW 199 0 min 0,000 mm 0,0 UV-I 0 W/m 15,7 C 18,8 C 6,4 km/h (2 Bft) 100,00 %
21.06.2018 01:31 18,8 C 25,0 C 82 % 1015,1 hPa 0,0 l/m 2,9 km/h (1 Bft) S-SW 199 0 min 0,000 mm 0,0 UV-I 0 W/m 15,7 C 18,8 C 3,2 km/h (1 Bft) 100,00 %
21.06.2018 01:32 18,8 C 25,0 C 82 % 1015,1 hPa 0,0 l/m 4,1 km/h (1 Bft) S-SW 207 0 min 0,000 mm 0,0 UV-I 0 W/m 15,7 C 18,8 C 6,4 km/h (2 Bft) 95,65 %
21.06.2018 01:33 18,8 C 25,0 C 81 % 1015,1 hPa 0,0 l/m 4,3 km/h (1 Bft) S-SW 207 0 min 0,000 mm 0,0 UV-I 0 W/m 15,5 C 18,8 C 6,4 km/h (2 Bft) 100,00 %
21.06.2018 01:34 18,8 C 25,0 C 82 % 1015,1 hPa 0,0 l/m 4,3 km/h (1 Bft) S-SW 207 0 min 0,000 mm 0,0 UV-I 0 W/m 15,7 C 18,8 C 6,4 km/h (2 Bft) 100,00 %
21.06.2018 01:35 18,8 C 25,0 C 82 % 1015,1 hPa 0,0 l/m 5,4 km/h (1 Bft) S-SW 210 0 min 0,000 mm 0,0 UV-I 0 W/m 15,7 C 18,8 C 8,0 km/h (2 Bft) 100,00 %
21.06.2018 01:36 18,7 C 25,0 C 82 % 1015,1 hPa 0,0 l/m 5,2 km/h (1 Bft) S-SW 210 0 min 0,000 mm 0,0 UV-I 0 W/m 15,6 C 18,7 C 6,4 km/h (2 Bft) 100,00 %
21.06.2018 01:37 18,6 C 25,0 C 82 % 1015,1 hPa 0,0 l/m 4,3 km/h (1 Bft) S-SW 209 0 min 0,000 mm 0,0 UV-I 0 W/m 15,5 C 18,6 C 6,4 km/h (2 Bft) 100,00 %
21.06.2018 01:38 18,6 C 25,0 C 82 % 1015,1 hPa 0,0 l/m 4,2 km/h (1 Bft) S-SW 209 0 min 0,000 mm 0,0 UV-I 0 W/m 15,5 C 18,6 C 4,8 km/h (1 Bft) 95,65 %
21.06.2018 01:39 18,5 C 25,0 C 82 % 1015,1 hPa 0,0 l/m 3,4 km/h (1 Bft) S-SW 209 0 min 0,000 mm 0,0 UV-I 0 W/m 15,4 C 18,5 C 4,8 km/h (1 Bft) 100,00 %
21.06.2018 01:40 18,4 C 25,0 C 82 % 1015,1 hPa 0,0 l/m 4,2 km/h (1 Bft) S-SW 209 0 min 0,000 mm 0,0 UV-I 0 W/m 15,3 C 18,4 C 4,8 km/h (1 Bft) 100,00 %
21.06.2018 01:41 18,3 C 25,0 C 83 % 1015,1 hPa 0,0 l/m 4,2 km/h (1 Bft) S-SW 207 0 min 0,000 mm 0,0 UV-I 0 W/m 15,4 C 18,3 C 4,8 km/h (1 Bft) 95,83 %
21.06.2018 01:42 18,3 C 25,0 C 83 % 1015,1 hPa 0,0 l/m 4,1 km/h (1 Bft) S-SW 207 0 min 0,000 mm 0,0 UV-I 0 W/m 15,4 C 18,3 C 4,8 km/h (1 Bft) 100,00 %
21.06.2018 01:43 18,3 C 25,0 C 83 % 1015,1 hPa 0,0 l/m 4,3 km/h (1 Bft) S-SW 207 0 min 0,000 mm 0,0 UV-I 0 W/m 15,4 C 18,3 C 6,4 km/h (2 Bft) 100,00 %
21.06.2018 01:44 18,3 C 25,0 C 83 % 1015,1 hPa 0,0 l/m 3,8 km/h (1 Bft) S-SW 207 0 min 0,000 mm 0,0 UV-I 0 W/m 15,4 C 18,3 C 4,8 km/h (1 Bft) 100,00 %
21.06.2018 01:45 18,3 C 25,0 C 83 % 1015,1 hPa 0,0 l/m 3,0 km/h (1 Bft) S-SW 207 0 min 0,000 mm 0,0 UV-I 0 W/m 15,4 C 18,3 C 4,8 km/h (1 Bft) 100,00 %
21.06.2018 01:46 18,3 C 25,0 C 83 % 1015,0 hPa 0,0 l/m 3,5 km/h (1 Bft) S-SW 207 0 min 0,000 mm 0,0 UV-I 0 W/m 15,4 C 18,3 C 4,8 km/h (1 Bft) 100,00 %
21.06.2018 01:47 18,3 C 25,0 C 83 % 1015,1 hPa 0,0 l/m 4,2 km/h (1 Bft) S-SW 207 0 min 0,000 mm 0,0 UV-I 0 W/m 15,4 C 18,3 C 4,8 km/h (1 Bft) 95,65 %
21.06.2018 01:48 18,4 C 25,0 C 83 % 1015,1 hPa 0,0 l/m 4,4 km/h (1 Bft) S-SW 207 0 min 0,000 mm 0,0 UV-I 0 W/m 15,5 C 18,4 C 6,4 km/h (2 Bft) 95,83 %
21.06.2018 01:49 18,4 C 25,0 C 83 % 1015,1 hPa 0,0 l/m 4,6 km/h (1 Bft) S-SW 207 0 min 0,000 mm 0,0 UV-I 0 W/m 15,5 C 18,4 C 4,8 km/h (1 Bft) 90,91 %
21.06.2018 01:50 18,4 C 25,0 C 83 % 1015,1 hPa 0,0 l/m 4,0 km/h (1 Bft) S-SW 207 0 min 0,000 mm 0,0 UV-I 0 W/m 15,5 C 18,4 C 4,8 km/h (1 Bft) 96,30 %
21.06.2018 01:51 18,5 C 25,0 C 83 % 1015,1 hPa 0,0 l/m 4,5 km/h (1 Bft) S-SW 209 0 min 0,000 mm 0,0 UV-I 0 W/m 15,6 C 18,5 C 6,4 km/h (2 Bft) 96,15 %
21.06.2018 01:52 18,5 C 25,0 C 83 % 1015,1 hPa 0,0 l/m 5,0 km/h (1 Bft) S-SW 209 0 min 0,000 mm 0,0 UV-I 0 W/m 15,6 C 18,5 C 6,4 km/h (2 Bft) 100,00 %
21.06.2018 01:53 18,5 C 25,0 C 83 % 1015,1 hPa 0,0 l/m 4,6 km/h (1 Bft) S-SW 212 0 min 0,000 mm 0,0 UV-I 0 W/m 15,6 C 18,5 C 6,4 km/h (2 Bft) 95,65 %
21.06.2018 01:54 18,5 C 25,0 C 83 % 1015,1 hPa 0,0 l/m 4,8 km/h (1 Bft) S-SW 212 0 min 0,000 mm 0,0 UV-I 0 W/m 15,6 C 18,5 C 6,4 km/h (2 Bft) 95,83 %
21.06.2018 01:55 18,5 C 25,0 C 83 % 1015,1 hPa 0,0 l/m 5,2 km/h (1 Bft) S-SW 212 0 min 0,000 mm 0,0 UV-I 0 W/m 15,6 C 18,5 C 6,4 km/h (2 Bft) 95,65 %
21.06.2018 01:56 18,4 C 25,0 C 83 % 1015,1 hPa 0,0 l/m 5,0 km/h (1 Bft) SW 225 0 min 0,000 mm 0,0 UV-I 0 W/m 15,5 C 18,4 C 6,4 km/h (2 Bft) 100,00 %
21.06.2018 01:57 18,4 C 25,0 C 83 % 1015,1 hPa 0,0 l/m 4,7 km/h (1 Bft) SW 225 0 min 0,000 mm 0,0 UV-I 0 W/m 15,5 C 18,4 C 6,4 km/h (2 Bft) 95,65 %
21.06.2018 01:58 18,4 C 25,0 C 83 % 1015,0 hPa 0,0 l/m 3,9 km/h (1 Bft) SW 225 0 min 0,000 mm 0,0 UV-I 0 W/m 15,5 C 18,4 C 4,8 km/h (1 Bft) 95,83 %
21.06.2018 01:59 18,3 C 25,0 C 83 % 1015,0 hPa 0,0 l/m 3,6 km/h (1 Bft) SW 225 0 min 0,000 mm 0,0 UV-I 0 W/m 15,4 C 18,3 C 4,8 km/h (1 Bft) 100,00 %
21.06.2018 02:00 18,3 C 25,0 C 83 % 1015,1 hPa 0,0 l/m 5,2 km/h (1 Bft) SW 225 0 min 0,026 mm 0,0 UV-I 0 W/m 15,4 C 18,3 C 6,4 km/h (2 Bft) 95,65 %
21.06.2018 02:01 18,3 C 25,0 C 83 % 1015,0 hPa 0,0 l/m 5,4 km/h (1 Bft) SW 224 0 min 0,000 mm 0,0 UV-I 0 W/m 15,4 C 18,3 C 6,4 km/h (2 Bft) 100,00 %
21.06.2018 02:02 18,2 C 25,0 C 83 % 1015,0 hPa 0,0 l/m 5,0 km/h (1 Bft) SW 224 0 min 0,000 mm 0,0 UV-I 0 W/m 15,3 C 18,2 C 6,4 km/h (2 Bft) 95,65 %
21.06.2018 02:03 18,2 C 25,0 C 83 % 1015,0 hPa 0,0 l/m 4,8 km/h (1 Bft) SW 223 0 min 0,000 mm 0,0 UV-I 0 W/m 15,3 C 18,2 C 6,4 km/h (2 Bft) 95,83 %
21.06.2018 02:04 18,2 C 25,0 C 84 % 1015,0 hPa 0,0 l/m 4,1 km/h (1 Bft) SW 223 0 min 0,000 mm 0,0 UV-I 0 W/m 15,4 C 18,2 C 4,8 km/h (1 Bft) 95,65 %
21.06.2018 02:05 18,1 C 25,0 C 84 % 1015,0 hPa 0,0 l/m 3,7 km/h (1 Bft) SW 223 0 min 0,000 mm 0,0 UV-I 0 W/m 15,4 C 18,1 C 4,8 km/h (1 Bft) 100,00 %
21.06.2018 02:06 18,1 C 25,0 C 84 % 1015,0 hPa 0,0 l/m 4,1 km/h (1 Bft) SW 221 0 min 0,000 mm 0,0 UV-I 0 W/m 15,4 C 18,1 C 6,4 km/h (2 Bft) 95,65 %
21.06.2018 02:07 18,1 C 25,0 C 84 % 1015,0 hPa 0,0 l/m 3,8 km/h (1 Bft) SW 221 0 min 0,000 mm 0,0 UV-I 0 W/m 15,4 C 18,1 C 4,8 km/h (1 Bft) 95,83 %
21.06.2018 02:08 18,1 C 25,0 C 84 % 1015,0 hPa 0,0 l/m 4,4 km/h (1 Bft) SW 221 0 min 0,000 mm 0,0 UV-I 0 W/m 15,4 C 18,1 C 6,4 km/h (2 Bft) 100,00 %
21.06.2018 02:09 18,1 C 25,0 C 84 % 1015,0 hPa 0,0 l/m 4,3 km/h (1 Bft) SW 221 0 min 0,000 mm 0,0 UV-I 0 W/m 15,4 C 18,1 C 6,4 km/h (2 Bft) 91,67 %
21.06.2018 02:10 18,1 C 25,0 C 84 % 1015,0 hPa 0,0 l/m 5,0 km/h (1 Bft) S-SW 205 0 min 0,000 mm 0,0 UV-I 0 W/m 15,4 C 18,1 C 6,4 km/h (2 Bft) 100,00 %
21.06.2018 02:11 18,2 C 25,0 C 84 % 1015,0 hPa 0,0 l/m 4,0 km/h (1 Bft) S-SW 205 0 min 0,000 mm 0,0 UV-I 0 W/m 15,4 C 18,2 C 4,8 km/h (1 Bft) 95,83 %
21.06.2018 02:12 18,2 C 25,0 C 84 % 1015,0 hPa 0,0 l/m 2,6 km/h (1 Bft) S-SW 205 0 min 0,000 mm 0,0 UV-I 0 W/m 15,4 C 18,2 C 4,8 km/h (1 Bft) 91,30 %
21.06.2018 02:13 18,2 C 25,0 C 84 % 1014,9 hPa 0,0 l/m 3,9 km/h (1 Bft) S-SW 205 0 min 0,000 mm 0,0 UV-I 0 W/m 15,4 C 18,2 C 4,8 km/h (1 Bft) 95,83 %
21.06.2018 02:14 18,2 C 25,0 C 84 % 1014,9 hPa 0,0 l/m 3,4 km/h (1 Bft) S-SW 205 0 min 0,000 mm 0,0 UV-I 0 W/m 15,4 C 18,2 C 4,8 km/h (1 Bft) 95,65 %
21.06.2018 02:15 18,1 C 25,0 C 84 % 1015,0 hPa 0,0 l/m 4,0 km/h (1 Bft) S-SW 205 0 min 0,000 mm 0,0 UV-I 0 W/m 15,4 C 18,1 C 4,8 km/h (1 Bft) 95,83 %
21.06.2018 02:16 18,2 C 25,0 C 84 % 1015,0 hPa 0,0 l/m 3,7 km/h (1 Bft) S-SW 205 0 min 0,000 mm 0,0 UV-I 0 W/m 15,4 C 18,2 C 4,8 km/h (1 Bft) 91,30 %
21.06.2018 02:17 18,2 C 25,0 C 84 % 1015,0 hPa 0,0 l/m 5,2 km/h (1 Bft) S-SW 205 0 min 0,000 mm 0,0 UV-I 0 W/m 15,4 C 18,2 C 6,4 km/h (2 Bft) 100,00 %
21.06.2018 02:18 18,2 C 25,0 C 84 % 1015,0 hPa 0,0 l/m 5,4 km/h (1 Bft) SW 214 0 min 0,000 mm 0,0 UV-I 0 W/m 15,4 C 18,2 C 6,4 km/h (2 Bft) 86,96 %
21.06.2018 02:19 18,2 C 25,0 C 84 % 1014,9 hPa 0,0 l/m 5,1 km/h (1 Bft) SW 214 0 min 0,000 mm 0,0 UV-I 0 W/m 15,4 C 18,2 C 6,4 km/h (2 Bft) 100,00 %
21.06.2018 02:20 18,2 C 25,0 C 84 % 1014,9 hPa 0,0 l/m 5,3 km/h (1 Bft) S-SW 212 0 min 0,000 mm 0,0 UV-I 0 W/m 15,4 C 18,2 C 6,4 km/h (2 Bft) 96,55 %
21.06.2018 02:21 18,2 C 25,0 C 84 % 1014,9 hPa 0,0 l/m 4,4 km/h (1 Bft) S-SW 212 0 min 0,000 mm 0,0 UV-I 0 W/m 15,4 C 18,2 C 6,4 km/h (2 Bft) 95,65 %
21.06.2018 02:22 18,2 C 25,0 C 84 % 1014,9 hPa 0,0 l/m 4,8 km/h (1 Bft) S-SW 209 0 min 0,000 mm 0,0 UV-I 0 W/m 15,4 C 18,2 C 6,4 km/h (2 Bft) 100,00 %
21.06.2018 02:23 18,1 C 25,0 C 84 % 1014,9 hPa 0,0 l/m 4,4 km/h (1 Bft) S-SW 209 0 min 0,000 mm 0,0 UV-I 0 W/m 15,4 C 18,1 C 6,4 km/h (2 Bft) 100,00 %
21.06.2018 02:24 18,1 C 25,0 C 84 % 1014,9 hPa 0,0 l/m 4,2 km/h (1 Bft) S-SW 208 0 min 0,000 mm 0,0 UV-I 0 W/m 15,4 C 18,1 C 6,4 km/h (2 Bft) 100,00 %
21.06.2018 02:25 18,1 C 25,0 C 84 % 1014,9 hPa 0,0 l/m 5,1 km/h (1 Bft) S 191 0 min 0,000 mm 0,0 UV-I 0 W/m 15,4 C 18,1 C 8,0 km/h (2 Bft) 100,00 %
21.06.2018 02:26 18,1 C 25,0 C 84 % 1014,9 hPa 0,0 l/m 4,9 km/h (1 Bft) S 188 0 min 0,000 mm 0,0 UV-I 0 W/m 15,4 C 18,1 C 6,4 km/h (2 Bft) 95,83 %
21.06.2018 02:27 18,1 C 25,0 C 84 % 1014,9 hPa 0,0 l/m 4,6 km/h (1 Bft) S-SW 198 0 min 0,000 mm 0,0 UV-I 0 W/m 15,4 C 18,1 C 6,4 km/h (2 Bft) 100,00 %
21.06.2018 02:28 18,1 C 25,0 C 84 % 1014,9 hPa 0,0 l/m 5,4 km/h (1 Bft) S 171 0 min 0,000 mm 0,0 UV-I 0 W/m 15,4 C 18,1 C 8,0 km/h (2 Bft) 100,00 %
21.06.2018 02:29 18,2 C 25,0 C 84 % 1014,9 hPa 0,0 l/m 3,8 km/h (1 Bft) S 190 0 min 0,000 mm 0,0 UV-I 0 W/m 15,4 C 18,2 C 4,8 km/h (1 Bft) 96,15 %
21.06.2018 02:30 18,2 C 25,0 C 84 % 1014,8 hPa 0,0 l/m 4,5 km/h (1 Bft) S 190 0 min 0,000 mm 0,0 UV-I 0 W/m 15,4 C 18,2 C 6,4 km/h (2 Bft) 100,00 %
21.06.2018 02:31 18,2 C 25,0 C 84 % 1014,9 hPa 0,0 l/m 5,3 km/h (1 Bft) S-SW 196 0 min 0,000 mm 0,0 UV-I 0 W/m 15,4 C 18,2 C 6,4 km/h (2 Bft) 100,00 %
21.06.2018 02:32 18,2 C 25,0 C 84 % 1014,8 hPa 0,0 l/m 4,8 km/h (1 Bft) S-SW 196 0 min 0,000 mm 0,0 UV-I 0 W/m 15,4 C 18,2 C 6,4 km/h (2 Bft) 100,00 %
21.06.2018 02:33 18,2 C 25,0 C 84 % 1014,8 hPa 0,0 l/m 4,7 km/h (1 Bft) S-SW 196 0 min 0,000 mm 0,0 UV-I 0 W/m 15,4 C 18,2 C 6,4 km/h (2 Bft) 100,00 %
21.06.2018 02:34 18,2 C 25,0 C 84 % 1014,8 hPa 0,0 l/m 4,8 km/h (1 Bft) S-SW 202 0 min 0,000 mm 0,0 UV-I 0 W/m 15,4 C 18,2 C 6,4 km/h (2 Bft) 100,00 %
21.06.2018 02:35 18,2 C 25,0 C 84 % 1014,8 hPa 0,0 l/m 5,0 km/h (1 Bft) S-SW 201 0 min 0,000 mm 0,0 UV-I 0 W/m 15,4 C 18,2 C 6,4 km/h (2 Bft) 95,65 %
21.06.2018 02:36 18,2 C 25,0 C 84 % 1014,8 hPa 0,0 l/m 4,8 km/h (1 Bft) S 191 0 min 0,000 mm 0,0 UV-I 0 W/m 15,4 C 18,2 C 6,4 km/h (2 Bft) 100,00 %
21.06.2018 02:37 18,2 C 25,0 C 84 % 1014,8 hPa 0,0 l/m 4,7 km/h (1 Bft) S-SW 206 0 min 0,000 mm 0,0 UV-I 0 W/m 15,4 C 18,2 C 6,4 km/h (2 Bft) 100,00 %
21.06.2018 02:38 18,2 C 25,0 C 84 % 1014,8 hPa 0,0 l/m 5,5 km/h (1 Bft) S-SW 198 0 min 0,000 mm 0,0 UV-I 0 W/m 15,4 C 18,2 C 8,0 km/h (2 Bft) 96,15 %
21.06.2018 02:39 18,2 C 25,0 C 84 % 1014,8 hPa 0,0 l/m 4,5 km/h (1 Bft) S-SW 198 0 min 0,000 mm 0,0 UV-I 0 W/m 15,4 C 18,2 C 6,4 km/h (2 Bft) 100,00 %
21.06.2018 02:40 18,2 C 25,0 C 84 % 1014,8 hPa 0,0 l/m 5,0 km/h (1 Bft) S-SW 200 0 min 0,000 mm 0,0 UV-I 0 W/m 15,4 C 18,2 C 8,0 km/h (2 Bft) 100,00 %
21.06.2018 02:41 18,2 C 25,0 C 84 % 1014,8 hPa 0,0 l/m 5,3 km/h (1 Bft) S-SW 200 0 min 0,000 mm 0,0 UV-I 0 W/m 15,4 C 18,2 C 6,4 km/h (2 Bft) 100,00 %
21.06.2018 02:42 18,2 C 25,0 C 84 % 1014,8 hPa 0,0 l/m 4,0 km/h (1 Bft) S-SW 203 0 min 0,000 mm 0,0 UV-I 0 W/m 15,4 C 18,2 C 6,4 km/h (2 Bft) 100,00 %
21.06.2018 02:43 18,2 C 25,0 C 84 % 1014,8 hPa 0,0 l/m 4,6 km/h (1 Bft) S-SW 203 0 min 0,000 mm 0,0 UV-I 0 W/m 15,4 C 18,2 C 6,4 km/h (2 Bft) 100,00 %
21.06.2018 02:44 18,2 C 25,0 C 84 % 1014,8 hPa 0,0 l/m 4,8 km/h (1 Bft) S-SW 203 0 min 0,000 mm 0,0 UV-I 0 W/m 15,4 C 18,2 C 6,4 km/h (2 Bft) 100,00 %
21.06.2018 02:45 18,1 C 25,0 C 84 % 1014,8 hPa 0,0 l/m 4,1 km/h (1 Bft) S-SW 203 0 min 0,000 mm 0,0 UV-I 0 W/m 15,4 C 18,1 C 4,8 km/h (1 Bft) 100,00 %
21.06.2018 02:46 18,1 C 25,0 C 84 % 1014,8 hPa 0,0 l/m 4,1 km/h (1 Bft) S-SW 203 0 min 0,000 mm 0,0 UV-I 0 W/m 15,4 C 18,1 C 4,8 km/h (1 Bft) 100,00 %
21.06.2018 02:47 18,1 C 25,0 C 84 % 1014,8 hPa 0,0 l/m 5,7 km/h (1 Bft) S-SW 207 0 min 0,000 mm 0,0 UV-I 0 W/m 15,4 C 18,1 C 9,7 km/h (2 Bft) 100,00 %
21.06.2018 02:48 18,1 C 25,0 C 84 % 1014,8 hPa 0,0 l/m 5,8 km/h (2 Bft) S-SW 206 0 min 0,000 mm 0,0 UV-I 0 W/m 15,4 C 18,1 C 8,0 km/h (2 Bft) 100,00 %
21.06.2018 02:49 18,1 C 25,0 C 84 % 1014,7 hPa 0,0 l/m 4,8 km/h (1 Bft) S-SW 209 0 min 0,000 mm 0,0 UV-I 0 W/m 15,4 C 18,1 C 6,4 km/h (2 Bft) 100,00 %
21.06.2018 02:50 18,1 C 25,0 C 84 % 1014,8 hPa 0,0 l/m 5,4 km/h (1 Bft) S-SW 209 0 min 0,000 mm 0,0 UV-I 0 W/m 15,4 C 18,1 C 6,4 km/h (2 Bft) 95,65 %
21.06.2018 02:51 18,0 C 25,0 C 84 % 1014,8 hPa 0,0 l/m 5,2 km/h (1 Bft) S-SW 200 0 min 0,000 mm 0,0 UV-I 0 W/m 15,3 C 18,0 C 6,4 km/h (2 Bft) 100,00 %
21.06.2018 02:52 18,0 C 25,0 C 84 % 1014,8 hPa 0,0 l/m 4,9 km/h (1 Bft) S-SW 200 0 min 0,000 mm 0,0 UV-I 0 W/m 15,3 C 18,0 C 6,4 km/h (2 Bft) 95,65 %
21.06.2018 02:53 18,0 C 25,0 C 84 % 1014,8 hPa 0,0 l/m 4,2 km/h (1 Bft) S-SW 199 0 min 0,000 mm 0,0 UV-I 0 W/m 15,3 C 18,0 C 6,4 km/h (2 Bft) 100,00 %
21.06.2018 02:54 17,9 C 25,0 C 84 % 1014,7 hPa 0,0 l/m 4,8 km/h (1 Bft) S-SW 199 0 min 0,000 mm 0,0 UV-I 0 W/m 15,2 C 17,9 C 6,4 km/h (2 Bft) 100,00 %
21.06.2018 02:55 17,9 C 25,0 C 84 % 1014,7 hPa 0,0 l/m 4,4 km/h (1 Bft) S-SW 199 0 min 0,000 mm 0,0 UV-I 0 W/m 15,2 C 17,9 C 6,4 km/h (2 Bft) 100,00 %
21.06.2018 02:56 17,9 C 25,0 C 84 % 1014,7 hPa 0,0 l/m 5,0 km/h (1 Bft) S-SW 199 0 min 0,000 mm 0,0 UV-I 0 W/m 15,2 C 17,9 C 6,4 km/h (2 Bft) 100,00 %
21.06.2018 02:57 17,9 C 25,0 C 84 % 1014,7 hPa 0,0 l/m 5,6 km/h (1 Bft) S-SW 199 0 min 0,000 mm 0,0 UV-I 0 W/m 15,2 C 17,9 C 8,0 km/h (2 Bft) 100,00 %
21.06.2018 02:58 17,9 C 25,0 C 84 % 1014,7 hPa 0,0 l/m 4,4 km/h (1 Bft) S-SW 199 0 min 0,000 mm 0,0 UV-I 0 W/m 15,2 C 17,9 C 4,8 km/h (1 Bft) 100,00 %
21.06.2018 02:59 17,9 C 25,0 C 84 % 1014,7 hPa 0,0 l/m 5,8 km/h (2 Bft) S-SW 208 0 min 0,000 mm 0,0 UV-I 0 W/m 15,2 C 17,9 C 6,4 km/h (2 Bft) 95,65 %
21.06.2018 03:00 17,9 C 25,0 C 84 % 1014,7 hPa 0,0 l/m 5,2 km/h (1 Bft) S-SW 212 0 min 0,025 mm 0,0 UV-I 0 W/m 15,2 C 17,9 C 8,0 km/h (2 Bft) 100,00 %
21.06.2018 03:01 17,9 C 25,0 C 84 % 1014,7 hPa 0,0 l/m 5,0 km/h (1 Bft) S-SW 212 0 min 0,000 mm 0,0 UV-I 0 W/m 15,2 C 17,9 C 6,4 km/h (2 Bft) 100,00 %
21.06.2018 03:02 17,9 C 25,0 C 84 % 1014,7 hPa 0,0 l/m 4,8 km/h (1 Bft) S-SW 212 0 min 0,000 mm 0,0 UV-I 0 W/m 15,2 C 17,9 C 6,4 km/h (2 Bft) 100,00 %
21.06.2018 03:03 17,9 C 25,0 C 84 % 1014,7 hPa 0,0 l/m 4,0 km/h (1 Bft) S-SW 212 0 min 0,000 mm 0,0 UV-I 0 W/m 15,2 C 17,9 C 4,8 km/h (1 Bft) 100,00 %
21.06.2018 03:04 17,9 C 25,0 C 84 % 1014,7 hPa 0,0 l/m 3,5 km/h (1 Bft) S-SW 212 0 min 0,000 mm 0,0 UV-I 0 W/m 15,2 C 17,9 C 4,8 km/h (1 Bft) 100,00 %
21.06.2018 03:05 17,8 C 25,0 C 85 % 1014,7 hPa 0,0 l/m 3,6 km/h (1 Bft) S-SW 212 0 min 0,000 mm 0,0 UV-I 0 W/m 15,2 C 17,8 C 4,8 km/h (1 Bft) 95,65 %
21.06.2018 03:06 17,8 C 25,0 C 85 % 1014,7 hPa 0,0 l/m 2,8 km/h (1 Bft) S-SW 212 0 min 0,000 mm 0,0 UV-I 0 W/m 15,2 C 17,8 C 4,8 km/h (1 Bft) 100,00 %
21.06.2018 03:07 17,8 C 25,0 C 85 % 1014,7 hPa 0,0 l/m 3,6 km/h (1 Bft) S-SW 212 0 min 0,000 mm 0,0 UV-I 0 W/m 15,2 C 17,8 C 4,8 km/h (1 Bft) 100,00 %
21.06.2018 03:08 17,8 C 25,0 C 85 % 1014,7 hPa 0,0 l/m 3,5 km/h (1 Bft) S-SW 212 0 min 0,000 mm 0,0 UV-I 0 W/m 15,2 C 17,8 C 4,8 km/h (1 Bft) 100,00 %
21.06.2018 03:09 17,8 C 25,0 C 85 % 1014,7 hPa 0,0 l/m 4,0 km/h (1 Bft) S-SW 212 0 min 0,000 mm 0,0 UV-I 0 W/m 15,2 C 17,8 C 4,8 km/h (1 Bft) 95,65 %
21.06.2018 03:10 17,7 C 25,0 C 85 % 1014,7 hPa 0,0 l/m 4,0 km/h (1 Bft) S-SW 212 0 min 0,000 mm 0,0 UV-I 0 W/m 15,1 C 17,7 C 4,8 km/h (1 Bft) 100,00 %
21.06.2018 03:11 17,7 C 24,4 C 85 % 1014,7 hPa 0,0 l/m 4,8 km/h (1 Bft) S-SW 212 0 min 0,000 mm 0,0 UV-I 0 W/m 15,1 C 17,7 C 6,4 km/h (2 Bft) 100,00 %
21.06.2018 03:12 17,7 C 24,4 C 85 % 1014,7 hPa 0,0 l/m 4,7 km/h (1 Bft) S-SW 212 0 min 0,000 mm 0,0 UV-I 0 W/m 15,1 C 17,7 C 6,4 km/h (2 Bft) 100,00 %
21.06.2018 03:13 17,6 C 24,4 C 85 % 1014,7 hPa 0,0 l/m 4,7 km/h (1 Bft) S-SW 212 0 min 0,000 mm 0,0 UV-I 0 W/m 15,0 C 17,6 C 6,4 km/h (2 Bft) 100,00 %
21.06.2018 03:14 17,6 C 24,4 C 85 % 1014,7 hPa 0,0 l/m 3,8 km/h (1 Bft) S-SW 212 0 min 0,000 mm 0,0 UV-I 0 W/m 15,0 C 17,6 C 4,8 km/h (1 Bft) 100,00 %
21.06.2018 03:15 17,5 C 24,4 C 85 % 1014,7 hPa 0,0 l/m 4,0 km/h (1 Bft) S-SW 212 0 min 0,000 mm 0,0 UV-I 0 W/m 14,9 C 17,5 C 6,4 km/h (2 Bft) 100,00 %
21.06.2018 03:16 17,4 C 24,4 C 86 % 1014,6 hPa 0,0 l/m 4,9 km/h (1 Bft) S-SW 212 0 min 0,000 mm 0,0 UV-I 0 W/m 15,0 C 17,4 C 6,4 km/h (2 Bft) 95,83 %
21.06.2018 03:17 17,4 C 24,4 C 86 % 1014,6 hPa 0,0 l/m 4,3 km/h (1 Bft) S-SW 212 0 min 0,000 mm 0,0 UV-I 0 W/m 15,0 C 17,4 C 6,4 km/h (2 Bft) 100,00 %
21.06.2018 03:18 17,4 C 24,4 C 86 % 1014,6 hPa 0,0 l/m 4,6 km/h (1 Bft) S-SW 212 0 min 0,000 mm 0,0 UV-I 0 W/m 15,0 C 17,4 C 6,4 km/h (2 Bft) 100,00 %
21.06.2018 03:19 17,4 C 24,4 C 86 % 1014,6 hPa 0,0 l/m 4,6 km/h (1 Bft) S-SW 212 0 min 0,000 mm 0,0 UV-I 0 W/m 15,0 C 17,4 C 6,4 km/h (2 Bft) 100,00 %
21.06.2018 03:20 17,5 C 24,4 C 86 % 1014,6 hPa 0,0 l/m 4,1 km/h (1 Bft) S-SW 212 0 min 0,000 mm 0,0 UV-I 0 W/m 15,1 C 17,5 C 6,4 km/h (2 Bft) 100,00 %
21.06.2018 03:21 17,5 C 24,4 C 86 % 1014,6 hPa 0,0 l/m 3,2 km/h (1 Bft) S-SW 212 0 min 0,000 mm 0,0 UV-I 0 W/m 15,1 C 17,5 C 4,8 km/h (1 Bft) 100,00 %
21.06.2018 03:22 17,5 C 24,4 C 86 % 1014,6 hPa 0,0 l/m 4,6 km/h (1 Bft) S-SW 212 0 min 0,000 mm 0,0 UV-I 0 W/m 15,1 C 17,5 C 4,8 km/h (1 Bft) 100,00 %
21.06.2018 03:23 17,5 C 24,4 C 86 % 1014,6 hPa 0,0 l/m 3,1 km/h (1 Bft) S-SW 212 0 min 0,000 mm 0,0 UV-I 0 W/m 15,1 C 17,5 C 4,8 km/h (1 Bft) 100,00 %
21.06.2018 03:24 17,5 C 24,4 C 86 % 1014,6 hPa 0,0 l/m 4,0 km/h (1 Bft) S-SW 212 0 min 0,000 mm 0,0 UV-I 0 W/m 15,1 C 17,5 C 4,8 km/h (1 Bft) 91,30 %
21.06.2018 03:25 17,5 C 24,4 C 86 % 1014,6 hPa 0,0 l/m 4,2 km/h (1 Bft) S-SW 212 0 min 0,000 mm 0,0 UV-I 0 W/m 15,1 C 17,5 C 4,8 km/h (1 Bft) 100,00 %
21.06.2018 03:26 17,5 C 24,4 C 86 % 1014,6 hPa 0,0 l/m 3,8 km/h (1 Bft) S-SW 212 0 min 0,000 mm 0,0 UV-I 0 W/m 15,1 C 17,5 C 4,8 km/h (1 Bft) 95,65 %
21.06.2018 03:27 17,5 C 24,4 C 86 % 1014,6 hPa 0,0 l/m 3,8 km/h (1 Bft) S-SW 212 0 min 0,000 mm 0,0 UV-I 0 W/m 15,1 C 17,5 C 4,8 km/h (1 Bft) 100,00 %
21.06.2018 03:28 17,5 C 24,4 C 86 % 1014,6 hPa 0,0 l/m 3,5 km/h (1 Bft) S-SW 212 0 min 0,000 mm 0,0 UV-I 0 W/m 15,1 C 17,5 C 4,8 km/h (1 Bft) 95,65 %
21.06.2018 03:29 17,5 C 24,4 C 86 % 1014,6 hPa 0,0 l/m 3,8 km/h (1 Bft) S-SW 212 0 min 0,000 mm 0,0 UV-I 0 W/m 15,1 C 17,5 C 4,8 km/h (1 Bft) 100,00 %
21.06.2018 03:30 17,4 C 24,4 C 86 % 1014,5 hPa 0,0 l/m 3,2 km/h (1 Bft) S-SW 212 0 min 0,000 mm 0,0 UV-I 0 W/m 15,0 C 17,4 C 4,8 km/h (1 Bft) 91,30 %
21.06.2018 03:31 17,4 C 24,4 C 86 % 1014,5 hPa 0,0 l/m 3,4 km/h (1 Bft) S-SW 211 0 min 0,000 mm 0,0 UV-I 0 W/m 15,0 C 17,4 C 4,8 km/h (1 Bft) 100,00 %
21.06.2018 03:32 17,4 C 24,4 C 86 % 1014,5 hPa 0,0 l/m 4,2 km/h (1 Bft) S-SW 192 0 min 0,000 mm 0,0 UV-I 0 W/m 15,0 C 17,4 C 6,4 km/h (2 Bft) 100,00 %
21.06.2018 03:33 17,4 C 24,4 C 86 % 1014,5 hPa 0,0 l/m 3,8 km/h (1 Bft) S-SW 192 0 min 0,000 mm 0,0 UV-I 0 W/m 15,0 C 17,4 C 4,8 km/h (1 Bft) 100,00 %
21.06.2018 03:34 17,4 C 24,4 C 86 % 1014,5 hPa 0,0 l/m 4,8 km/h (1 Bft) S-SW 192 0 min 0,000 mm 0,0 UV-I 0 W/m 15,0 C 17,4 C 6,4 km/h (2 Bft) 95,65 %
21.06.2018 03:35 17,3 C 24,4 C 86 % 1014,5 hPa 0,0 l/m 4,2 km/h (1 Bft) S-SW 209 0 min 0,000 mm 0,0 UV-I 0 W/m 14,9 C 17,3 C 6,4 km/h (2 Bft) 100,00 %
21.06.2018 03:36 17,3 C 24,4 C 86 % 1014,4 hPa 0,0 l/m 3,7 km/h (1 Bft) S-SW 209 0 min 0,000 mm 0,0 UV-I 0 W/m 14,9 C 17,3 C 4,8 km/h (1 Bft) 100,00 %
21.06.2018 03:37 17,3 C 24,4 C 86 % 1014,4 hPa 0,0 l/m 4,3 km/h (1 Bft) S-SW 209 0 min 0,000 mm 0,0 UV-I 0 W/m 14,9 C 17,3 C 6,4 km/h (2 Bft) 100,00 %
21.06.2018 03:38 17,4 C 24,4 C 86 % 1014,5 hPa 0,0 l/m 4,8 km/h (1 Bft) S-SW 209 0 min 0,000 mm 0,0 UV-I 0 W/m 15,0 C 17,4 C 6,4 km/h (2 Bft) 95,83 %
21.06.2018 03:39 17,4 C 24,4 C 86 % 1014,5 hPa 0,0 l/m 4,9 km/h (1 Bft) S-SW 209 0 min 0,000 mm 0,0 UV-I 0 W/m 15,0 C 17,4 C 6,4 km/h (2 Bft) 95,65 %
21.06.2018 03:40 17,4 C 24,4 C 86 % 1014,4 hPa 0,0 l/m 4,7 km/h (1 Bft) SW 223 0 min 0,000 mm 0,0 UV-I 0 W/m 15,0 C 17,4 C 8,0 km/h (2 Bft) 95,83 %
21.06.2018 03:41 17,5 C 24,4 C 86 % 1014,4 hPa 0,0 l/m 4,6 km/h (1 Bft) SW 221 0 min 0,000 mm 0,0 UV-I 0 W/m 15,1 C 17,5 C 6,4 km/h (2 Bft) 100,00 %
21.06.2018 03:42 17,5 C 24,4 C 86 % 1014,4 hPa 0,0 l/m 4,7 km/h (1 Bft) S-SW 212 0 min 0,000 mm 0,0 UV-I 0 W/m 15,1 C 17,5 C 6,4 km/h (2 Bft) 95,83 %
21.06.2018 03:43 17,5 C 24,4 C 86 % 1014,4 hPa 0,0 l/m 5,7 km/h (1 Bft) S-SW 210 0 min 0,000 mm 0,0 UV-I 0 W/m 15,1 C 17,5 C 8,0 km/h (2 Bft) 100,00 %
21.06.2018 03:44 17,4 C 24,4 C 86 % 1014,4 hPa 0,0 l/m 4,8 km/h (1 Bft) S-SW 203 0 min 0,000 mm 0,0 UV-I 0 W/m 15,0 C 17,4 C 6,4 km/h (2 Bft) 95,83 %
21.06.2018 03:45 17,4 C 24,4 C 86 % 1014,4 hPa 0,0 l/m 5,3 km/h (1 Bft) SW 217 0 min 0,000 mm 0,0 UV-I 0 W/m 15,0 C 17,4 C 8,0 km/h (2 Bft) 100,00 %
21.06.2018 03:46 17,4 C 24,4 C 86 % 1014,4 hPa 0,0 l/m 5,5 km/h (1 Bft) SW 217 0 min 0,000 mm 0,0 UV-I 0 W/m 15,0 C 17,4 C 8,0 km/h (2 Bft) 95,83 %
21.06.2018 03:47 17,4 C 24,4 C 86 % 1014,4 hPa 0,0 l/m 5,6 km/h (1 Bft) S-SW 205 0 min 0,000 mm 0,0 UV-I 0 W/m 15,0 C 17,4 C 6,4 km/h (2 Bft) 100,00 %
21.06.2018 03:48 17,4 C 24,4 C 86 % 1014,4 hPa 0,0 l/m 5,7 km/h (1 Bft) S-SW 208 0 min 0,000 mm 0,0 UV-I 0 W/m 15,0 C 17,4 C 6,4 km/h (2 Bft) 95,65 %
21.06.2018 03:49 17,4 C 24,4 C 86 % 1014,4 hPa 0,0 l/m 5,4 km/h (1 Bft) S-SW 208 0 min 0,000 mm 0,0 UV-I 0 W/m 15,0 C 17,4 C 6,4 km/h (2 Bft) 100,00 %
21.06.2018 03:50 17,3 C 24,4 C 86 % 1014,4 hPa 0,0 l/m 4,9 km/h (1 Bft) S-SW 208 0 min 0,000 mm 0,0 UV-I 0 W/m 14,9 C 17,3 C 6,4 km/h (2 Bft) 92,31 %
21.06.2018 03:51 17,3 C 24,4 C 86 % 1014,4 hPa 0,0 l/m 4,6 km/h (1 Bft) S-SW 205 0 min 0,000 mm 0,0 UV-I 0 W/m 14,9 C 17,3 C 6,4 km/h (2 Bft) 88,89 %
21.06.2018 03:52 17,3 C 24,4 C 86 % 1014,3 hPa 0,0 l/m 4,9 km/h (1 Bft) S-SW 212 0 min 0,000 mm 0,0 UV-I 0 W/m 14,9 C 17,3 C 6,4 km/h (2 Bft) 100,00 %
21.06.2018 03:53 17,3 C 24,4 C 86 % 1014,4 hPa 0,0 l/m 4,8 km/h (1 Bft) S-SW 203 0 min 0,000 mm 0,0 UV-I 0 W/m 14,9 C 17,3 C 6,4 km/h (2 Bft) 91,67 %
21.06.2018 03:54 17,3 C 24,4 C 86 % 1014,3 hPa 0,0 l/m 4,9 km/h (1 Bft) S-SW 211 0 min 0,000 mm 0,0 UV-I 0 W/m 14,9 C 17,3 C 6,4 km/h (2 Bft) 100,00 %
21.06.2018 03:55 17,3 C 24,4 C 86 % 1014,4 hPa 0,0 l/m 3,8 km/h (1 Bft) S-SW 211 0 min 0,000 mm 0,0 UV-I 0 W/m 14,9 C 17,3 C 4,8 km/h (1 Bft) 91,67 %
21.06.2018 03:56 17,3 C 24,4 C 86 % 1014,4 hPa 0,0 l/m 4,8 km/h (1 Bft) S-SW 209 0 min 0,000 mm 0,0 UV-I 0 W/m 14,9 C 17,3 C 6,4 km/h (2 Bft) 100,00 %
21.06.2018 03:57 17,3 C 24,4 C 86 % 1014,3 hPa 0,0 l/m 4,4 km/h (1 Bft) S-SW 203 0 min 0,000 mm 0,0 UV-I 0 W/m 14,9 C 17,3 C 6,4 km/h (2 Bft) 92,59 %
21.06.2018 03:58 17,3 C 24,4 C 86 % 1014,3 hPa 0,0 l/m 5,2 km/h (1 Bft) S 191 0 min 0,000 mm 0,0 UV-I 0 W/m 14,9 C 17,3 C 8,0 km/h (2 Bft) 100,00 %
21.06.2018 03:59 17,3 C 24,4 C 87 % 1014,3 hPa 0,0 l/m 4,8 km/h (1 Bft) S-SW 199 0 min 0,000 mm 0,0 UV-I 0 W/m 15,1 C 17,3 C 8,0 km/h (2 Bft) 91,67 %
21.06.2018 04:00 17,3 C 24,4 C 86 % 1014,3 hPa 0,0 l/m 4,7 km/h (1 Bft) S-SW 199 0 min 0,026 mm 0,0 UV-I 0 W/m 14,9 C 17,3 C 6,4 km/h (2 Bft) 100,00 %
21.06.2018 04:01 17,3 C 24,4 C 86 % 1014,3 hPa 0,0 l/m 3,4 km/h (1 Bft) S-SW 199 0 min 0,000 mm 0,0 UV-I 0 W/m 14,9 C 17,3 C 4,8 km/h (1 Bft) 100,00 %
21.06.2018 04:02 17,3 C 24,4 C 86 % 1014,3 hPa 0,0 l/m 4,2 km/h (1 Bft) S-SW 205 0 min 0,000 mm 0,0 UV-I 0 W/m 14,9 C 17,3 C 6,4 km/h (2 Bft) 91,30 %
21.06.2018 04:03 17,4 C 24,4 C 86 % 1014,3 hPa 0,0 l/m 4,3 km/h (1 Bft) S-SW 206 0 min 0,000 mm 0,0 UV-I 0 W/m 15,0 C 17,4 C 4,8 km/h (1 Bft) 100,00 %
21.06.2018 04:04 17,3 C 24,4 C 86 % 1014,3 hPa 0,0 l/m 4,8 km/h (1 Bft) S-SW 207 0 min 0,000 mm 0,0 UV-I 0 W/m 14,9 C 17,3 C 6,4 km/h (2 Bft) 91,30 %
21.06.2018 04:05 17,3 C 24,4 C 86 % 1014,3 hPa 0,0 l/m 3,8 km/h (1 Bft) S-SW 206 0 min 0,000 mm 0,0 UV-I 0 W/m 14,9 C 17,3 C 6,4 km/h (2 Bft) 100,00 %
21.06.2018 04:06 17,3 C 24,4 C 86 % 1014,3 hPa 0,0 l/m 3,9 km/h (1 Bft) S-SW 201 0 min 0,000 mm 0,0 UV-I 0 W/m 14,9 C 17,3 C 6,4 km/h (2 Bft) 91,30 %
21.06.2018 04:07 17,3 C 24,4 C 86 % 1014,3 hPa 0,0 l/m 3,6 km/h (1 Bft) S-SW 201 0 min 0,000 mm 0,0 UV-I 0 W/m 14,9 C 17,3 C 4,8 km/h (1 Bft) 100,00 %
21.06.2018 04:08 17,2 C 24,4 C 86 % 1014,3 hPa 0,0 l/m 4,3 km/h (1 Bft) S-SW 202 0 min 0,000 mm 0,0 UV-I 0 W/m 14,8 C 17,2 C 6,4 km/h (2 Bft) 91,67 %
21.06.2018 04:09 17,2 C 24,4 C 86 % 1014,3 hPa 0,0 l/m 3,6 km/h (1 Bft) S-SW 202 0 min 0,000 mm 0,0 UV-I 0 W/m 14,8 C 17,2 C 4,8 km/h (1 Bft) 95,65 %
21.06.2018 04:10 17,2 C 24,4 C 87 % 1014,3 hPa 0,0 l/m 3,9 km/h (1 Bft) S-SW 202 0 min 0,000 mm 0,0 UV-I 0 W/m 15,0 C 17,2 C 4,8 km/h (1 Bft) 95,83 %
21.06.2018 04:11 17,2 C 24,4 C 87 % 1014,3 hPa 0,0 l/m 4,4 km/h (1 Bft) S-SW 202 0 min 0,000 mm 0,0 UV-I 0 W/m 15,0 C 17,2 C 6,4 km/h (2 Bft) 95,65 %
21.06.2018 04:12 17,2 C 24,4 C 87 % 1014,3 hPa 0,0 l/m 3,6 km/h (1 Bft) S-SW 202 0 min 0,000 mm 0,0 UV-I 0 W/m 15,0 C 17,2 C 4,8 km/h (1 Bft) 95,83 %
21.06.2018 04:13 17,2 C 24,4 C 87 % 1014,3 hPa 0,0 l/m 4,8 km/h (1 Bft) S-SW 205 0 min 0,000 mm 0,0 UV-I 0 W/m 15,0 C 17,2 C 6,4 km/h (2 Bft) 86,96 %
21.06.2018 04:14 17,1 C 24,4 C 87 % 1014,3 hPa 0,0 l/m 5,1 km/h (1 Bft) S-SW 205 0 min 0,000 mm 0,0 UV-I 0 W/m 14,9 C 17,1 C 6,4 km/h (2 Bft) 100,00 %
21.06.2018 04:15 17,1 C 24,4 C 87 % 1014,3 hPa 0,0 l/m 4,2 km/h (1 Bft) S-SW 205 0 min 0,000 mm 0,0 UV-I 0 W/m 14,9 C 17,1 C 6,4 km/h (2 Bft) 92,00 %
21.06.2018 04:16 17,0 C 24,4 C 87 % 1014,3 hPa 0,0 l/m 4,2 km/h (1 Bft) S-SW 205 0 min 0,000 mm 0,0 UV-I 0 W/m 14,8 C 17,0 C 4,8 km/h (1 Bft) 95,83 %
21.06.2018 04:17 16,9 C 24,4 C 87 % 1014,3 hPa 0,0 l/m 4,0 km/h (1 Bft) S-SW 205 0 min 0,000 mm 0,0 UV-I 0 W/m 14,7 C 16,9 C 6,4 km/h (2 Bft) 91,30 %
21.06.2018 04:18 16,9 C 24,4 C 87 % 1014,3 hPa 0,0 l/m 5,0 km/h (1 Bft) S-SW 213 0 min 0,000 mm 0,0 UV-I 0 W/m 14,7 C 16,9 C 6,4 km/h (2 Bft) 93,33 %
21.06.2018 04:19 16,9 C 24,4 C 87 % 1014,3 hPa 0,0 l/m 4,7 km/h (1 Bft) S-SW 209 0 min 0,000 mm 0,0 UV-I 0 W/m 14,7 C 16,9 C 6,4 km/h (2 Bft) 95,65 %
21.06.2018 04:20 16,9 C 24,4 C 87 % 1014,3 hPa 0,0 l/m 5,1 km/h (1 Bft) S-SW 210 0 min 0,000 mm 0,0 UV-I 0 W/m 14,7 C 16,9 C 6,4 km/h (2 Bft) 96,30 %
21.06.2018 04:21 16,9 C 24,4 C 87 % 1014,3 hPa 0,0 l/m 4,4 km/h (1 Bft) S-SW 210 0 min 0,000 mm 0,0 UV-I 0 W/m 14,7 C 16,9 C 6,4 km/h (2 Bft) 91,30 %
21.06.2018 04:22 17,0 C 24,4 C 87 % 1014,3 hPa 0,0 l/m 4,3 km/h (1 Bft) S-SW 209 0 min 0,000 mm 0,0 UV-I 0 W/m 14,8 C 17,0 C 4,8 km/h (1 Bft) 100,00 %
21.06.2018 04:23 17,0 C 24,4 C 87 % 1014,3 hPa 0,0 l/m 5,3 km/h (1 Bft) S-SW 210 0 min 0,000 mm 0,0 UV-I 0 W/m 14,8 C 17,0 C 6,4 km/h (2 Bft) 95,65 %
21.06.2018 04:24 17,1 C 24,4 C 87 % 1014,3 hPa 0,0 l/m 5,1 km/h (1 Bft) S-SW 210 0 min 0,000 mm 0,0 UV-I 0 W/m 14,9 C 17,1 C 6,4 km/h (2 Bft) 95,83 %
21.06.2018 04:25 17,1 C 24,4 C 87 % 1014,2 hPa 0,0 l/m 5,4 km/h (1 Bft) S-SW 209 0 min 0,000 mm 0,0 UV-I 0 W/m 14,9 C 17,1 C 6,4 km/h (2 Bft) 100,00 %
21.06.2018 04:26 17,1 C 24,4 C 87 % 1014,2 hPa 0,0 l/m 4,3 km/h (1 Bft) S-SW 206 0 min 0,000 mm 0,0 UV-I 0 W/m 14,9 C 17,1 C 6,4 km/h (2 Bft) 95,83 %
21.06.2018 04:27 17,1 C 24,4 C 87 % 1014,2 hPa 0,0 l/m 5,6 km/h (1 Bft) S-SW 205 0 min 0,000 mm 0,0 UV-I 0 W/m 14,9 C 17,1 C 6,4 km/h (2 Bft) 95,65 %
21.06.2018 04:28 17,1 C 24,4 C 87 % 1014,2 hPa 0,0 l/m 4,7 km/h (1 Bft) S-SW 205 0 min 0,000 mm 0,0 UV-I 0 W/m 14,9 C 17,1 C 4,8 km/h (1 Bft) 95,83 %
21.06.2018 04:29 17,1 C 24,4 C 87 % 1014,2 hPa 0,0 l/m 5,4 km/h (1 Bft) S-SW 203 0 min 0,000 mm 0,0 UV-I 0 W/m 14,9 C 17,1 C 6,4 km/h (2 Bft) 100,00 %
21.06.2018 04:30 17,0 C 24,4 C 87 % 1014,2 hPa 0,0 l/m 5,2 km/h (1 Bft) S-SW 204 0 min 0,000 mm 0,0 UV-I 0 W/m 14,8 C 17,0 C 6,4 km/h (2 Bft) 91,30 %
21.06.2018 04:31 17,0 C 24,4 C 87 % 1014,2 hPa 0,0 l/m 4,7 km/h (1 Bft) S-SW 204 0 min 0,000 mm 0,0 UV-I 0 W/m 14,8 C 17,0 C 6,4 km/h (2 Bft) 100,00 %
21.06.2018 04:32 17,0 C 24,4 C 87 % 1014,2 hPa 0,0 l/m 4,9 km/h (1 Bft) S-SW 204 0 min 0,000 mm 0,0 UV-I 0 W/m 14,8 C 17,0 C 6,4 km/h (2 Bft) 95,65 %
21.06.2018 04:33 17,0 C 24,4 C 87 % 1014,2 hPa 0,0 l/m 4,5 km/h (1 Bft) S-SW 204 0 min 0,000 mm 0,0 UV-I 0 W/m 14,8 C 17,0 C 6,4 km/h (2 Bft) 91,67 %
21.06.2018 04:34 17,0 C 24,4 C 87 % 1014,2 hPa 0,0 l/m 4,7 km/h (1 Bft) S-SW 204 0 min 0,000 mm 0,0 UV-I 0 W/m 14,8 C 17,0 C 6,4 km/h (2 Bft) 91,30 %
21.06.2018 04:35 17,0 C 24,4 C 87 % 1014,2 hPa 0,0 l/m 4,0 km/h (1 Bft) S-SW 204 0 min 0,000 mm 0,0 UV-I 0 W/m 14,8 C 17,0 C 6,4 km/h (2 Bft) 95,83 %
21.06.2018 04:36 17,0 C 24,4 C 87 % 1014,2 hPa 0,0 l/m 3,9 km/h (1 Bft) S-SW 204 0 min 0,000 mm 0,0 UV-I 0 W/m 14,8 C 17,0 C 4,8 km/h (1 Bft) 95,65 %
21.06.2018 04:37 17,0 C 24,4 C 87 % 1014,2 hPa 0,0 l/m 3,7 km/h (1 Bft) S-SW 204 0 min 0,000 mm 0,0 UV-I 0 W/m 14,8 C 17,0 C 4,8 km/h (1 Bft) 95,83 %
21.06.2018 04:38 17,0 C 24,4 C 87 % 1014,2 hPa 0,0 l/m 4,4 km/h (1 Bft) S-SW 212 0 min 0,000 mm 0,0 UV-I 0 W/m 14,8 C 17,0 C 6,4 km/h (2 Bft) 100,00 %
21.06.2018 04:39 17,0 C 24,4 C 87 % 1014,2 hPa 0,0 l/m 4,5 km/h (1 Bft) S-SW 211 0 min 0,000 mm 0,0 UV-I 0 W/m 14,8 C 17,0 C 4,8 km/h (1 Bft) 95,83 %
21.06.2018 04:40 17,0 C 24,4 C 87 % 1014,2 hPa 0,0 l/m 5,2 km/h (1 Bft) S-SW 211 0 min 0,000 mm 0,0 UV-I 0 W/m 14,8 C 17,0 C 8,0 km/h (2 Bft) 100,00 %
21.06.2018 04:41 17,0 C 24,4 C 87 % 1014,2 hPa 0,0 l/m 5,3 km/h (1 Bft) S-SW 211 0 min 0,000 mm 0,0 UV-I 0 W/m 14,8 C 17,0 C 6,4 km/h (2 Bft) 95,83 %
21.06.2018 04:42 17,0 C 24,4 C 87 % 1014,2 hPa 0,0 l/m 5,0 km/h (1 Bft) SW 221 0 min 0,000 mm 0,0 UV-I 0 W/m 14,8 C 17,0 C 6,4 km/h (2 Bft) 100,00 %
21.06.2018 04:43 16,9 C 24,4 C 87 % 1014,2 hPa 0,0 l/m 5,0 km/h (1 Bft) S-SW 211 0 min 0,000 mm 0,0 UV-I 0 W/m 14,7 C 16,9 C 6,4 km/h (2 Bft) 95,83 %
21.06.2018 04:44 16,9 C 24,4 C 87 % 1014,2 hPa 0,0 l/m 4,7 km/h (1 Bft) S-SW 211 0 min 0,000 mm 0,0 UV-I 1 W/m 14,7 C 16,9 C 6,4 km/h (2 Bft) 95,65 %
21.06.2018 04:45 16,9 C 24,4 C 87 % 1014,2 hPa 0,0 l/m 4,6 km/h (1 Bft) S-SW 209 0 min 0,000 mm 0,0 UV-I 5 W/m 14,7 C 16,9 C 6,4 km/h (2 Bft) 100,00 %
21.06.2018 04:46 16,9 C 24,4 C 87 % 1014,2 hPa 0,0 l/m 4,7 km/h (1 Bft) S-SW 209 0 min 0,000 mm 0,0 UV-I 5 W/m 14,7 C 16,9 C 6,4 km/h (2 Bft) 100,00 %
21.06.2018 04:47 16,9 C 24,4 C 87 % 1014,2 hPa 0,0 l/m 4,5 km/h (1 Bft) S-SW 209 0 min 0,000 mm 0,0 UV-I 5 W/m 14,7 C 16,9 C 6,4 km/h (2 Bft) 100,00 %
21.06.2018 04:48 16,8 C 24,4 C 87 % 1014,2 hPa 0,0 l/m 3,9 km/h (1 Bft) S-SW 209 0 min 0,000 mm 0,0 UV-I 5 W/m 14,6 C 16,8 C 4,8 km/h (1 Bft) 100,00 %
21.06.2018 04:49 16,8 C 24,4 C 87 % 1014,2 hPa 0,0 l/m 3,8 km/h (1 Bft) S-SW 209 0 min 0,000 mm 0,0 UV-I 5 W/m 14,6 C 16,8 C 4,8 km/h (1 Bft) 100,00 %
21.06.2018 04:50 16,8 C 24,4 C 87 % 1014,1 hPa 0,0 l/m 3,6 km/h (1 Bft) S-SW 209 0 min 0,000 mm 0,0 UV-I 5 W/m 14,6 C 16,8 C 4,8 km/h (1 Bft) 100,00 %
21.06.2018 04:51 16,8 C 24,4 C 88 % 1014,1 hPa 0,0 l/m 3,3 km/h (1 Bft) S-SW 209 0 min 0,000 mm 0,0 UV-I 5 W/m 14,8 C 16,8 C 4,8 km/h (1 Bft) 100,00 %
21.06.2018 04:52 16,8 C 24,4 C 88 % 1014,1 hPa 0,0 l/m 3,2 km/h (1 Bft) S-SW 209 0 min 0,000 mm 0,0 UV-I 5 W/m 14,8 C 16,8 C 4,8 km/h (1 Bft) 100,00 %
21.06.2018 04:53 16,7 C 24,4 C 88 % 1014,1 hPa 0,0 l/m 3,9 km/h (1 Bft) S-SW 209 0 min 0,000 mm 0,0 UV-I 5 W/m 14,7 C 16,7 C 4,8 km/h (1 Bft) 95,65 %
21.06.2018 04:54 16,7 C 24,4 C 88 % 1014,1 hPa 0,0 l/m 3,4 km/h (1 Bft) S-SW 209 0 min 0,000 mm 0,0 UV-I 5 W/m 14,7 C 16,7 C 4,8 km/h (1 Bft) 100,00 %
21.06.2018 04:55 16,7 C 24,4 C 88 % 1014,1 hPa 0,0 l/m 4,2 km/h (1 Bft) S-SW 209 0 min 0,000 mm 0,0 UV-I 5 W/m 14,7 C 16,7 C 6,4 km/h (2 Bft) 100,00 %
21.06.2018 04:56 16,7 C 24,4 C 88 % 1014,1 hPa 0,0 l/m 4,5 km/h (1 Bft) SW 216 0 min 0,000 mm 0,0 UV-I 7 W/m 14,7 C 16,7 C 6,4 km/h (2 Bft) 100,00 %
21.06.2018 04:57 16,7 C 24,4 C 88 % 1014,1 hPa 0,0 l/m 4,4 km/h (1 Bft) S-SW 213 0 min 0,000 mm 0,0 UV-I 7 W/m 14,7 C 16,7 C 6,4 km/h (2 Bft) 100,00 %
21.06.2018 04:58 16,7 C 24,4 C 88 % 1014,1 hPa 0,0 l/m 4,8 km/h (1 Bft) SW 217 0 min 0,000 mm 0,0 UV-I 7 W/m 14,7 C 16,7 C 6,4 km/h (2 Bft) 100,00 %
21.06.2018 04:59 16,7 C 24,4 C 88 % 1014,1 hPa 0,0 l/m 4,1 km/h (1 Bft) SW 223 0 min 0,000 mm 0,0 UV-I 7 W/m 14,7 C 16,7 C 4,8 km/h (1 Bft) 100,00 %
21.06.2018 05:00 16,7 C 24,4 C 88 % 1014,2 hPa 0,0 l/m 4,2 km/h (1 Bft) SW 223 0 min 0,000 mm 0,0 UV-I 7 W/m 14,7 C 16,7 C 4,8 km/h (1 Bft) 100,00 %
21.06.2018 05:01 16,8 C 24,4 C 88 % 1014,1 hPa 0,0 l/m 5,5 km/h (1 Bft) S-SW 209 0 min 0,000 mm 0,0 UV-I 7 W/m 14,8 C 16,8 C 6,4 km/h (2 Bft) 100,00 %
21.06.2018 05:02 16,8 C 24,4 C 88 % 1014,1 hPa 0,0 l/m 5,4 km/h (1 Bft) SW 220 0 min 0,000 mm 0,0 UV-I 8 W/m 14,8 C 16,8 C 6,4 km/h (2 Bft) 100,00 %
21.06.2018 05:03 16,8 C 24,4 C 88 % 1014,1 hPa 0,0 l/m 4,8 km/h (1 Bft) SW 220 0 min 0,000 mm 0,0 UV-I 9 W/m 14,8 C 16,8 C 6,4 km/h (2 Bft) 95,65 %
21.06.2018 05:04 16,8 C 24,4 C 88 % 1014,1 hPa 0,0 l/m 4,6 km/h (1 Bft) SW 220 0 min 0,000 mm 0,0 UV-I 9 W/m 14,8 C 16,8 C 6,4 km/h (2 Bft) 100,00 %
21.06.2018 05:05 16,8 C 24,4 C 88 % 1014,1 hPa 0,0 l/m 4,9 km/h (1 Bft) SW 220 0 min 0,000 mm 0,0 UV-I 9 W/m 14,8 C 16,8 C 6,4 km/h (2 Bft) 100,00 %
21.06.2018 05:06 16,9 C 24,4 C 88 % 1014,1 hPa 0,0 l/m 3,4 km/h (1 Bft) SW 225 0 min 0,000 mm 0,0 UV-I 9 W/m 14,9 C 16,9 C 4,8 km/h (1 Bft) 100,00 %
21.06.2018 05:07 16,9 C 24,4 C 88 % 1014,1 hPa 0,0 l/m 4,8 km/h (1 Bft) SW 225 0 min 0,000 mm 0,0 UV-I 9 W/m 14,9 C 16,9 C 6,4 km/h (2 Bft) 95,83 %
21.06.2018 05:08 16,8 C 24,4 C 88 % 1014,1 hPa 0,0 l/m 4,2 km/h (1 Bft) SW 225 0 min 0,000 mm 0,0 UV-I 10 W/m 14,8 C 16,8 C 6,4 km/h (2 Bft) 91,30 %
21.06.2018 05:09 16,8 C 24,4 C 88 % 1014,1 hPa 0,0 l/m 4,2 km/h (1 Bft) SW 225 0 min 0,000 mm 0,0 UV-I 11 W/m 14,8 C 16,8 C 4,8 km/h (1 Bft) 100,00 %
21.06.2018 05:10 16,8 C 24,4 C 88 % 1014,1 hPa 0,0 l/m 3,4 km/h (1 Bft) SW 225 0 min 0,000 mm 0,0 UV-I 11 W/m 14,8 C 16,8 C 4,8 km/h (1 Bft) 95,65 %
21.06.2018 05:11 16,8 C 24,4 C 88 % 1014,0 hPa 0,0 l/m 3,9 km/h (1 Bft) SW 225 0 min 0,000 mm 0,0 UV-I 11 W/m 14,8 C 16,8 C 6,4 km/h (2 Bft) 95,83 %
21.06.2018 05:12 16,8 C 24,4 C 88 % 1014,0 hPa 0,0 l/m 5,0 km/h (1 Bft) SW 225 0 min 0,000 mm 0,0 UV-I 12 W/m 14,8 C 16,8 C 6,4 km/h (2 Bft) 95,65 %
21.06.2018 05:13 16,8 C 24,4 C 88 % 1014,0 hPa 0,0 l/m 4,3 km/h (1 Bft) SW 225 0 min 0,000 mm 0,0 UV-I 12 W/m 14,8 C 16,8 C 6,4 km/h (2 Bft) 100,00 %
21.06.2018 05:14 16,8 C 24,4 C 88 % 1014,1 hPa 0,0 l/m 4,0 km/h (1 Bft) SW 225 0 min 0,000 mm 0,0 UV-I 12 W/m 14,8 C 16,8 C 4,8 km/h (1 Bft) 95,65 %
21.06.2018 05:15 16,8 C 24,4 C 88 % 1014,1 hPa 0,0 l/m 4,3 km/h (1 Bft) SW 226 0 min 0,000 mm 0,0 UV-I 13 W/m 14,8 C 16,8 C 6,4 km/h (2 Bft) 100,00 %
21.06.2018 05:16 16,8 C 24,4 C 88 % 1014,1 hPa 0,0 l/m 3,5 km/h (1 Bft) SW 226 1 min 0,000 mm 0,0 UV-I 14 W/m 14,8 C 16,8 C 4,8 km/h (1 Bft) 100,00 %
21.06.2018 05:17 16,8 C 24,4 C 88 % 1014,1 hPa 0,0 l/m 4,3 km/h (1 Bft) SW 226 1 min 0,000 mm 0,0 UV-I 14 W/m 14,8 C 16,8 C 6,4 km/h (2 Bft) 100,00 %
21.06.2018 05:18 16,8 C 24,4 C 88 % 1014,1 hPa 0,0 l/m 4,5 km/h (1 Bft) SW 226 1 min 0,000 mm 0,0 UV-I 16 W/m 14,8 C 16,8 C 6,4 km/h (2 Bft) 96,15 %
21.06.2018 05:19 16,8 C 24,4 C 88 % 1014,1 hPa 0,0 l/m 4,6 km/h (1 Bft) SW 226 1 min 0,000 mm 0,0 UV-I 18 W/m 14,8 C 16,8 C 4,8 km/h (1 Bft) 95,83 %
21.06.2018 05:20 16,8 C 24,4 C 88 % 1014,1 hPa 0,0 l/m 4,6 km/h (1 Bft) SW 226 1 min 0,000 mm 0,0 UV-I 19 W/m 14,8 C 16,8 C 6,4 km/h (2 Bft) 95,65 %
21.06.2018 05:21 16,8 C 24,4 C 88 % 1014,1 hPa 0,0 l/m 4,6 km/h (1 Bft) SW 225 1 min 0,000 mm 0,0 UV-I 20 W/m 14,8 C 16,8 C 6,4 km/h (2 Bft) 100,00 %
21.06.2018 05:22 16,8 C 24,4 C 88 % 1014,1 hPa 0,0 l/m 4,3 km/h (1 Bft) SW 225 1 min 0,000 mm 0,0 UV-I 21 W/m 14,8 C 16,8 C 4,8 km/h (1 Bft) 100,00 %
21.06.2018 05:23 16,8 C 24,4 C 88 % 1014,1 hPa 0,0 l/m 4,0 km/h (1 Bft) SW 225 1 min 0,000 mm 0,0 UV-I 22 W/m 14,8 C 16,8 C 4,8 km/h (1 Bft) 100,00 %
21.06.2018 05:24 16,8 C 24,4 C 88 % 1014,1 hPa 0,0 l/m 3,6 km/h (1 Bft) SW 225 1 min 0,000 mm 0,0 UV-I 23 W/m 14,8 C 16,8 C 4,8 km/h (1 Bft) 100,00 %
21.06.2018 05:25 16,8 C 24,4 C 88 % 1014,1 hPa 0,0 l/m 3,9 km/h (1 Bft) SW 225 1 min 0,000 mm 0,0 UV-I 25 W/m 14,8 C 16,8 C 4,8 km/h (1 Bft) 100,00 %
21.06.2018 05:26 16,8 C 24,4 C 88 % 1014,0 hPa 0,0 l/m 4,2 km/h (1 Bft) SW 225 1 min 0,000 mm 0,0 UV-I 26 W/m 14,8 C 16,8 C 4,8 km/h (1 Bft) 100,00 %
21.06.2018 05:27 16,8 C 24,4 C 87 % 1014,1 hPa 0,0 l/m 3,4 km/h (1 Bft) SW 225 1 min 0,000 mm 0,0 UV-I 27 W/m 14,6 C 16,8 C 4,8 km/h (1 Bft) 100,00 %
21.06.2018 05:28 16,8 C 24,4 C 88 % 1014,0 hPa 0,0 l/m 3,6 km/h (1 Bft) SW 225 1 min 0,000 mm 0,0 UV-I 29 W/m 14,8 C 16,8 C 4,8 km/h (1 Bft) 100,00 %
21.06.2018 05:29 16,9 C 24,4 C 88 % 1014,0 hPa 0,0 l/m 4,1 km/h (1 Bft) SW 225 1 min 0,000 mm 0,0 UV-I 30 W/m 14,9 C 16,9 C 6,4 km/h (2 Bft) 100,00 %
21.06.2018 05:30 16,9 C 24,4 C 88 % 1014,0 hPa 0,0 l/m 3,6 km/h (1 Bft) SW 225 1 min 0,000 mm 0,0 UV-I 32 W/m 14,9 C 16,9 C 4,8 km/h (1 Bft) 100,00 %
21.06.2018 05:31 16,9 C 24,4 C 88 % 1014,0 hPa 0,0 l/m 3,3 km/h (1 Bft) SW 225 1 min 0,000 mm 0,0 UV-I 33 W/m 14,9 C 16,9 C 4,8 km/h (1 Bft) 95,65 %
21.06.2018 05:32 17,0 C 24,4 C 88 % 1014,0 hPa 0,0 l/m 3,4 km/h (1 Bft) SW 225 1 min 0,000 mm 0,0 UV-I 34 W/m 15,0 C 17,0 C 4,8 km/h (1 Bft) 100,00 %
21.06.2018 05:33 17,0 C 24,4 C 87 % 1014,0 hPa 0,0 l/m 3,6 km/h (1 Bft) SW 225 1 min 0,000 mm 0,0 UV-I 35 W/m 14,8 C 17,0 C 4,8 km/h (1 Bft) 100,00 %
21.06.2018 05:34 17,0 C 24,4 C 88 % 1014,0 hPa 0,0 l/m 4,0 km/h (1 Bft) SW 225 1 min 0,000 mm 0,0 UV-I 36 W/m 15,0 C 17,0 C 4,8 km/h (1 Bft) 100,00 %
21.06.2018 05:35 17,0 C 24,4 C 87 % 1014,0 hPa 0,0 l/m 2,8 km/h (1 Bft) SW 225 1 min 0,000 mm 0,0 UV-I 39 W/m 14,8 C 17,0 C 3,2 km/h (1 Bft) 100,00 %
21.06.2018 05:36 17,1 C 24,4 C 87 % 1014,0 hPa 0,0 l/m 2,8 km/h (1 Bft) SW 225 1 min 0,000 mm 0,0 UV-I 40 W/m 14,9 C 17,1 C 4,8 km/h (1 Bft) 100,00 %
21.06.2018 05:37 17,0 C 24,4 C 87 % 1014,0 hPa 0,0 l/m 2,3 km/h (1 Bft) SW 225 1 min 0,000 mm 0,0 UV-I 40 W/m 14,8 C 17,0 C 3,2 km/h (1 Bft) 100,00 %
21.06.2018 05:38 17,0 C 24,4 C 87 % 1014,0 hPa 0,0 l/m 2,5 km/h (1 Bft) SW 225 1 min 0,000 mm 0,0 UV-I 43 W/m 14,8 C 17,0 C 3,2 km/h (1 Bft) 100,00 %
21.06.2018 05:39 17,0 C 24,4 C 87 % 1014,0 hPa 0,0 l/m 2,8 km/h (1 Bft) SW 225 1 min 0,000 mm 0,0 UV-I 45 W/m 14,8 C 17,0 C 4,8 km/h (1 Bft) 100,00 %
21.06.2018 05:40 17,0 C 24,4 C 87 % 1014,0 hPa 0,0 l/m 2,5 km/h (1 Bft) SW 225 1 min 0,000 mm 0,0 UV-I 46 W/m 14,8 C 17,0 C 3,2 km/h (1 Bft) 100,00 %
21.06.2018 05:41 17,0 C 24,4 C 87 % 1013,9 hPa 0,0 l/m 2,1 km/h (1 Bft) SW 225 1 min 0,000 mm 0,0 UV-I 47 W/m 14,8 C 17,0 C 3,2 km/h (1 Bft) 95,65 %
21.06.2018 05:42 17,0 C 24,4 C 87 % 1013,9 hPa 0,0 l/m 2,8 km/h (1 Bft) SW 225 1 min 0,000 mm 0,0 UV-I 49 W/m 14,8 C 17,0 C 3,2 km/h (1 Bft) 100,00 %
21.06.2018 05:43 17,0 C 24,4 C 87 % 1014,0 hPa 0,0 l/m 2,4 km/h (1 Bft) SW 225 1 min 0,000 mm 0,0 UV-I 51 W/m 14,8 C 17,0 C 3,2 km/h (1 Bft) 100,00 %
21.06.2018 05:44 17,0 C 24,4 C 87 % 1014,0 hPa 0,0 l/m 2,2 km/h (1 Bft) SW 225 1 min 0,000 mm 0,0 UV-I 51 W/m 14,8 C 17,0 C 3,2 km/h (1 Bft) 100,00 %
21.06.2018 05:45 17,0 C 24,4 C 87 % 1013,9 hPa 0,0 l/m 2,8 km/h (1 Bft) SW 225 1 min 0,000 mm 0,0 UV-I 52 W/m 14,8 C 17,0 C 3,2 km/h (1 Bft) 100,00 %
21.06.2018 05:46 17,1 C 24,4 C 87 % 1013,9 hPa 0,0 l/m 2,5 km/h (1 Bft) SW 225 1 min 0,000 mm 0,0 UV-I 54 W/m 14,9 C 17,1 C 3,2 km/h (1 Bft) 100,00 %
21.06.2018 05:47 17,0 C 24,4 C 87 % 1014,0 hPa 0,0 l/m 2,7 km/h (1 Bft) SW 225 1 min 0,000 mm 0,0 UV-I 56 W/m 14,8 C 17,0 C 3,2 km/h (1 Bft) 100,00 %
21.06.2018 05:48 17,0 C 24,4 C 87 % 1013,9 hPa 0,0 l/m 1,6 km/h (1 Bft) SW 225 1 min 0,000 mm 0,0 UV-I 58 W/m 14,8 C 17,0 C 1,6 km/h (1 Bft) 95,65 %
21.06.2018 05:49 17,0 C 24,4 C 88 % 1013,9 hPa 0,0 l/m 2,6 km/h (1 Bft) SW 225 1 min 0,000 mm 0,0 UV-I 62 W/m 15,0 C 17,0 C 3,2 km/h (1 Bft) 95,83 %
21.06.2018 05:50 17,0 C 24,4 C 88 % 1013,9 hPa 0,0 l/m 3,3 km/h (1 Bft) SW 225 1 min 0,000 mm 0,0 UV-I 63 W/m 15,0 C 17,0 C 4,8 km/h (1 Bft) 100,00 %
21.06.2018 05:51 16,9 C 24,4 C 87 % 1013,9 hPa 0,0 l/m 3,3 km/h (1 Bft) SW 225 1 min 0,000 mm 0,0 UV-I 64 W/m 14,7 C 16,9 C 4,8 km/h (1 Bft) 100,00 %
21.06.2018 05:52 16,9 C 24,4 C 87 % 1013,9 hPa 0,0 l/m 3,2 km/h (1 Bft) SW 225 1 min 0,000 mm 0,0 UV-I 67 W/m 14,7 C 16,9 C 3,2 km/h (1 Bft) 96,15 %
21.06.2018 05:53 16,9 C 24,4 C 87 % 1013,9 hPa 0,0 l/m 3,5 km/h (1 Bft) SW 225 1 min 0,000 mm 0,0 UV-I 69 W/m 14,7 C 16,9 C 4,8 km/h (1 Bft) 95,83 %
21.06.2018 05:54 16,9 C 24,4 C 87 % 1013,9 hPa 0,0 l/m 2,9 km/h (1 Bft) SW 225 1 min 0,000 mm 0,0 UV-I 70 W/m 14,7 C 16,9 C 3,2 km/h (1 Bft) 95,65 %
21.06.2018 05:55 16,9 C 24,4 C 88 % 1013,9 hPa 0,0 l/m 2,7 km/h (1 Bft) SW 225 1 min 0,000 mm 0,0 UV-I 71 W/m 14,9 C 16,9 C 3,2 km/h (1 Bft) 91,67 %
21.06.2018 05:56 16,9 C 24,4 C 88 % 1013,9 hPa 0,0 l/m 2,8 km/h (1 Bft) SW 225 1 min 0,000 mm 0,0 UV-I 73 W/m 14,9 C 16,9 C 3,2 km/h (1 Bft) 100,00 %
21.06.2018 05:57 17,0 C 24,4 C 88 % 1013,9 hPa 0,0 l/m 3,4 km/h (1 Bft) SW 225 1 min 0,000 mm 0,0 UV-I 75 W/m 15,0 C 17,0 C 4,8 km/h (1 Bft) 95,83 %
21.06.2018 05:58 17,1 C 24,4 C 88 % 1013,9 hPa 0,0 l/m 2,3 km/h (1 Bft) SW 225 1 min 0,000 mm 0,0 UV-I 77 W/m 15,1 C 17,1 C 3,2 km/h (1 Bft) 100,00 %
21.06.2018 05:59 17,1 C 24,4 C 88 % 1013,9 hPa 0,0 l/m 2,7 km/h (1 Bft) SW 225 1 min 0,000 mm 0,0 UV-I 79 W/m 15,1 C 17,1 C 3,2 km/h (1 Bft) 96,30 %
21.06.2018 06:00 17,1 C 24,4 C 88 % 1013,9 hPa 0,0 l/m 2,4 km/h (1 Bft) SW 225 1 min 0,025 mm 0,0 UV-I 81 W/m 15,1 C 17,1 C 3,2 km/h (1 Bft) 95,83 %
21.06.2018 06:01 17,1 C 24,4 C 88 % 1013,9 hPa 0,0 l/m 3,0 km/h (1 Bft) SW 225 1 min 0,000 mm 0,0 UV-I 83 W/m 15,1 C 17,1 C 4,8 km/h (1 Bft) 100,00 %
21.06.2018 06:02 17,2 C 24,4 C 88 % 1013,9 hPa 0,0 l/m 3,2 km/h (1 Bft) SW 225 1 min 0,000 mm 0,0 UV-I 84 W/m 15,2 C 17,2 C 4,8 km/h (1 Bft) 96,43 %
21.06.2018 06:03 17,2 C 24,4 C 88 % 1013,9 hPa 0,0 l/m 3,6 km/h (1 Bft) SW 225 1 min 0,000 mm 0,0 UV-I 85 W/m 15,2 C 17,2 C 4,8 km/h (1 Bft) 95,65 %
21.06.2018 06:04 17,2 C 24,4 C 88 % 1013,9 hPa 0,0 l/m 3,2 km/h (1 Bft) SW 225 1 min 0,000 mm 0,0 UV-I 88 W/m 15,2 C 17,2 C 4,8 km/h (1 Bft) 95,83 %
21.06.2018 06:05 17,2 C 24,4 C 88 % 1013,9 hPa 0,0 l/m 1,9 km/h (1 Bft) SW 225 1 min 0,000 mm 0,0 UV-I 90 W/m 15,2 C 17,2 C 3,2 km/h (1 Bft) 95,45 %
21.06.2018 06:06 17,2 C 24,4 C 88 % 1013,9 hPa 0,0 l/m 2,3 km/h (1 Bft) SW 225 1 min 0,000 mm 0,0 UV-I 91 W/m 15,2 C 17,2 C 3,2 km/h (1 Bft) 95,83 %
21.06.2018 06:07 17,2 C 24,4 C 88 % 1013,9 hPa 0,0 l/m 0,7 km/h (0 Bft) SW 225 1 min 0,000 mm 0,0 UV-I 94 W/m 15,2 C 17,2 C 1,6 km/h (1 Bft) 95,65 %
21.06.2018 06:08 17,3 C 24,4 C 88 % 1013,9 hPa 0,0 l/m 2,5 km/h (1 Bft) SW 225 1 min 0,000 mm 0,0 UV-I 96 W/m 15,3 C 17,3 C 3,2 km/h (1 Bft) 95,83 %
21.06.2018 06:09 17,3 C 24,4 C 87 % 1013,9 hPa 0,0 l/m 1,7 km/h (1 Bft) SW 225 1 min 0,000 mm 0,0 UV-I 98 W/m 15,1 C 17,3 C 3,2 km/h (1 Bft) 96,15 %
21.06.2018 06:10 17,4 C 24,4 C 87 % 1013,9 hPa 0,0 l/m 1,9 km/h (1 Bft) SW 225 1 min 0,000 mm 0,0 UV-I 100 W/m 15,2 C 17,4 C 3,2 km/h (1 Bft) 95,83 %
21.06.2018 06:11 17,4 C 24,4 C 87 % 1013,9 hPa 0,0 l/m 2,2 km/h (1 Bft) SW 225 1 min 0,000 mm 0,0 UV-I 102 W/m 15,2 C 17,4 C 3,2 km/h (1 Bft) 95,65 %
21.06.2018 06:12 17,5 C 24,4 C 87 % 1013,9 hPa 0,0 l/m 2,4 km/h (1 Bft) SW 225 1 min 0,000 mm 0,0 UV-I 104 W/m 15,3 C 17,5 C 3,2 km/h (1 Bft) 100,00 %
21.06.2018 06:13 17,6 C 24,4 C 87 % 1013,9 hPa 0,0 l/m 2,1 km/h (1 Bft) SW 225 1 min 0,000 mm 0,0 UV-I 106 W/m 15,4 C 17,6 C 3,2 km/h (1 Bft) 96,15 %
21.06.2018 06:14 17,6 C 24,4 C 87 % 1013,8 hPa 0,0 l/m 2,1 km/h (1 Bft) SW 225 1 min 0,000 mm 0,0 UV-I 108 W/m 15,4 C 17,6 C 3,2 km/h (1 Bft) 100,00 %
21.06.2018 06:15 17,6 C 24,4 C 87 % 1013,9 hPa 0,0 l/m 2,0 km/h (1 Bft) SW 225 1 min 0,000 mm 0,0 UV-I 110 W/m 15,4 C 17,6 C 3,2 km/h (1 Bft) 95,83 %
21.06.2018 06:16 17,6 C 24,4 C 87 % 1013,8 hPa 0,0 l/m 2,1 km/h (1 Bft) SW 225 1 min 0,000 mm 0,0 UV-I 113 W/m 15,4 C 17,6 C 3,2 km/h (1 Bft) 100,00 %
21.06.2018 06:17 17,6 C 24,4 C 86 % 1013,8 hPa 0,0 l/m 1,9 km/h (1 Bft) SW 225 1 min 0,000 mm 0,0 UV-I 114 W/m 15,2 C 17,6 C 3,2 km/h (1 Bft) 95,83 %
21.06.2018 06:18 17,6 C 24,4 C 86 % 1013,9 hPa 0,0 l/m 1,5 km/h (1 Bft) SW 225 1 min 0,000 mm 0,0 UV-I 116 W/m 15,2 C 17,6 C 3,2 km/h (1 Bft) 100,00 %
21.06.2018 06:19 17,6 C 24,4 C 86 % 1013,8 hPa 0,0 l/m 2,7 km/h (1 Bft) SW 225 1 min 0,000 mm 0,0 UV-I 119 W/m 15,2 C 17,6 C 4,8 km/h (1 Bft) 95,83 %
21.06.2018 06:20 17,6 C 24,4 C 86 % 1013,8 hPa 0,0 l/m 3,6 km/h (1 Bft) SW 225 1 min 0,000 mm 0,0 UV-I 122 W/m 15,2 C 17,6 C 4,8 km/h (1 Bft) 95,65 %
21.06.2018 06:21 17,6 C 24,4 C 86 % 1013,9 hPa 0,0 l/m 3,2 km/h (1 Bft) SW 225 1 min 0,000 mm 0,0 UV-I 124 W/m 15,2 C 17,6 C 4,8 km/h (1 Bft) 100,00 %
21.06.2018 06:22 17,6 C 24,4 C 87 % 1013,9 hPa 0,0 l/m 1,5 km/h (1 Bft) SW 225 1 min 0,000 mm 0,0 UV-I 125 W/m 15,4 C 17,6 C 3,2 km/h (1 Bft) 95,65 %
21.06.2018 06:23 17,7 C 24,4 C 87 % 1013,8 hPa 0,0 l/m 2,5 km/h (1 Bft) SW 225 1 min 0,000 mm 0,0 UV-I 127 W/m 15,5 C 17,7 C 3,2 km/h (1 Bft) 100,00 %
21.06.2018 06:24 17,7 C 24,4 C 86 % 1013,9 hPa 0,0 l/m 2,8 km/h (1 Bft) SW 225 1 min 0,000 mm 0,0 UV-I 129 W/m 15,3 C 17,7 C 4,8 km/h (1 Bft) 95,65 %
21.06.2018 06:25 17,7 C 24,4 C 86 % 1013,8 hPa 0,0 l/m 3,6 km/h (1 Bft) SW 225 1 min 0,000 mm 0,0 UV-I 133 W/m 15,3 C 17,7 C 4,8 km/h (1 Bft) 100,00 %
21.06.2018 06:26 17,8 C 24,4 C 86 % 1013,9 hPa 0,0 l/m 3,6 km/h (1 Bft) SW 225 1 min 0,000 mm 0,0 UV-I 135 W/m 15,4 C 17,8 C 4,8 km/h (1 Bft) 95,65 %
21.06.2018 06:27 17,8 C 24,4 C 86 % 1013,9 hPa 0,0 l/m 2,9 km/h (1 Bft) SW 225 1 min 0,000 mm 0,0 UV-I 136 W/m 15,4 C 17,8 C 3,2 km/h (1 Bft) 100,00 %
21.06.2018 06:28 17,8 C 24,4 C 86 % 1013,8 hPa 0,0 l/m 2,1 km/h (1 Bft) SW 225 1 min 0,000 mm 0,0 UV-I 139 W/m 15,4 C 17,8 C 3,2 km/h (1 Bft) 92,31 %
21.06.2018 06:29 17,8 C 24,4 C 86 % 1013,8 hPa 0,0 l/m 2,7 km/h (1 Bft) SW 225 1 min 0,000 mm 0,0 UV-I 141 W/m 15,4 C 17,8 C 3,2 km/h (1 Bft) 95,83 %
21.06.2018 06:30 17,8 C 24,4 C 86 % 1013,8 hPa 0,0 l/m 2,7 km/h (1 Bft) SW 225 1 min 0,000 mm 0,0 UV-I 143 W/m 15,4 C 17,8 C 4,8 km/h (1 Bft) 100,00 %
21.06.2018 06:31 17,9 C 24,4 C 86 % 1013,8 hPa 0,0 l/m 3,3 km/h (1 Bft) SW 225 1 min 0,000 mm 0,0 UV-I 147 W/m 15,5 C 17,9 C 4,8 km/h (1 Bft) 100,00 %
21.06.2018 06:32 17,9 C 24,4 C 86 % 1013,8 hPa 0,0 l/m 2,5 km/h (1 Bft) SW 225 1 min 0,000 mm 0,0 UV-I 149 W/m 15,5 C 17,9 C 3,2 km/h (1 Bft) 100,00 %
21.06.2018 06:33 17,9 C 24,4 C 86 % 1013,8 hPa 0,0 l/m 1,7 km/h (1 Bft) SW 225 1 min 0,000 mm 0,0 UV-I 150 W/m 15,5 C 17,9 C 3,2 km/h (1 Bft) 95,83 %
21.06.2018 06:34 18,0 C 24,4 C 86 % 1013,8 hPa 0,0 l/m 1,3 km/h (1 Bft) SW 225 1 min 0,000 mm 0,0 UV-I 154 W/m 15,6 C 18,0 C 3,2 km/h (1 Bft) 95,65 %
21.06.2018 06:35 18,1 C 24,4 C 86 % 1013,8 hPa 0,0 l/m 1,0 km/h (0 Bft) SW 225 1 min 0,000 mm 0,0 UV-I 156 W/m 15,7 C 18,1 C 1,6 km/h (1 Bft) 100,00 %
21.06.2018 06:36 18,1 C 24,4 C 86 % 1013,9 hPa 0,0 l/m 2,4 km/h (1 Bft) SW 225 1 min 0,000 mm 0,0 UV-I 159 W/m 15,7 C 18,1 C 3,2 km/h (1 Bft) 96,15 %
21.06.2018 06:37 18,1 C 24,4 C 86 % 1013,9 hPa 0,0 l/m 2,8 km/h (1 Bft) SW 225 1 min 0,000 mm 0,0 UV-I 161 W/m 15,7 C 18,1 C 4,8 km/h (1 Bft) 100,00 %
21.06.2018 06:38 18,2 C 24,4 C 86 % 1013,9 hPa 0,0 l/m 2,2 km/h (1 Bft) SW 225 1 min 0,000 mm 0,0 UV-I 163 W/m 15,8 C 18,2 C 4,8 km/h (1 Bft) 100,00 %
21.06.2018 06:39 18,2 C 24,4 C 85 % 1013,9 hPa 0,0 l/m 3,6 km/h (1 Bft) SW 225 1 min 0,000 mm 0,0 UV-I 164 W/m 15,6 C 18,2 C 4,8 km/h (1 Bft) 100,00 %
21.06.2018 06:40 18,2 C 24,4 C 85 % 1013,9 hPa 0,0 l/m 2,8 km/h (1 Bft) SW 225 1 min 0,000 mm 0,0 UV-I 169 W/m 15,6 C 18,2 C 3,2 km/h (1 Bft) 100,00 %
21.06.2018 06:41 18,3 C 24,4 C 85 % 1013,9 hPa 0,0 l/m 3,6 km/h (1 Bft) SW 225 1 min 0,000 mm 0,0 UV-I 171 W/m 15,7 C 18,3 C 4,8 km/h (1 Bft) 100,00 %
21.06.2018 06:42 18,3 C 24,4 C 85 % 1013,9 hPa 0,0 l/m 3,2 km/h (1 Bft) SW 225 1 min 0,000 mm 0,0 UV-I 173 W/m 15,7 C 18,3 C 4,8 km/h (1 Bft) 100,00 %
21.06.2018 06:43 18,3 C 24,4 C 85 % 1013,9 hPa 0,0 l/m 2,9 km/h (1 Bft) SW 225 1 min 0,000 mm 0,0 UV-I 175 W/m 15,7 C 18,3 C 4,8 km/h (1 Bft) 100,00 %
21.06.2018 06:44 18,3 C 24,4 C 85 % 1013,9 hPa 0,0 l/m 1,9 km/h (1 Bft) SW 225 1 min 0,000 mm 0,0 UV-I 177 W/m 15,7 C 18,3 C 3,2 km/h (1 Bft) 100,00 %
21.06.2018 06:45 18,4 C 24,4 C 84 % 1013,9 hPa 0,0 l/m 2,2 km/h (1 Bft) SW 225 1 min 0,000 mm 0,0 UV-I 180 W/m 15,6 C 18,4 C 3,2 km/h (1 Bft) 100,00 %
21.06.2018 06:46 18,4 C 24,4 C 84 % 1013,9 hPa 0,0 l/m 3,1 km/h (1 Bft) SW 225 1 min 0,000 mm 0,0 UV-I 183 W/m 15,6 C 18,4 C 4,8 km/h (1 Bft) 100,00 %
21.06.2018 06:47 18,5 C 24,4 C 85 % 1013,9 hPa 0,0 l/m 3,6 km/h (1 Bft) SW 226 1 min 0,000 mm 0,0 UV-I 185 W/m 15,9 C 18,5 C 4,8 km/h (1 Bft) 100,00 %
21.06.2018 06:48 18,6 C 24,4 C 84 % 1013,9 hPa 0,0 l/m 2,4 km/h (1 Bft) SW 226 1 min 0,000 mm 0,0 UV-I 187 W/m 15,8 C 18,6 C 4,8 km/h (1 Bft) 100,00 %
21.06.2018 06:49 18,6 C 24,4 C 84 % 1013,9 hPa 0,0 l/m 3,6 km/h (1 Bft) SW 226 1 min 0,000 mm 0,0 UV-I 191 W/m 15,8 C 18,6 C 4,8 km/h (1 Bft) 100,00 %
21.06.2018 06:50 18,6 C 24,4 C 84 % 1013,9 hPa 0,0 l/m 3,2 km/h (1 Bft) SW 226 1 min 0,000 mm 0,0 UV-I 193 W/m 15,8 C 18,6 C 4,8 km/h (1 Bft) 100,00 %
21.06.2018 06:51 18,6 C 24,4 C 84 % 1013,9 hPa 0,0 l/m 1,3 km/h (1 Bft) SW 226 1 min 0,000 mm 0,0 UV-I 195 W/m 15,8 C 18,6 C 3,2 km/h (1 Bft) 100,00 %
21.06.2018 06:52 18,7 C 24,4 C 84 % 1013,9 hPa 0,0 l/m 3,2 km/h (1 Bft) W-SW 240 1 min 0,000 mm 0,0 UV-I 197 W/m 15,9 C 18,7 C 6,4 km/h (2 Bft) 95,83 %
21.06.2018 06:53 18,7 C 24,4 C 84 % 1013,9 hPa 0,0 l/m 3,1 km/h (1 Bft) W-SW 240 1 min 0,000 mm 0,0 UV-I 200 W/m 15,9 C 18,7 C 4,8 km/h (1 Bft) 100,00 %
21.06.2018 06:54 18,7 C 24,4 C 84 % 1013,9 hPa 0,0 l/m 3,8 km/h (1 Bft) W-SW 240 1 min 0,000 mm 0,0 UV-I 203 W/m 15,9 C 18,7 C 6,4 km/h (2 Bft) 100,00 %
21.06.2018 06:55 18,8 C 24,4 C 84 % 1013,8 hPa 0,0 l/m 3,2 km/h (1 Bft) W-SW 240 1 min 0,000 mm 0,0 UV-I 206 W/m 16,0 C 18,8 C 4,8 km/h (1 Bft) 100,00 %
21.06.2018 06:56 18,8 C 24,4 C 83 % 1013,8 hPa 0,0 l/m 4,8 km/h (1 Bft) S-SW 213 1 min 0,000 mm 0,0 UV-I 208 W/m 15,8 C 18,8 C 6,4 km/h (2 Bft) 100,00 %
21.06.2018 06:57 18,8 C 24,4 C 83 % 1013,8 hPa 0,0 l/m 4,3 km/h (1 Bft) SW 229 1 min 0,000 mm 0,0 UV-I 211 W/m 15,8 C 18,8 C 6,4 km/h (2 Bft) 100,00 %
21.06.2018 06:58 18,8 C 24,4 C 83 % 1013,8 hPa 0,0 l/m 5,4 km/h (1 Bft) SW 236 1 min 0,000 mm 0,0 UV-I 213 W/m 15,8 C 18,8 C 8,0 km/h (2 Bft) 100,00 %
21.06.2018 06:59 18,8 C 24,4 C 83 % 1013,7 hPa 0,0 l/m 5,4 km/h (1 Bft) W-SW 240 1 min 0,000 mm 0,0 UV-I 216 W/m 15,8 C 18,8 C 8,0 km/h (2 Bft) 100,00 %
21.06.2018 07:00 18,8 C 24,4 C 83 % 1013,7 hPa 0,0 l/m 5,7 km/h (1 Bft) W-SW 244 1 min 0,000 mm 0,0 UV-I 219 W/m 15,8 C 18,8 C 8,0 km/h (2 Bft) 100,00 %
21.06.2018 07:01 18,8 C 24,4 C 83 % 1013,7 hPa 0,0 l/m 5,5 km/h (1 Bft) W-SW 241 1 min 0,076 mm 0,2 UV-I 221 W/m 15,8 C 18,8 C 8,0 km/h (2 Bft) 100,00 %
21.06.2018 07:02 18,8 C 24,4 C 84 % 1013,7 hPa 0,0 l/m 5,9 km/h (2 Bft) W-SW 252 1 min 0,000 mm 0,5 UV-I 224 W/m 16,0 C 18,8 C 6,4 km/h (2 Bft) 100,00 %
21.06.2018 07:03 18,8 C 24,4 C 84 % 1013,8 hPa 0,0 l/m 5,2 km/h (1 Bft) W-SW 242 1 min 0,000 mm 0,5 UV-I 226 W/m 16,0 C 18,8 C 8,0 km/h (2 Bft) 93,33 %
21.06.2018 07:04 18,9 C 24,4 C 84 % 1013,8 hPa 0,0 l/m 6,3 km/h (2 Bft) W-SW 242 1 min 0,000 mm 0,5 UV-I 229 W/m 16,1 C 18,9 C 8,0 km/h (2 Bft) 96,15 %
21.06.2018 07:05 18,9 C 24,4 C 84 % 1013,8 hPa 0,0 l/m 7,0 km/h (2 Bft) SW 227 1 min 0,000 mm 0,5 UV-I 230 W/m 16,1 C 18,6 C 8,0 km/h (2 Bft) 100,00 %
21.06.2018 07:06 18,9 C 24,4 C 83 % 1013,7 hPa 0,0 l/m 5,7 km/h (1 Bft) W 271 1 min 0,000 mm 0,5 UV-I 234 W/m 15,9 C 18,9 C 9,7 km/h (2 Bft) 95,65 %
21.06.2018 07:07 18,9 C 24,4 C 84 % 1013,8 hPa 0,0 l/m 5,1 km/h (1 Bft) W-SW 256 1 min 0,000 mm 0,5 UV-I 237 W/m 16,1 C 18,9 C 6,4 km/h (2 Bft) 100,00 %
21.06.2018 07:08 18,9 C 24,4 C 84 % 1013,8 hPa 0,0 l/m 3,7 km/h (1 Bft) W-SW 257 1 min 0,000 mm 0,5 UV-I 238 W/m 16,1 C 18,9 C 4,8 km/h (1 Bft) 100,00 %
21.06.2018 07:09 18,9 C 24,4 C 84 % 1013,7 hPa 0,0 l/m 3,6 km/h (1 Bft) W-SW 257 1 min 0,000 mm 0,5 UV-I 242 W/m 16,1 C 18,9 C 6,4 km/h (2 Bft) 100,00 %
21.06.2018 07:10 18,9 C 24,4 C 84 % 1013,7 hPa 0,0 l/m 3,9 km/h (1 Bft) SW 223 1 min 0,000 mm 0,5 UV-I 244 W/m 16,1 C 18,9 C 4,8 km/h (1 Bft) 95,65 %
21.06.2018 07:11 19,1 C 24,4 C 84 % 1013,7 hPa 0,0 l/m 5,8 km/h (2 Bft) SW 227 1 min 0,000 mm 0,5 UV-I 249 W/m 16,3 C 19,1 C 9,7 km/h (2 Bft) 100,00 %
21.06.2018 07:12 19,1 C 24,4 C 84 % 1013,7 hPa 0,0 l/m 6,6 km/h (2 Bft) SW 225 1 min 0,000 mm 0,5 UV-I 250 W/m 16,3 C 19,0 C 9,7 km/h (2 Bft) 95,83 %
21.06.2018 07:13 19,2 C 24,4 C 83 % 1013,7 hPa 0,0 l/m 6,4 km/h (2 Bft) W-SW 243 1 min 0,000 mm 0,6 UV-I 252 W/m 16,2 C 19,2 C 9,7 km/h (2 Bft) 100,00 %
21.06.2018 07:14 19,2 C 24,4 C 83 % 1013,7 hPa 0,0 l/m 5,7 km/h (1 Bft) SW 218 1 min 0,000 mm 0,6 UV-I 256 W/m 16,2 C 19,2 C 8,0 km/h (2 Bft) 95,83 %
21.06.2018 07:15 19,2 C 24,4 C 82 % 1013,7 hPa 0,0 l/m 7,2 km/h (2 Bft) SW 219 1 min 0,000 mm 0,6 UV-I 258 W/m 16,0 C 18,9 C 9,7 km/h (2 Bft) 100,00 %
21.06.2018 07:16 19,2 C 24,4 C 82 % 1013,7 hPa 0,0 l/m 6,2 km/h (2 Bft) W-SW 244 1 min 0,000 mm 0,6 UV-I 262 W/m 16,0 C 19,2 C 8,0 km/h (2 Bft) 95,83 %
21.06.2018 07:17 19,3 C 24,4 C 83 % 1013,7 hPa 0,0 l/m 6,8 km/h (2 Bft) S-SW 211 1 min 0,000 mm 0,6 UV-I 265 W/m 16,3 C 19,1 C 8,0 km/h (2 Bft) 100,00 %
21.06.2018 07:18 19,3 C 24,4 C 83 % 1013,7 hPa 0,0 l/m 6,0 km/h (2 Bft) W-SW 251 1 min 0,000 mm 0,6 UV-I 268 W/m 16,3 C 19,3 C 9,7 km/h (2 Bft) 95,83 %
21.06.2018 07:19 19,3 C 24,4 C 82 % 1013,7 hPa 0,0 l/m 6,5 km/h (2 Bft) W-SW 244 1 min 0,000 mm 0,6 UV-I 271 W/m 16,1 C 19,3 C 8,0 km/h (2 Bft) 95,65 %
21.06.2018 07:20 19,4 C 24,4 C 83 % 1013,7 hPa 0,0 l/m 6,1 km/h (2 Bft) W-SW 237 1 min 0,000 mm 0,6 UV-I 272 W/m 16,4 C 19,4 C 9,7 km/h (2 Bft) 95,83 %
21.06.2018 07:21 19,4 C 24,4 C 82 % 1013,7 hPa 0,0 l/m 5,9 km/h (2 Bft) SW 223 1 min 0,000 mm 0,6 UV-I 274 W/m 16,2 C 19,4 C 9,7 km/h (2 Bft) 100,00 %
21.06.2018 07:22 19,5 C 24,4 C 82 % 1013,7 hPa 0,0 l/m 7,7 km/h (2 Bft) SW 219 1 min 0,000 mm 0,6 UV-I 278 W/m 16,3 C 18,9 C 11,3 km/h (2 Bft) 96,30 %
21.06.2018 07:23 19,5 C 24,4 C 81 % 1013,7 hPa 0,0 l/m 7,8 km/h (2 Bft) W-SW 256 1 min 0,000 mm 0,7 UV-I 279 W/m 16,1 C 18,9 C 12,9 km/h (3 Bft) 95,65 %
21.06.2018 07:24 19,6 C 24,4 C 81 % 1013,7 hPa 0,0 l/m 7,4 km/h (2 Bft) SW 224 1 min 0,000 mm 0,7 UV-I 282 W/m 16,2 C 19,2 C 11,3 km/h (2 Bft) 100,00 %
21.06.2018 07:25 19,6 C 24,4 C 81 % 1013,7 hPa 0,0 l/m 6,2 km/h (2 Bft) SW 217 1 min 0,000 mm 0,7 UV-I 285 W/m 16,2 C 19,6 C 9,7 km/h (2 Bft) 91,30 %
21.06.2018 07:26 19,6 C 24,4 C 81 % 1013,7 hPa 0,0 l/m 7,1 km/h (2 Bft) SW 228 1 min 0,000 mm 0,7 UV-I 289 W/m 16,2 C 19,3 C 9,7 km/h (2 Bft) 100,00 %
21.06.2018 07:27 19,6 C 24,4 C 81 % 1013,7 hPa 0,0 l/m 7,6 km/h (2 Bft) SW 215 1 min 0,000 mm 0,7 UV-I 294 W/m 16,2 C 19,1 C 11,3 km/h (2 Bft) 95,65 %
21.06.2018 07:28 19,6 C 24,4 C 81 % 1013,7 hPa 0,0 l/m 10,3 km/h (2 Bft) SW 223 1 min 0,000 mm 0,7 UV-I 296 W/m 16,2 C 18,1 C 14,5 km/h (3 Bft) 100,00 %
21.06.2018 07:29 19,7 C 24,4 C 81 % 1013,6 hPa 0,0 l/m 8,8 km/h (2 Bft) W 262 1 min 0,000 mm 0,7 UV-I 300 W/m 16,3 C 18,7 C 11,3 km/h (2 Bft) 95,65 %
21.06.2018 07:30 19,7 C 24,4 C 80 % 1013,7 hPa 0,0 l/m 10,5 km/h (2 Bft) SW 233 1 min 0,000 mm 0,7 UV-I 302 W/m 16,1 C 18,1 C 14,5 km/h (3 Bft) 100,00 %
21.06.2018 07:31 19,7 C 24,4 C 80 % 1013,7 hPa 0,0 l/m 9,0 km/h (2 Bft) W-SW 246 1 min 0,000 mm 0,7 UV-I 305 W/m 16,1 C 18,7 C 12,9 km/h (3 Bft) 95,65 %
21.06.2018 07:32 19,7 C 24,4 C 80 % 1013,7 hPa 0,0 l/m 10,1 km/h (2 Bft) W-SW 243 1 min 0,000 mm 0,8 UV-I 308 W/m 16,1 C 18,3 C 12,9 km/h (3 Bft) 95,83 %
21.06.2018 07:33 19,7 C 24,4 C 79 % 1013,7 hPa 0,0 l/m 6,4 km/h (2 Bft) SW 217 1 min 0,000 mm 0,8 UV-I 311 W/m 16,0 C 19,7 C 9,7 km/h (2 Bft) 100,00 %
21.06.2018 07:34 19,8 C 24,4 C 80 % 1013,7 hPa 0,0 l/m 11,9 km/h (2 Bft) W-SW 238 1 min 0,000 mm 0,8 UV-I 314 W/m 16,2 C 17,8 C 14,5 km/h (3 Bft) 100,00 %
21.06.2018 07:35 19,8 C 24,4 C 79 % 1013,7 hPa 0,0 l/m 9,6 km/h (2 Bft) W-SW 248 1 min 0,000 mm 0,8 UV-I 317 W/m 16,0 C 18,6 C 14,5 km/h (3 Bft) 95,83 %
21.06.2018 07:36 19,7 C 24,4 C 79 % 1013,7 hPa 0,0 l/m 9,5 km/h (2 Bft) W-SW 257 1 min 0,000 mm 0,8 UV-I 319 W/m 16,0 C 18,5 C 12,9 km/h (3 Bft) 91,30 %
21.06.2018 07:37 19,7 C 24,4 C 79 % 1013,7 hPa 0,0 l/m 8,5 km/h (2 Bft) SW 230 1 min 0,000 mm 0,8 UV-I 322 W/m 16,0 C 18,8 C 11,3 km/h (2 Bft) 100,00 %
21.06.2018 07:38 19,7 C 24,4 C 79 % 1013,7 hPa 0,0 l/m 7,8 km/h (2 Bft) SW 224 1 min 0,000 mm 0,8 UV-I 325 W/m 16,0 C 19,1 C 11,3 km/h (2 Bft) 96,15 %
21.06.2018 07:39 19,8 C 24,4 C 79 % 1013,7 hPa 0,0 l/m 8,9 km/h (2 Bft) SW 224 1 min 0,000 mm 0,9 UV-I 327 W/m 16,0 C 18,8 C 11,3 km/h (2 Bft) 100,00 %
21.06.2018 07:40 19,8 C 24,4 C 79 % 1013,7 hPa 0,0 l/m 8,8 km/h (2 Bft) W-SW 251 1 min 0,000 mm 0,9 UV-I 330 W/m 16,0 C 18,8 C 12,9 km/h (3 Bft) 95,65 %
21.06.2018 07:41 19,8 C 24,4 C 80 % 1013,7 hPa 0,0 l/m 6,3 km/h (2 Bft) W-SW 248 1 min 0,000 mm 0,9 UV-I 334 W/m 16,2 C 19,8 C 11,3 km/h (2 Bft) 100,00 %
21.06.2018 07:42 19,9 C 24,4 C 80 % 1013,7 hPa 0,0 l/m 6,2 km/h (2 Bft) W-SW 242 1 min 0,000 mm 0,9 UV-I 337 W/m 16,3 C 19,9 C 9,7 km/h (2 Bft) 95,65 %
21.06.2018 07:43 20,0 C 24,4 C 80 % 1013,7 hPa 0,0 l/m 6,4 km/h (2 Bft) SW 225 1 min 0,000 mm 0,9 UV-I 339 W/m 16,4 C 20,0 C 11,3 km/h (2 Bft) 100,00 %
21.06.2018 07:44 20,1 C 24,4 C 79 % 1013,7 hPa 0,0 l/m 9,4 km/h (2 Bft) W-SW 241 1 min 0,000 mm 0,9 UV-I 341 W/m 16,3 C 19,0 C 14,5 km/h (3 Bft) 95,65 %
21.06.2018 07:45 20,1 C 24,4 C 79 % 1013,7 hPa 0,0 l/m 4,4 km/h (1 Bft) W-SW 251 1 min 0,000 mm 0,9 UV-I 345 W/m 16,3 C 20,1 C 6,4 km/h (2 Bft) 95,83 %
21.06.2018 07:46 20,1 C 24,4 C 79 % 1013,7 hPa 0,0 l/m 4,6 km/h (1 Bft) SW 233 1 min 0,000 mm 0,9 UV-I 347 W/m 16,3 C 20,1 C 6,4 km/h (2 Bft) 100,00 %
21.06.2018 07:47 20,1 C 24,4 C 79 % 1013,7 hPa 0,0 l/m 4,7 km/h (1 Bft) W-SW 250 1 min 0,000 mm 1,0 UV-I 351 W/m 16,3 C 20,1 C 6,4 km/h (2 Bft) 95,83 %
21.06.2018 07:48 20,1 C 24,4 C 79 % 1013,7 hPa 0,0 l/m 6,1 km/h (2 Bft) W-SW 252 1 min 0,000 mm 1,0 UV-I 353 W/m 16,3 C 20,1 C 8,0 km/h (2 Bft) 100,00 %
21.06.2018 07:49 20,0 C 24,4 C 79 % 1013,7 hPa 0,0 l/m 5,7 km/h (1 Bft) SW 234 1 min 0,000 mm 1,0 UV-I 356 W/m 16,2 C 20,0 C 8,0 km/h (2 Bft) 91,67 %
21.06.2018 07:50 20,1 C 24,4 C 80 % 1013,7 hPa 0,0 l/m 3,7 km/h (1 Bft) SW 235 1 min 0,000 mm 1,0 UV-I 359 W/m 16,5 C 20,1 C 6,4 km/h (2 Bft) 100,00 %
21.06.2018 07:51 20,1 C 24,4 C 79 % 1013,6 hPa 0,0 l/m 5,4 km/h (1 Bft) SW 232 1 min 0,000 mm 1,0 UV-I 362 W/m 16,3 C 20,1 C 6,4 km/h (2 Bft) 95,83 %
21.06.2018 07:52 20,2 C 24,4 C 79 % 1013,7 hPa 0,0 l/m 4,6 km/h (1 Bft) W-NW 289 1 min 0,000 mm 1,0 UV-I 365 W/m 16,4 C 20,2 C 6,4 km/h (2 Bft) 95,65 %
21.06.2018 07:53 20,2 C 24,4 C 78 % 1013,6 hPa 0,0 l/m 3,2 km/h (1 Bft) W-NW 289 1 min 0,000 mm 1,1 UV-I 368 W/m 16,2 C 20,2 C 6,4 km/h (2 Bft) 95,83 %
21.06.2018 07:54 20,2 C 24,4 C 78 % 1013,6 hPa 0,0 l/m 3,2 km/h (1 Bft) W 281 1 min 0,000 mm 1,1 UV-I 371 W/m 16,2 C 20,2 C 4,8 km/h (1 Bft) 100,00 %
21.06.2018 07:55 20,2 C 24,4 C 79 % 1013,7 hPa 0,0 l/m 4,7 km/h (1 Bft) W 259 1 min 0,000 mm 1,1 UV-I 374 W/m 16,4 C 20,2 C 6,4 km/h (2 Bft) 95,65 %
21.06.2018 07:56 20,3 C 24,4 C 78 % 1013,7 hPa 0,0 l/m 4,7 km/h (1 Bft) SW 228 1 min 0,000 mm 1,1 UV-I 377 W/m 16,3 C 20,3 C 6,4 km/h (2 Bft) 95,83 %
21.06.2018 07:57 20,3 C 24,4 C 77 % 1013,7 hPa 0,0 l/m 3,9 km/h (1 Bft) W-SW 246 1 min 0,000 mm 1,1 UV-I 380 W/m 16,1 C 20,3 C 6,4 km/h (2 Bft) 95,65 %
21.06.2018 07:58 20,3 C 24,4 C 77 % 1013,7 hPa 0,0 l/m 5,8 km/h (2 Bft) W-SW 250 1 min 0,000 mm 1,1 UV-I 383 W/m 16,1 C 20,3 C 8,0 km/h (2 Bft) 96,30 %
21.06.2018 07:59 20,4 C 24,4 C 77 % 1013,7 hPa 0,0 l/m 4,4 km/h (1 Bft) W 265 1 min 0,000 mm 1,2 UV-I 385 W/m 16,2 C 20,4 C 9,7 km/h (2 Bft) 91,30 %
21.06.2018 08:00 20,4 C 24,4 C 77 % 1013,7 hPa 0,0 l/m 6,4 km/h (2 Bft) W-SW 254 1 min 0,203 mm 1,2 UV-I 385 W/m 16,2 C 20,4 C 11,3 km/h (2 Bft) 83,33 %
21.06.2018 08:01 20,5 C 24,4 C 77 % 1013,7 hPa 0,0 l/m 5,6 km/h (1 Bft) W-SW 250 1 min 0,000 mm 1,2 UV-I 389 W/m 16,3 C 20,5 C 8,0 km/h (2 Bft) 95,65 %
21.06.2018 08:02 20,6 C 24,4 C 76 % 1013,7 hPa 0,0 l/m 4,8 km/h (1 Bft) W-NW 288 1 min 0,000 mm 1,2 UV-I 394 W/m 16,2 C 20,6 C 6,4 km/h (2 Bft) 95,83 %
21.06.2018 08:03 20,6 C 24,4 C 75 % 1013,7 hPa 0,0 l/m 6,0 km/h (2 Bft) W 278 1 min 0,000 mm 1,2 UV-I 394 W/m 16,0 C 20,6 C 9,7 km/h (2 Bft) 95,65 %
21.06.2018 08:04 20,6 C 24,4 C 75 % 1013,7 hPa 0,0 l/m 5,3 km/h (1 Bft) W 265 1 min 0,000 mm 1,2 UV-I 398 W/m 16,0 C 20,6 C 6,4 km/h (2 Bft) 91,67 %
21.06.2018 08:05 20,7 C 24,4 C 76 % 1013,7 hPa 0,0 l/m 2,9 km/h (1 Bft) W 265 1 min 0,000 mm 1,2 UV-I 399 W/m 16,3 C 20,7 C 4,8 km/h (1 Bft) 95,65 %
21.06.2018 08:06 20,7 C 24,4 C 75 % 1013,7 hPa 0,0 l/m 1,8 km/h (1 Bft) W 265 1 min 0,000 mm 1,3 UV-I 404 W/m 16,1 C 20,7 C 3,2 km/h (1 Bft) 88,89 %
21.06.2018 08:07 20,7 C 24,4 C 76 % 1013,7 hPa 0,0 l/m 2,4 km/h (1 Bft) SW 219 1 min 0,000 mm 1,3 UV-I 406 W/m 16,3 C 20,7 C 3,2 km/h (1 Bft) 100,00 %
21.06.2018 08:08 20,8 C 24,4 C 75 % 1013,7 hPa 0,0 l/m 4,3 km/h (1 Bft) W-SW 257 1 min 0,000 mm 1,3 UV-I 406 W/m 16,2 C 20,8 C 4,8 km/h (1 Bft) 91,67 %
21.06.2018 08:09 20,9 C 24,4 C 75 % 1013,7 hPa 0,0 l/m 3,4 km/h (1 Bft) W-SW 257 1 min 0,000 mm 1,3 UV-I 413 W/m 16,3 C 20,9 C 4,8 km/h (1 Bft) 95,83 %
21.06.2018 08:10 20,9 C 24,4 C 75 % 1013,7 hPa 0,0 l/m 1,9 km/h (1 Bft) W-SW 257 1 min 0,000 mm 1,3 UV-I 416 W/m 16,3 C 20,9 C 3,2 km/h (1 Bft) 91,30 %
21.06.2018 08:11 20,9 C 24,4 C 75 % 1013,7 hPa 0,0 l/m 1,8 km/h (1 Bft) W-SW 257 1 min 0,000 mm 1,3 UV-I 417 W/m 16,3 C 20,9 C 3,2 km/h (1 Bft) 91,67 %
21.06.2018 08:12 21,1 C 24,4 C 75 % 1013,7 hPa 0,0 l/m 1,6 km/h (1 Bft) W 264 1 min 0,000 mm 1,3 UV-I 419 W/m 16,5 C 21,1 C 3,2 km/h (1 Bft) 100,00 %
21.06.2018 08:13 21,2 C 24,4 C 75 % 1013,7 hPa 0,0 l/m 1,3 km/h (1 Bft) W 264 1 min 0,000 mm 1,4 UV-I 423 W/m 16,6 C 21,2 C 1,6 km/h (1 Bft) 91,67 %
21.06.2018 08:14 21,3 C 24,4 C 74 % 1013,7 hPa 0,0 l/m 1,1 km/h (1 Bft) W 264 1 min 0,000 mm 1,4 UV-I 425 W/m 16,5 C 21,3 C 3,2 km/h (1 Bft) 100,00 %
21.06.2018 08:15 21,4 C 24,4 C 75 % 1013,7 hPa 0,0 l/m 1,5 km/h (1 Bft) W 265 1 min 0,000 mm 1,4 UV-I 427 W/m 16,8 C 21,4 C 3,2 km/h (1 Bft) 95,83 %
21.06.2018 08:16 21,4 C 24,4 C 74 % 1013,7 hPa 0,0 l/m 2,0 km/h (1 Bft) N-NW 329 1 min 0,000 mm 1,4 UV-I 430 W/m 16,6 C 21,4 C 4,8 km/h (1 Bft) 100,00 %
21.06.2018 08:17 21,5 C 24,4 C 74 % 1013,7 hPa 0,0 l/m 1,3 km/h (1 Bft) N-NW 329 1 min 0,000 mm 1,4 UV-I 433 W/m 16,7 C 21,5 C 3,2 km/h (1 Bft) 91,67 %
21.06.2018 08:18 21,5 C 24,4 C 72 % 1013,7 hPa 0,0 l/m 2,9 km/h (1 Bft) NW 326 1 min 0,000 mm 1,5 UV-I 436 W/m 16,2 C 21,5 C 4,8 km/h (1 Bft) 100,00 %
21.06.2018 08:19 21,6 C 24,4 C 71 % 1013,7 hPa 0,0 l/m 2,5 km/h (1 Bft) N-NW 333 1 min 0,000 mm 1,5 UV-I 439 W/m 16,1 C 21,6 C 4,8 km/h (1 Bft) 95,83 %
21.06.2018 08:20 21,6 C 24,4 C 72 % 1013,7 hPa 0,0 l/m 2,1 km/h (1 Bft) N-NO 20 1 min 0,000 mm 1,5 UV-I 441 W/m 16,3 C 21,6 C 4,8 km/h (1 Bft) 91,30 %
21.06.2018 08:21 21,6 C 24,4 C 72 % 1013,6 hPa 0,0 l/m 3,4 km/h (1 Bft) N-NO 14 1 min 0,000 mm 1,5 UV-I 445 W/m 16,3 C 21,6 C 4,8 km/h (1 Bft) 100,00 %
21.06.2018 08:22 21,6 C 24,4 C 72 % 1013,6 hPa 0,0 l/m 2,3 km/h (1 Bft) N-NO 14 1 min 0,000 mm 1,5 UV-I 447 W/m 16,3 C 21,6 C 3,2 km/h (1 Bft) 95,65 %
21.06.2018 08:23 21,7 C 24,4 C 73 % 1013,6 hPa 0,0 l/m 0,1 km/h (0 Bft) N-NO 14 1 min 0,000 mm 1,5 UV-I 449 W/m 16,6 C 21,7 C 1,6 km/h (1 Bft) 100,00 %
21.06.2018 08:24 21,8 C 24,4 C 71 % 1013,6 hPa 0,0 l/m 2,3 km/h (1 Bft) N-NO 14 1 min 0,000 mm 1,6 UV-I 453 W/m 16,3 C 21,8 C 3,2 km/h (1 Bft) 92,86 %
21.06.2018 08:25 21,7 C 24,4 C 71 % 1013,6 hPa 0,0 l/m 2,1 km/h (1 Bft) W 278 1 min 0,000 mm 1,6 UV-I 455 W/m 16,2 C 21,7 C 3,2 km/h (1 Bft) 100,00 %
21.06.2018 08:26 21,7 C 24,4 C 72 % 1013,6 hPa 0,0 l/m 0,5 km/h (0 Bft) W 278 1 min 0,000 mm 1,6 UV-I 456 W/m 16,4 C 21,7 C 1,6 km/h (1 Bft) 92,31 %
21.06.2018 08:27 21,7 C 24,4 C 72 % 1013,6 hPa 0,0 l/m 2,3 km/h (1 Bft) W 279 1 min 0,000 mm 1,6 UV-I 462 W/m 16,4 C 21,7 C 4,8 km/h (1 Bft) 100,00 %
21.06.2018 08:28 21,7 C 24,4 C 71 % 1013,6 hPa 0,0 l/m 2,1 km/h (1 Bft) W 279 1 min 0,000 mm 1,6 UV-I 465 W/m 16,2 C 21,7 C 3,2 km/h (1 Bft) 95,65 %
21.06.2018 08:29 21,7 C 24,4 C 72 % 1013,6 hPa 0,0 l/m 0,7 km/h (0 Bft) W 279 1 min 0,000 mm 1,7 UV-I 467 W/m 16,4 C 21,7 C 1,6 km/h (1 Bft) 95,83 %
21.06.2018 08:30 21,8 C 24,4 C 73 % 1013,6 hPa 0,0 l/m 0,5 km/h (0 Bft) W 279 1 min 0,000 mm 1,7 UV-I 469 W/m 16,7 C 21,8 C 1,6 km/h (1 Bft) 100,00 %
21.06.2018 08:31 21,9 C 24,4 C 71 % 1013,5 hPa 0,0 l/m 1,6 km/h (1 Bft) N 360 1 min 0,000 mm 1,7 UV-I 469 W/m 16,4 C 21,9 C 4,8 km/h (1 Bft) 100,00 %
21.06.2018 08:32 21,9 C 24,4 C 71 % 1013,5 hPa 0,0 l/m 2,3 km/h (1 Bft) N 355 1 min 0,000 mm 1,7 UV-I 475 W/m 16,4 C 21,9 C 4,8 km/h (1 Bft) 100,00 %
21.06.2018 08:33 21,9 C 24,4 C 72 % 1013,5 hPa 0,0 l/m 3,0 km/h (1 Bft) N 355 1 min 0,000 mm 1,7 UV-I 477 W/m 16,6 C 21,9 C 4,8 km/h (1 Bft) 100,00 %
21.06.2018 08:34 22,1 C 24,4 C 72 % 1013,5 hPa 0,0 l/m 3,4 km/h (1 Bft) N-NW 339 1 min 0,000 mm 1,8 UV-I 481 W/m 16,8 C 22,1 C 6,4 km/h (2 Bft) 100,00 %
21.06.2018 08:35 22,1 C 24,4 C 70 % 1013,5 hPa 0,0 l/m 3,6 km/h (1 Bft) N-NW 340 1 min 0,000 mm 1,8 UV-I 483 W/m 16,4 C 22,1 C 6,4 km/h (2 Bft) 95,65 %
21.06.2018 08:36 22,0 C 24,4 C 72 % 1013,5 hPa 0,0 l/m 3,0 km/h (1 Bft) W-NW 285 1 min 0,000 mm 1,8 UV-I 486 W/m 16,7 C 22,0 C 4,8 km/h (1 Bft) 100,00 %
21.06.2018 08:37 22,1 C 24,4 C 70 % 1013,5 hPa 0,0 l/m 1,8 km/h (1 Bft) W-NW 285 1 min 0,000 mm 1,8 UV-I 489 W/m 16,4 C 22,1 C 3,2 km/h (1 Bft) 100,00 %
21.06.2018 08:38 22,1 C 24,4 C 69 % 1013,5 hPa 0,0 l/m 4,0 km/h (1 Bft) W-NW 284 1 min 0,000 mm 1,9 UV-I 491 W/m 16,1 C 22,1 C 6,4 km/h (2 Bft) 100,00 %
21.06.2018 08:39 22,0 C 24,4 C 68 % 1013,5 hPa 0,0 l/m 3,7 km/h (1 Bft) W-NW 298 1 min 0,000 mm 1,9 UV-I 495 W/m 15,8 C 22,0 C 6,4 km/h (2 Bft) 95,65 %
21.06.2018 08:40 21,9 C 24,4 C 69 % 1013,5 hPa 0,0 l/m 2,9 km/h (1 Bft) W-NW 298 1 min 0,000 mm 1,9 UV-I 497 W/m 15,9 C 21,9 C 4,8 km/h (1 Bft) 100,00 %
21.06.2018 08:41 22,0 C 24,4 C 69 % 1013,5 hPa 0,0 l/m 3,6 km/h (1 Bft) W 259 1 min 0,000 mm 1,9 UV-I 499 W/m 16,0 C 22,0 C 6,4 km/h (2 Bft) 95,65 %
21.06.2018 08:42 22,1 C 24,4 C 68 % 1013,5 hPa 0,0 l/m 4,0 km/h (1 Bft) W 260 1 min 0,000 mm 1,9 UV-I 502 W/m 15,9 C 22,1 C 6,4 km/h (2 Bft) 100,00 %
21.06.2018 08:43 22,1 C 24,4 C 68 % 1013,5 hPa 0,0 l/m 2,4 km/h (1 Bft) W 270 1 min 0,000 mm 2,0 UV-I 504 W/m 15,9 C 22,1 C 3,2 km/h (1 Bft) 100,00 %
21.06.2018 08:44 22,1 C 24,4 C 69 % 1013,4 hPa 0,0 l/m 2,0 km/h (1 Bft) W 259 1 min 0,000 mm 2,0 UV-I 507 W/m 16,1 C 22,1 C 3,2 km/h (1 Bft) 100,00 %
21.06.2018 08:45 22,1 C 24,4 C 69 % 1013,4 hPa 0,0 l/m 3,5 km/h (1 Bft) W-SW 244 1 min 0,000 mm 2,0 UV-I 510 W/m 16,1 C 22,1 C 6,4 km/h (2 Bft) 100,00 %
21.06.2018 08:46 22,2 C 24,4 C 70 % 1013,4 hPa 0,0 l/m 4,1 km/h (1 Bft) W 263 1 min 0,000 mm 2,0 UV-I 512 W/m 16,5 C 22,2 C 6,4 km/h (2 Bft) 92,31 %
21.06.2018 08:47 22,3 C 24,4 C 70 % 1013,4 hPa 0,0 l/m 2,8 km/h (1 Bft) W 263 1 min 0,000 mm 2,0 UV-I 516 W/m 16,6 C 22,3 C 3,2 km/h (1 Bft) 100,00 %
21.06.2018 08:48 22,4 C 24,4 C 69 % 1013,4 hPa 0,0 l/m 1,9 km/h (1 Bft) W 263 1 min 0,000 mm 2,0 UV-I 518 W/m 16,4 C 22,4 C 3,2 km/h (1 Bft) 100,00 %
21.06.2018 08:49 22,3 C 24,4 C 69 % 1013,4 hPa 0,0 l/m 0,7 km/h (0 Bft) W 263 1 min 0,000 mm 2,1 UV-I 522 W/m 16,3 C 22,3 C 1,6 km/h (1 Bft) 100,00 %
21.06.2018 08:50 22,3 C 24,4 C 68 % 1013,4 hPa 0,0 l/m 1,9 km/h (1 Bft) W 263 1 min 0,000 mm 2,1 UV-I 525 W/m 16,1 C 22,3 C 3,2 km/h (1 Bft) 100,00 %
21.06.2018 08:51 22,4 C 24,4 C 69 % 1013,4 hPa 0,0 l/m 2,1 km/h (1 Bft) NW 317 1 min 0,000 mm 2,1 UV-I 528 W/m 16,4 C 22,4 C 4,8 km/h (1 Bft) 100,00 %
21.06.2018 08:52 22,4 C 24,4 C 69 % 1013,4 hPa 0,0 l/m 2,5 km/h (1 Bft) NW 315 1 min 0,000 mm 2,1 UV-I 530 W/m 16,4 C 22,4 C 3,2 km/h (1 Bft) 100,00 %
21.06.2018 08:53 22,5 C 24,4 C 69 % 1013,4 hPa 0,0 l/m 2,2 km/h (1 Bft) NW 317 1 min 0,000 mm 2,2 UV-I 532 W/m 16,5 C 22,5 C 3,2 km/h (1 Bft) 100,00 %
21.06.2018 08:54 22,6 C 24,4 C 70 % 1013,4 hPa 0,0 l/m 1,8 km/h (1 Bft) W-SW 237 1 min 0,000 mm 2,2 UV-I 535 W/m 16,8 C 22,6 C 6,4 km/h (2 Bft) 100,00 %
21.06.2018 08:55 22,8 C 24,4 C 69 % 1013,3 hPa 0,0 l/m 5,9 km/h (2 Bft) SW 223 1 min 0,000 mm 2,2 UV-I 536 W/m 16,8 C 22,8 C 8,0 km/h (2 Bft) 100,00 %
21.06.2018 08:56 22,8 C 24,4 C 69 % 1013,3 hPa 0,0 l/m 3,4 km/h (1 Bft) SW 225 1 min 0,000 mm 2,2 UV-I 539 W/m 16,8 C 22,8 C 4,8 km/h (1 Bft) 100,00 %
21.06.2018 08:57 22,9 C 24,4 C 69 % 1013,3 hPa 0,0 l/m 2,6 km/h (1 Bft) SW 234 1 min 0,000 mm 2,2 UV-I 542 W/m 16,9 C 22,9 C 4,8 km/h (1 Bft) 100,00 %
21.06.2018 08:58 23,0 C 24,4 C 68 % 1013,3 hPa 0,0 l/m 2,6 km/h (1 Bft) N-NW 336 1 min 0,000 mm 2,2 UV-I 544 W/m 16,8 C 23,0 C 4,8 km/h (1 Bft) 100,00 %
21.06.2018 08:59 23,0 C 24,4 C 67 % 1013,3 hPa 0,0 l/m 2,0 km/h (1 Bft) N-NW 336 1 min 0,000 mm 2,3 UV-I 547 W/m 16,5 C 23,0 C 4,8 km/h (1 Bft) 100,00 %
21.06.2018 09:00 23,1 C 24,4 C 67 % 1013,3 hPa 0,0 l/m 2,9 km/h (1 Bft) N-NW 337 1 min 0,305 mm 2,3 UV-I 550 W/m 16,6 C 23,1 C 4,8 km/h (1 Bft) 100,00 %
21.06.2018 09:01 23,1 C 24,4 C 66 % 1013,3 hPa 0,0 l/m 3,7 km/h (1 Bft) W-NW 292 1 min 0,000 mm 2,3 UV-I 552 W/m 16,4 C 23,1 C 6,4 km/h (2 Bft) 95,83 %
21.06.2018 09:02 23,1 C 24,4 C 66 % 1013,3 hPa 0,0 l/m 4,8 km/h (1 Bft) W 281 1 min 0,000 mm 2,3 UV-I 555 W/m 16,4 C 23,1 C 6,4 km/h (2 Bft) 95,65 %
21.06.2018 09:03 22,9 C 24,4 C 66 % 1013,3 hPa 0,0 l/m 2,3 km/h (1 Bft) W-SW 249 1 min 0,000 mm 2,4 UV-I 556 W/m 16,2 C 22,9 C 4,8 km/h (1 Bft) 100,00 %
21.06.2018 09:04 22,9 C 24,4 C 67 % 1013,3 hPa 0,0 l/m 5,1 km/h (1 Bft) W 279 1 min 0,000 mm 2,4 UV-I 558 W/m 16,4 C 22,9 C 6,4 km/h (2 Bft) 100,00 %
21.06.2018 09:05 22,9 C 24,4 C 66 % 1013,3 hPa 0,0 l/m 3,8 km/h (1 Bft) N 10 1 min 0,000 mm 2,4 UV-I 560 W/m 16,2 C 22,9 C 6,4 km/h (2 Bft) 100,00 %
21.06.2018 09:06 23,1 C 24,4 C 67 % 1013,3 hPa 0,0 l/m 6,0 km/h (2 Bft) W-NW 296 1 min 0,000 mm 2,4 UV-I 563 W/m 16,6 C 23,1 C 11,3 km/h (2 Bft) 100,00 %
21.06.2018 09:07 23,1 C 24,4 C 67 % 1013,3 hPa 0,0 l/m 2,8 km/h (1 Bft) W-NW 292 1 min 0,000 mm 2,4 UV-I 566 W/m 16,6 C 23,1 C 4,8 km/h (1 Bft) 100,00 %
21.06.2018 09:08 23,2 C 24,4 C 66 % 1013,3 hPa 0,0 l/m 4,0 km/h (1 Bft) W-NW 292 1 min 0,000 mm 2,5 UV-I 569 W/m 16,5 C 23,2 C 6,4 km/h (2 Bft) 100,00 %
21.06.2018 09:09 23,2 C 24,4 C 66 % 1013,3 hPa 0,0 l/m 3,8 km/h (1 Bft) W-NW 293 1 min 0,000 mm 2,5 UV-I 571 W/m 16,5 C 23,2 C 4,8 km/h (1 Bft) 95,65 %
21.06.2018 09:10 23,2 C 24,4 C 66 % 1013,3 hPa 0,0 l/m 3,3 km/h (1 Bft) W 260 1 min 0,000 mm 2,5 UV-I 573 W/m 16,5 C 23,2 C 4,8 km/h (1 Bft) 100,00 %
21.06.2018 09:11 23,3 C 24,4 C 66 % 1013,3 hPa 0,0 l/m 3,9 km/h (1 Bft) W-SW 241 1 min 0,000 mm 2,5 UV-I 575 W/m 16,6 C 23,3 C 4,8 km/h (1 Bft) 100,00 %
21.06.2018 09:12 23,3 C 24,4 C 66 % 1013,2 hPa 0,0 l/m 5,6 km/h (1 Bft) W 273 1 min 0,000 mm 2,6 UV-I 578 W/m 16,6 C 23,3 C 6,4 km/h (2 Bft) 100,00 %
21.06.2018 09:13 23,3 C 24,4 C 66 % 1013,3 hPa 0,0 l/m 1,9 km/h (1 Bft) W 274 1 min 0,000 mm 2,6 UV-I 580 W/m 16,6 C 23,3 C 4,8 km/h (1 Bft) 100,00 %
21.06.2018 09:14 23,3 C 24,4 C 66 % 1013,3 hPa 0,0 l/m 0,9 km/h (0 Bft) W 269 1 min 0,000 mm 2,6 UV-I 581 W/m 16,6 C 23,3 C 3,2 km/h (1 Bft) 100,00 %
21.06.2018 09:15 23,4 C 24,4 C 67 % 1013,2 hPa 0,0 l/m 1,2 km/h (1 Bft) W 273 1 min 0,000 mm 2,6 UV-I 585 W/m 16,9 C 23,4 C 3,2 km/h (1 Bft) 95,65 %
21.06.2018 09:16 23,6 C 24,4 C 65 % 1013,2 hPa 0,0 l/m 2,7 km/h (1 Bft) N 9 1 min 0,000 mm 2,6 UV-I 588 W/m 16,6 C 23,6 C 4,8 km/h (1 Bft) 100,00 %
21.06.2018 09:17 23,6 C 24,4 C 66 % 1013,2 hPa 0,0 l/m 1,1 km/h (1 Bft) N 9 1 min 0,000 mm 2,7 UV-I 589 W/m 16,9 C 23,6 C 3,2 km/h (1 Bft) 91,30 %
21.06.2018 09:18 23,7 C 24,4 C 66 % 1013,3 hPa 0,0 l/m 2,5 km/h (1 Bft) N 9 1 min 0,000 mm 2,7 UV-I 592 W/m 17,0 C 23,7 C 3,2 km/h (1 Bft) 100,00 %
21.06.2018 09:19 23,8 C 24,4 C 65 % 1013,2 hPa 0,0 l/m 1,2 km/h (1 Bft) N 9 1 min 0,000 mm 2,7 UV-I 596 W/m 16,8 C 23,8 C 3,2 km/h (1 Bft) 95,65 %
21.06.2018 09:20 23,9 C 24,4 C 67 % 1013,3 hPa 0,0 l/m 0,5 km/h (0 Bft) N 9 1 min 0,000 mm 2,7 UV-I 595 W/m 17,4 C 23,9 C 1,6 km/h (1 Bft) 100,00 %
21.06.2018 09:21 23,9 C 24,4 C 65 % 1013,3 hPa 0,0 l/m 1,1 km/h (1 Bft) S 180 1 min 0,000 mm 2,8 UV-I 595 W/m 16,9 C 23,9 C 3,2 km/h (1 Bft) 100,00 %
21.06.2018 09:22 23,9 C 24,4 C 65 % 1013,2 hPa 0,0 l/m 5,1 km/h (1 Bft) SW 232 1 min 0,000 mm 2,8 UV-I 602 W/m 16,9 C 23,9 C 8,0 km/h (2 Bft) 100,00 %
21.06.2018 09:23 23,9 C 24,4 C 65 % 1013,2 hPa 0,0 l/m 5,0 km/h (1 Bft) W-SW 242 1 min 0,000 mm 2,8 UV-I 604 W/m 16,9 C 23,9 C 6,4 km/h (2 Bft) 100,00 %
21.06.2018 09:24 23,9 C 24,4 C 64 % 1013,2 hPa 0,0 l/m 5,4 km/h (1 Bft) W-SW 252 1 min 0,000 mm 2,8 UV-I 608 W/m 16,7 C 23,9 C 8,0 km/h (2 Bft) 100,00 %
21.06.2018 09:25 23,9 C 25,0 C 65 % 1013,2 hPa 0,0 l/m 5,3 km/h (1 Bft) SW 232 1 min 0,000 mm 2,9 UV-I 610 W/m 16,9 C 23,9 C 9,7 km/h (2 Bft) 100,00 %
21.06.2018 09:26 23,9 C 24,4 C 64 % 1013,2 hPa 0,0 l/m 3,9 km/h (1 Bft) W 267 1 min 0,000 mm 2,9 UV-I 611 W/m 16,7 C 23,9 C 9,7 km/h (2 Bft) 95,83 %
21.06.2018 09:27 23,9 C 24,4 C 63 % 1013,2 hPa 0,0 l/m 3,9 km/h (1 Bft) W-SW 254 1 min 0,000 mm 2,9 UV-I 614 W/m 16,4 C 23,9 C 6,4 km/h (2 Bft) 95,65 %
21.06.2018 09:28 23,9 C 24,4 C 63 % 1013,2 hPa 0,0 l/m 3,9 km/h (1 Bft) SW 221 1 min 0,000 mm 2,9 UV-I 616 W/m 16,4 C 23,9 C 6,4 km/h (2 Bft) 100,00 %
21.06.2018 09:29 23,8 C 24,4 C 64 % 1013,2 hPa 0,0 l/m 4,0 km/h (1 Bft) W-NW 285 1 min 0,000 mm 3,0 UV-I 620 W/m 16,6 C 23,8 C 4,8 km/h (1 Bft) 100,00 %
21.06.2018 09:30 23,9 C 24,4 C 64 % 1013,2 hPa 0,0 l/m 7,5 km/h (2 Bft) W-SW 240 1 min 0,000 mm 3,0 UV-I 619 W/m 16,7 C 23,6 C 9,7 km/h (2 Bft) 100,00 %
21.06.2018 09:31 23,9 C 24,4 C 64 % 1013,2 hPa 0,0 l/m 6,6 km/h (2 Bft) W-SW 254 1 min 0,000 mm 3,0 UV-I 621 W/m 16,7 C 23,9 C 11,3 km/h (2 Bft) 100,00 %
21.06.2018 09:32 23,8 C 24,4 C 63 % 1013,1 hPa 0,0 l/m 3,8 km/h (1 Bft) SW 221 1 min 0,000 mm 3,0 UV-I 623 W/m 16,3 C 23,8 C 6,4 km/h (2 Bft) 95,65 %
21.06.2018 09:33 23,8 C 24,4 C 64 % 1013,1 hPa 0,0 l/m 4,0 km/h (1 Bft) SW 224 1 min 0,000 mm 3,0 UV-I 628 W/m 16,6 C 23,8 C 8,0 km/h (2 Bft) 100,00 %
21.06.2018 09:34 23,8 C 24,4 C 64 % 1013,1 hPa 0,0 l/m 5,0 km/h (1 Bft) W-SW 257 1 min 0,000 mm 3,1 UV-I 629 W/m 16,6 C 23,8 C 8,0 km/h (2 Bft) 100,00 %
21.06.2018 09:35 23,8 C 24,4 C 64 % 1013,1 hPa 0,0 l/m 3,6 km/h (1 Bft) W-SW 247 1 min 0,000 mm 3,1 UV-I 631 W/m 16,6 C 23,8 C 8,0 km/h (2 Bft) 100,00 %
21.06.2018 09:36 23,8 C 24,4 C 64 % 1013,1 hPa 0,0 l/m 1,5 km/h (1 Bft) W 275 1 min 0,000 mm 3,1 UV-I 635 W/m 16,6 C 23,8 C 3,2 km/h (1 Bft) 95,65 %
21.06.2018 09:37 23,9 C 24,4 C 64 % 1013,1 hPa 0,0 l/m 3,0 km/h (1 Bft) W 271 1 min 0,000 mm 3,1 UV-I 638 W/m 16,7 C 23,9 C 4,8 km/h (1 Bft) 100,00 %
21.06.2018 09:38 24,0 C 24,4 C 64 % 1013,1 hPa 0,0 l/m 4,3 km/h (1 Bft) W-SW 246 1 min 0,000 mm 3,1 UV-I 639 W/m 16,8 C 24,0 C 6,4 km/h (2 Bft) 100,00 %
21.06.2018 09:39 24,1 C 25,0 C 64 % 1013,1 hPa 0,0 l/m 6,0 km/h (2 Bft) W-SW 241 1 min 0,000 mm 3,2 UV-I 641 W/m 16,9 C 24,1 C 8,0 km/h (2 Bft) 100,00 %
21.06.2018 09:40 24,1 C 25,0 C 63 % 1013,1 hPa 0,0 l/m 2,6 km/h (1 Bft) S-SW 210 1 min 0,000 mm 3,2 UV-I 643 W/m 16,6 C 24,1 C 4,8 km/h (1 Bft) 100,00 %
21.06.2018 09:41 24,2 C 25,0 C 65 % 1013,1 hPa 0,0 l/m 6,0 km/h (2 Bft) SW 226 1 min 0,000 mm 3,2 UV-I 625 W/m 17,2 C 24,2 C 9,7 km/h (2 Bft) 100,00 %
21.06.2018 09:42 24,4 C 25,0 C 64 % 1013,1 hPa 0,0 l/m 6,9 km/h (2 Bft) W-SW 240 1 min 0,000 mm 3,2 UV-I 585 W/m 17,1 C 24,3 C 9,7 km/h (2 Bft) 95,65 %
21.06.2018 09:43 24,6 C 25,0 C 63 % 1013,1 hPa 0,0 l/m 4,7 km/h (1 Bft) S 191 1 min 0,000 mm 3,3 UV-I 651 W/m 17,1 C 24,6 C 8,0 km/h (2 Bft) 100,00 %
21.06.2018 09:44 24,6 C 25,0 C 62 % 1013,1 hPa 0,0 l/m 3,7 km/h (1 Bft) SW 236 1 min 0,000 mm 3,3 UV-I 655 W/m 16,8 C 24,6 C 4,8 km/h (1 Bft) 100,00 %
21.06.2018 09:45 24,7 C 25,0 C 63 % 1013,1 hPa 0,0 l/m 7,8 km/h (2 Bft) W-SW 255 1 min 0,000 mm 3,3 UV-I 658 W/m 17,2 C 24,3 C 11,3 km/h (2 Bft) 100,00 %
21.06.2018 09:46 24,7 C 25,0 C 63 % 1013,1 hPa 0,0 l/m 4,5 km/h (1 Bft) W 260 1 min 0,000 mm 3,4 UV-I 606 W/m 17,2 C 24,7 C 9,7 km/h (2 Bft) 91,30 %
21.06.2018 09:47 24,7 C 25,0 C 62 % 1013,0 hPa 0,0 l/m 5,5 km/h (1 Bft) SW 230 1 min 0,000 mm 3,4 UV-I 580 W/m 16,9 C 24,7 C 8,0 km/h (2 Bft) 100,00 %
21.06.2018 09:48 24,6 C 25,0 C 62 % 1013,0 hPa 0,0 l/m 3,6 km/h (1 Bft) NW 311 1 min 0,000 mm 3,4 UV-I 580 W/m 16,8 C 24,6 C 6,4 km/h (2 Bft) 95,65 %
21.06.2018 09:49 24,7 C 25,0 C 65 % 1013,0 hPa 0,0 l/m 4,3 km/h (1 Bft) NW 311 1 min 0,000 mm 3,4 UV-I 580 W/m 17,7 C 24,7 C 6,4 km/h (2 Bft) 100,00 %
21.06.2018 09:50 24,8 C 25,0 C 63 % 1013,0 hPa 0,0 l/m 2,4 km/h (1 Bft) SW 220 1 min 0,000 mm 3,4 UV-I 617 W/m 17,3 C 24,8 C 4,8 km/h (1 Bft) 100,00 %
21.06.2018 09:51 24,8 C 25,0 C 62 % 1013,0 hPa 0,0 l/m 7,7 km/h (2 Bft) SW 232 1 min 0,000 mm 3,5 UV-I 669 W/m 17,0 C 24,5 C 11,3 km/h (2 Bft) 100,00 %
21.06.2018 09:52 24,8 C 25,0 C 61 % 1013,0 hPa 0,0 l/m 10,1 km/h (2 Bft) W-SW 238 1 min 0,000 mm 3,5 UV-I 673 W/m 16,8 C 23,9 C 14,5 km/h (3 Bft) 100,00 %
21.06.2018 09:53 24,7 C 25,0 C 62 % 1013,0 hPa 0,0 l/m 7,3 km/h (2 Bft) W-SW 243 1 min 0,000 mm 3,5 UV-I 677 W/m 16,9 C 24,5 C 11,3 km/h (2 Bft) 95,65 %
21.06.2018 09:54 24,7 C 25,0 C 62 % 1013,0 hPa 0,0 l/m 7,4 km/h (2 Bft) W-SW 239 1 min 0,000 mm 3,5 UV-I 645 W/m 16,9 C 24,4 C 11,3 km/h (2 Bft) 100,00 %
21.06.2018 09:55 24,7 C 25,0 C 61 % 1013,0 hPa 0,0 l/m 6,4 km/h (2 Bft) SW 225 1 min 0,000 mm 3,6 UV-I 432 W/m 16,7 C 24,7 C 9,7 km/h (2 Bft) 91,30 %
21.06.2018 09:56 24,6 C 25,0 C 61 % 1013,0 hPa 0,0 l/m 7,6 km/h (2 Bft) W-SW 257 1 min 0,000 mm 3,6 UV-I 454 W/m 16,6 C 24,3 C 11,3 km/h (2 Bft) 100,00 %
21.06.2018 09:57 24,7 C 25,0 C 61 % 1013,0 hPa 0,0 l/m 7,6 km/h (2 Bft) W-SW 250 1 min 0,000 mm 3,6 UV-I 454 W/m 16,7 C 24,4 C 12,9 km/h (3 Bft) 96,15 %
21.06.2018 09:58 24,7 C 25,0 C 62 % 1013,0 hPa 0,0 l/m 5,8 km/h (2 Bft) W-NW 284 0 min 0,000 mm 3,6 UV-I 313 W/m 16,9 C 24,7 C 9,7 km/h (2 Bft) 100,00 %
21.06.2018 09:59 24,7 C 25,0 C 61 % 1012,9 hPa 0,0 l/m 5,0 km/h (1 Bft) W-SW 240 0 min 0,000 mm 3,7 UV-I 257 W/m 16,7 C 24,7 C 6,4 km/h (2 Bft) 95,83 %
21.06.2018 10:00 24,8 C 25,0 C 62 % 1012,9 hPa 0,0 l/m 3,4 km/h (1 Bft) W-SW 247 0 min 0,000 mm 3,7 UV-I 257 W/m 17,0 C 24,8 C 4,8 km/h (1 Bft) 100,00 %
21.06.2018 10:01 24,9 C 25,0 C 62 % 1012,9 hPa 0,0 l/m 6,4 km/h (2 Bft) S-SW 213 1 min 0,381 mm 3,7 UV-I 406 W/m 17,1 C 24,9 C 9,7 km/h (2 Bft) 96,15 %
21.06.2018 10:02 25,0 C 25,0 C 63 % 1012,9 hPa 0,0 l/m 7,8 km/h (2 Bft) S-SW 205 1 min 0,000 mm 3,7 UV-I 685 W/m 17,5 C 24,6 C 9,7 km/h (2 Bft) 100,00 %
21.06.2018 10:03 25,1 C 25,0 C 62 % 1012,9 hPa 0,0 l/m 5,5 km/h (1 Bft) W-NW 288 1 min 0,000 mm 3,8 UV-I 687 W/m 17,3 C 25,1 C 8,0 km/h (2 Bft) 91,67 %
21.06.2018 10:04 25,1 C 25,0 C 60 % 1012,9 hPa 0,0 l/m 3,5 km/h (1 Bft) W-NW 287 1 min 0,000 mm 3,8 UV-I 688 W/m 16,8 C 25,1 C 4,8 km/h (1 Bft) 95,65 %
21.06.2018 10:05 25,1 C 25,0 C 61 % 1012,9 hPa 0,0 l/m 4,8 km/h (1 Bft) W-SW 248 1 min 0,000 mm 3,8 UV-I 691 W/m 17,0 C 25,1 C 6,4 km/h (2 Bft) 100,00 %
21.06.2018 10:06 25,1 C 25,0 C 60 % 1012,9 hPa 0,0 l/m 4,8 km/h (1 Bft) W 269 1 min 0,000 mm 3,8 UV-I 691 W/m 16,8 C 25,1 C 9,7 km/h (2 Bft) 91,30 %
21.06.2018 10:07 25,2 C 25,0 C 62 % 1012,9 hPa 0,0 l/m 9,4 km/h (2 Bft) W-SW 252 1 min 0,000 mm 3,9 UV-I 693 W/m 17,4 C 24,5 C 12,9 km/h (3 Bft) 100,00 %
21.06.2018 10:08 25,3 C 25,0 C 61 % 1012,9 hPa 0,0 l/m 7,3 km/h (2 Bft) SW 229 1 min 0,000 mm 3,9 UV-I 694 W/m 17,2 C 25,1 C 9,7 km/h (2 Bft) 95,65 %
21.06.2018 10:09 25,2 C 25,0 C 59 % 1012,9 hPa 0,0 l/m 5,1 km/h (1 Bft) W-SW 254 1 min 0,000 mm 3,9 UV-I 698 W/m 16,6 C 25,2 C 11,3 km/h (2 Bft) 100,00 %
21.06.2018 10:10 25,3 C 25,0 C 60 % 1012,8 hPa 0,0 l/m 5,4 km/h (1 Bft) S-SW 207 1 min 0,000 mm 4,0 UV-I 701 W/m 17,0 C 25,3 C 8,0 km/h (2 Bft) 92,86 %
21.06.2018 10:11 25,3 C 25,0 C 60 % 1012,8 hPa 0,0 l/m 4,8 km/h (1 Bft) S-SW 194 1 min 0,000 mm 4,0 UV-I 701 W/m 17,0 C 25,3 C 8,0 km/h (2 Bft) 100,00 %
21.06.2018 10:12 25,4 C 25,0 C 62 % 1012,8 hPa 0,0 l/m 4,7 km/h (1 Bft) SW 229 1 min 0,000 mm 4,0 UV-I 701 W/m 17,6 C 25,4 C 6,4 km/h (2 Bft) 96,15 %
21.06.2018 10:13 25,4 C 25,0 C 59 % 1012,8 hPa 0,0 l/m 8,5 km/h (2 Bft) W 263 1 min 0,000 mm 4,0 UV-I 701 W/m 16,8 C 24,9 C 14,5 km/h (3 Bft) 95,83 %
21.06.2018 10:14 25,4 C 25,0 C 61 % 1012,9 hPa 0,0 l/m 4,6 km/h (1 Bft) NW 304 1 min 0,000 mm 4,0 UV-I 511 W/m 17,3 C 25,4 C 9,7 km/h (2 Bft) 100,00 %
21.06.2018 10:15 25,6 C 25,0 C 60 % 1012,8 hPa 0,0 l/m 5,8 km/h (2 Bft) SW 223 0 min 0,000 mm 4,1 UV-I 287 W/m 17,2 C 25,6 C 8,0 km/h (2 Bft) 95,83 %
21.06.2018 10:16 25,6 C 25,0 C 60 % 1012,8 hPa 0,0 l/m 6,6 km/h (2 Bft) W-SW 251 1 min 0,000 mm 4,1 UV-I 635 W/m 17,2 C 25,6 C 11,3 km/h (2 Bft) 100,00 %
21.06.2018 10:17 25,7 C 25,0 C 58 % 1012,8 hPa 0,0 l/m 3,2 km/h (1 Bft) W-SW 251 1 min 0,000 mm 4,1 UV-I 726 W/m 16,8 C 25,7 C 6,4 km/h (2 Bft) 95,83 %
21.06.2018 10:18 25,7 C 25,0 C 58 % 1012,8 hPa 0,0 l/m 7,4 km/h (2 Bft) W-SW 243 1 min 0,000 mm 4,2 UV-I 726 W/m 16,8 C 25,5 C 14,5 km/h (3 Bft) 100,00 %
21.06.2018 10:19 25,7 C 25,0 C 57 % 1012,7 hPa 0,0 l/m 5,1 km/h (1 Bft) W 280 1 min 0,000 mm 4,2 UV-I 728 W/m 16,5 C 25,7 C 8,0 km/h (2 Bft) 95,83 %
21.06.2018 10:20 25,7 C 25,0 C 58 % 1012,7 hPa 0,0 l/m 6,0 km/h (2 Bft) W-SW 241 1 min 0,000 mm 4,2 UV-I 732 W/m 16,8 C 25,7 C 11,3 km/h (2 Bft) 91,30 %
21.06.2018 10:21 25,7 C 25,0 C 58 % 1012,7 hPa 0,0 l/m 7,9 km/h (2 Bft) S-SW 206 1 min 0,000 mm 4,2 UV-I 734 W/m 16,8 C 25,4 C 12,9 km/h (3 Bft) 100,00 %
21.06.2018 10:22 25,8 C 25,0 C 62 % 1012,7 hPa 0,0 l/m 5,3 km/h (1 Bft) W-NW 284 1 min 0,000 mm 4,3 UV-I 737 W/m 18,0 C 25,8 C 11,3 km/h (2 Bft) 95,65 %
21.06.2018 10:23 25,8 C 25,0 C 59 % 1012,7 hPa 0,0 l/m 5,6 km/h (1 Bft) W-SW 247 1 min 0,000 mm 4,3 UV-I 740 W/m 17,2 C 25,8 C 8,0 km/h (2 Bft) 100,00 %
21.06.2018 10:24 25,8 C 25,0 C 58 % 1012,7 hPa 0,0 l/m 9,8 km/h (2 Bft) W-SW 256 1 min 0,000 mm 4,3 UV-I 742 W/m 16,9 C 25,1 C 12,9 km/h (3 Bft) 95,65 %
21.06.2018 10:25 25,8 C 25,0 C 57 % 1012,7 hPa 0,0 l/m 10,3 km/h (2 Bft) W-SW 250 1 min 0,000 mm 4,3 UV-I 743 W/m 16,6 C 25,0 C 14,5 km/h (3 Bft) 91,67 %
21.06.2018 10:26 25,8 C 25,0 C 57 % 1012,7 hPa 0,0 l/m 11,1 km/h (2 Bft) W-SW 252 1 min 0,000 mm 4,4 UV-I 746 W/m 16,6 C 24,9 C 14,5 km/h (3 Bft) 96,55 %
21.06.2018 10:28 25,7 C 25,0 C 56 % 1012,6 hPa 0,0 l/m 4,7 km/h (1 Bft) W-NW 298 2 min 0,000 mm 4,4 UV-I 740 W/m 16,2 C 25,7 C 9,7 km/h (2 Bft) 97,87 %
21.06.2018 10:29 25,6 C 25,0 C 57 % 1012,7 hPa 0,0 l/m 5,5 km/h (1 Bft) W-NW 291 1 min 0,000 mm 4,5 UV-I 675 W/m 16,4 C 25,6 C 8,0 km/h (2 Bft) 95,65 %
21.06.2018 10:30 25,5 C 25,0 C 58 % 1012,7 hPa 0,0 l/m 5,5 km/h (1 Bft) W-NW 298 0 min 0,000 mm 4,5 UV-I 334 W/m 16,6 C 25,5 C 6,4 km/h (2 Bft) 100,00 %
21.06.2018 10:31 25,5 C 25,0 C 59 % 1012,7 hPa 0,0 l/m 2,6 km/h (1 Bft) W-NW 298 0 min 0,000 mm 4,5 UV-I 334 W/m 16,9 C 25,5 C 4,8 km/h (1 Bft) 100,00 %
21.06.2018 10:32 25,4 C 25,0 C 59 % 1012,6 hPa 0,0 l/m 4,6 km/h (1 Bft) NW 306 1 min 0,000 mm 4,5 UV-I 563 W/m 16,8 C 25,4 C 6,4 km/h (2 Bft) 100,00 %
21.06.2018 10:33 25,6 C 25,0 C 60 % 1012,6 hPa 0,0 l/m 3,6 km/h (1 Bft) W 274 1 min 0,000 mm 4,5 UV-I 757 W/m 17,2 C 25,6 C 6,4 km/h (2 Bft) 100,00 %
21.06.2018 10:34 25,7 C 25,0 C 60 % 1012,6 hPa 0,0 l/m 8,4 km/h (2 Bft) W-SW 255 1 min 0,000 mm 4,6 UV-I 758 W/m 17,3 C 25,3 C 11,3 km/h (2 Bft) 100,00 %
21.06.2018 10:35 25,8 C 25,0 C 60 % 1012,6 hPa 0,0 l/m 10,9 km/h (2 Bft) SW 228 1 min 0,000 mm 4,6 UV-I 757 W/m 17,4 C 24,9 C 14,5 km/h (3 Bft) 95,65 %
21.06.2018 10:36 25,9 C 25,0 C 57 % 1012,6 hPa 0,0 l/m 11,1 km/h (2 Bft) SW 222 1 min 0,000 mm 4,6 UV-I 762 W/m 16,7 C 25,0 C 12,9 km/h (3 Bft) 100,00 %
21.06.2018 10:37 25,9 C 25,0 C 57 % 1012,6 hPa 0,0 l/m 5,7 km/h (1 Bft) SW 229 1 min 0,000 mm 4,7 UV-I 765 W/m 16,7 C 25,9 C 8,0 km/h (2 Bft) 95,65 %
21.06.2018 10:38 25,8 C 25,0 C 56 % 1012,6 hPa 0,0 l/m 2,9 km/h (1 Bft) S 186 1 min 0,000 mm 4,7 UV-I 765 W/m 16,3 C 25,8 C 4,8 km/h (1 Bft) 95,83 %
21.06.2018 10:39 25,8 C 25,0 C 58 % 1012,6 hPa 0,0 l/m 5,1 km/h (1 Bft) SW 232 1 min 0,000 mm 4,7 UV-I 766 W/m 16,9 C 25,8 C 8,0 km/h (2 Bft) 96,15 %
21.06.2018 10:40 25,7 C 25,0 C 58 % 1012,6 hPa 0,0 l/m 3,6 km/h (1 Bft) S 182 1 min 0,000 mm 4,7 UV-I 768 W/m 16,8 C 25,7 C 6,4 km/h (2 Bft) 100,00 %
21.06.2018 10:41 25,7 C 25,0 C 57 % 1012,6 hPa 0,0 l/m 3,7 km/h (1 Bft) W-SW 258 1 min 0,000 mm 4,7 UV-I 768 W/m 16,5 C 25,7 C 6,4 km/h (2 Bft) 95,65 %
21.06.2018 10:42 25,7 C 25,0 C 58 % 1012,6 hPa 0,0 l/m 3,2 km/h (1 Bft) W-SW 239 1 min 0,000 mm 4,8 UV-I 770 W/m 16,8 C 25,7 C 8,0 km/h (2 Bft) 100,00 %
21.06.2018 10:43 25,7 C 25,0 C 59 % 1012,6 hPa 0,0 l/m 9,7 km/h (2 Bft) W 270 1 min 0,000 mm 4,8 UV-I 769 W/m 17,1 C 25,0 C 12,9 km/h (3 Bft) 100,00 %
21.06.2018 10:44 25,9 C 25,0 C 60 % 1012,6 hPa 0,0 l/m 14,7 km/h (3 Bft) W-SW 238 1 min 0,000 mm 4,8 UV-I 766 W/m 17,5 C 24,4 C 19,3 km/h (3 Bft) 100,00 %
21.06.2018 10:45 26,0 C 25,0 C 55 % 1012,6 hPa 0,0 l/m 10,3 km/h (2 Bft) W 259 1 min 0,000 mm 4,9 UV-I 776 W/m 16,2 C 25,2 C 17,7 km/h (3 Bft) 100,00 %
21.06.2018 10:46 26,1 C 25,0 C 54 % 1012,6 hPa 0,0 l/m 7,9 km/h (2 Bft) W-SW 258 1 min 0,000 mm 4,9 UV-I 780 W/m 16,0 C 25,8 C 9,7 km/h (2 Bft) 86,96 %
21.06.2018 10:47 26,1 C 25,0 C 54 % 1012,6 hPa 0,0 l/m 4,9 km/h (1 Bft) NW 323 1 min 0,000 mm 4,9 UV-I 765 W/m 16,0 C 26,1 C 9,7 km/h (2 Bft) 95,83 %
21.06.2018 10:48 26,0 C 25,0 C 53 % 1012,6 hPa 0,0 l/m 4,7 km/h (1 Bft) SW 227 1 min 0,000 mm 4,9 UV-I 765 W/m 15,7 C 26,0 C 8,0 km/h (2 Bft) 95,65 %
21.06.2018 10:49 26,0 C 25,0 C 55 % 1012,6 hPa 0,0 l/m 3,7 km/h (1 Bft) SW 220 1 min 0,000 mm 4,9 UV-I 772 W/m 16,2 C 26,0 C 8,0 km/h (2 Bft) 100,00 %
21.06.2018 10:50 26,2 C 25,0 C 56 % 1012,6 hPa 0,0 l/m 5,8 km/h (2 Bft) SW 236 1 min 0,000 mm 4,9 UV-I 780 W/m 16,7 C 26,2 C 9,7 km/h (2 Bft) 100,00 %
21.06.2018 10:51 26,3 C 25,0 C 54 % 1012,6 hPa 0,0 l/m 8,9 km/h (2 Bft) W-SW 245 1 min 0,000 mm 4,9 UV-I 781 W/m 16,2 C 25,8 C 12,9 km/h (3 Bft) 100,00 %
21.06.2018 10:52 26,3 C 25,0 C 54 % 1012,6 hPa 0,0 l/m 8,9 km/h (2 Bft) W 260 1 min 0,000 mm 5,0 UV-I 784 W/m 16,2 C 25,8 C 11,3 km/h (2 Bft) 92,31 %
21.06.2018 10:53 26,3 C 25,0 C 54 % 1012,6 hPa 0,0 l/m 4,0 km/h (1 Bft) W-SW 249 1 min 0,000 mm 5,0 UV-I 786 W/m 16,2 C 26,3 C 6,4 km/h (2 Bft) 100,00 %
21.06.2018 10:54 26,3 C 25,0 C 55 % 1012,6 hPa 0,0 l/m 2,0 km/h (1 Bft) W-SW 242 1 min 0,000 mm 5,0 UV-I 785 W/m 16,5 C 26,3 C 4,8 km/h (1 Bft) 95,65 %
21.06.2018 10:55 26,4 C 25,0 C 54 % 1012,6 hPa 0,0 l/m 6,2 km/h (2 Bft) SW 235 1 min 0,000 mm 5,0 UV-I 786 W/m 16,3 C 26,4 C 11,3 km/h (2 Bft) 95,83 %
21.06.2018 10:56 26,4 C 25,0 C 54 % 1012,6 hPa 0,0 l/m 10,1 km/h (2 Bft) W-SW 252 1 min 0,000 mm 5,0 UV-I 788 W/m 16,3 C 25,7 C 14,5 km/h (3 Bft) 100,00 %
21.06.2018 10:57 26,4 C 25,0 C 56 % 1012,6 hPa 0,0 l/m 5,5 km/h (1 Bft) NW 309 1 min 0,000 mm 5,0 UV-I 788 W/m 16,9 C 26,4 C 8,0 km/h (2 Bft) 100,00 %
21.06.2018 10:58 26,5 C 25,0 C 56 % 1012,5 hPa 0,0 l/m 4,2 km/h (1 Bft) NW 309 1 min 0,000 mm 5,0 UV-I 788 W/m 17,0 C 26,5 C 6,4 km/h (2 Bft) 100,00 %
21.06.2018 10:59 26,7 C 25,0 C 54 % 1012,5 hPa 0,0 l/m 6,0 km/h (2 Bft) W 268 1 min 0,000 mm 5,2 UV-I 795 W/m 16,6 C 26,7 C 12,9 km/h (3 Bft) 100,00 %
21.06.2018 11:00 26,7 C 25,0 C 55 % 1012,5 hPa 0,0 l/m 4,2 km/h (1 Bft) W-NW 286 1 min 0,000 mm 5,2 UV-I 791 W/m 16,9 C 26,7 C 9,7 km/h (2 Bft) 100,00 %
21.06.2018 11:01 26,7 C 25,0 C 52 % 1012,5 hPa 0,0 l/m 6,8 km/h (2 Bft) W-SW 258 1 min 0,483 mm 5,2 UV-I 802 W/m 16,0 C 26,6 C 16,1 km/h (3 Bft) 95,83 %
21.06.2018 11:02 26,7 C 25,0 C 52 % 1012,4 hPa 0,0 l/m 9,2 km/h (2 Bft) SW 236 1 min 0,000 mm 5,2 UV-I 785 W/m 16,0 C 26,2 C 14,5 km/h (3 Bft) 95,65 %
21.06.2018 11:03 26,7 C 25,0 C 53 % 1012,4 hPa 0,0 l/m 6,3 km/h (2 Bft) SW 229 1 min 0,000 mm 5,2 UV-I 766 W/m 16,3 C 26,7 C 9,7 km/h (2 Bft) 100,00 %
21.06.2018 11:04 26,7 C 25,0 C 52 % 1012,4 hPa 0,0 l/m 9,9 km/h (2 Bft) W-NW 286 1 min 0,000 mm 5,2 UV-I 803 W/m 16,0 C 26,1 C 14,5 km/h (3 Bft) 100,00 %
21.06.2018 11:05 26,8 C 25,0 C 53 % 1012,4 hPa 0,0 l/m 8,6 km/h (2 Bft) W 260 1 min 0,000 mm 5,3 UV-I 806 W/m 16,4 C 26,4 C 14,5 km/h (3 Bft) 100,00 %
21.06.2018 11:06 26,8 C 25,0 C 52 % 1012,4 hPa 0,0 l/m 10,3 km/h (2 Bft) SW 222 1 min 0,000 mm 5,3 UV-I 808 W/m 16,1 C 26,1 C 14,5 km/h (3 Bft) 100,00 %
21.06.2018 11:07 26,7 C 25,0 C 52 % 1012,4 hPa 0,0 l/m 6,2 km/h (2 Bft) S 171 1 min 0,000 mm 4,5 UV-I 812 W/m 16,0 C 26,7 C 9,7 km/h (2 Bft) 100,00 %
21.06.2018 11:08 26,7 C 25,0 C 54 % 1012,3 hPa 0,0 l/m 5,6 km/h (1 Bft) W-NW 296 1 min 0,000 mm 4,1 UV-I 810 W/m 16,6 C 26,7 C 9,7 km/h (2 Bft) 100,00 %
21.06.2018 11:09 26,7 C 25,0 C 54 % 1012,3 hPa 0,0 l/m 9,4 km/h (2 Bft) W-SW 254 1 min 0,000 mm 5,4 UV-I 815 W/m 16,6 C 26,1 C 14,5 km/h (3 Bft) 100,00 %
21.06.2018 11:10 26,8 C 25,0 C 53 % 1012,3 hPa 0,0 l/m 11,9 km/h (2 Bft) W-NW 289 1 min 0,000 mm 5,2 UV-I 797 W/m 16,4 C 25,9 C 16,1 km/h (3 Bft) 100,00 %
21.06.2018 11:11 26,9 C 25,0 C 54 % 1012,3 hPa 0,0 l/m 12,2 km/h (2 Bft) W 265 1 min 0,000 mm 5,2 UV-I 775 W/m 16,8 C 25,9 C 14,5 km/h (3 Bft) 100,00 %
21.06.2018 11:12 27,0 C 25,0 C 55 % 1012,3 hPa 0,0 l/m 10,3 km/h (2 Bft) W-SW 243 1 min 0,000 mm 5,3 UV-I 774 W/m 17,2 C 26,3 C 12,9 km/h (3 Bft) 100,00 %
21.06.2018 11:13 27,0 C 25,0 C 54 % 1012,3 hPa 0,0 l/m 7,6 km/h (2 Bft) W 278 1 min 0,000 mm 5,3 UV-I 781 W/m 16,9 C 26,8 C 12,9 km/h (3 Bft) 100,00 %
21.06.2018 11:14 27,1 C 25,0 C 55 % 1012,3 hPa 0,0 l/m 7,0 km/h (2 Bft) W 259 1 min 0,000 mm 5,4 UV-I 808 W/m 17,3 C 27,0 C 12,9 km/h (3 Bft) 100,00 %
21.06.2018 11:15 27,1 C 25,0 C 54 % 1012,3 hPa 0,0 l/m 5,7 km/h (1 Bft) NW 318 1 min 0,000 mm 5,5 UV-I 816 W/m 17,0 C 27,1 C 11,3 km/h (2 Bft) 100,00 %
21.06.2018 11:16 27,0 C 25,0 C 54 % 1012,3 hPa 0,0 l/m 7,8 km/h (2 Bft) NW 317 1 min 0,000 mm 5,5 UV-I 809 W/m 16,9 C 26,7 C 12,9 km/h (3 Bft) 100,00 %
21.06.2018 11:17 26,9 C 25,0 C 54 % 1012,3 hPa 0,0 l/m 5,3 km/h (1 Bft) S 185 1 min 0,000 mm 5,5 UV-I 804 W/m 16,8 C 26,9 C 9,7 km/h (2 Bft) 96,15 %
21.06.2018 11:18 26,8 C 25,0 C 52 % 1012,3 hPa 0,0 l/m 4,3 km/h (1 Bft) SO 140 1 min 0,000 mm 5,5 UV-I 815 W/m 16,1 C 26,8 C 6,4 km/h (2 Bft) 100,00 %
21.06.2018 11:19 26,7 C 25,0 C 56 % 1012,2 hPa 0,0 l/m 2,7 km/h (1 Bft) W-NW 296 1 min 0,000 mm 5,5 UV-I 822 W/m 17,2 C 26,7 C 8,0 km/h (2 Bft) 100,00 %
21.06.2018 11:20 26,8 C 25,0 C 54 % 1012,2 hPa 0,0 l/m 4,4 km/h (1 Bft) S-SW 192 1 min 0,000 mm 5,6 UV-I 824 W/m 16,7 C 26,8 C 6,4 km/h (2 Bft) 100,00 %
21.06.2018 11:21 26,8 C 25,0 C 54 % 1012,2 hPa 0,0 l/m 5,2 km/h (1 Bft) W-SW 242 1 min 0,000 mm 5,6 UV-I 824 W/m 16,7 C 26,8 C 8,0 km/h (2 Bft) 100,00 %
21.06.2018 11:22 27,0 C 25,0 C 55 % 1012,2 hPa 0,0 l/m 8,5 km/h (2 Bft) SW 221 1 min 0,000 mm 5,6 UV-I 818 W/m 17,2 C 26,6 C 11,3 km/h (2 Bft) 95,65 %
21.06.2018 11:23 27,1 C 25,0 C 54 % 1012,2 hPa 0,0 l/m 8,5 km/h (2 Bft) W 263 1 min 0,000 mm 5,6 UV-I 826 W/m 17,0 C 26,7 C 11,3 km/h (2 Bft) 100,00 %
21.06.2018 11:24 27,1 C 25,0 C 55 % 1012,2 hPa 0,0 l/m 7,3 km/h (2 Bft) S-SW 192 1 min 0,000 mm 5,6 UV-I 827 W/m 17,3 C 26,9 C 11,3 km/h (2 Bft) 96,15 %
21.06.2018 11:25 27,2 C 25,0 C 54 % 1012,2 hPa 0,0 l/m 3,7 km/h (1 Bft) W-SW 243 1 min 0,000 mm 5,7 UV-I 832 W/m 17,1 C 27,2 C 6,4 km/h (2 Bft) 100,00 %
21.06.2018 11:26 27,2 C 25,0 C 56 % 1012,2 hPa 0,0 l/m 8,8 km/h (2 Bft) W-SW 244 1 min 0,000 mm 5,7 UV-I 828 W/m 17,6 C 26,8 C 12,9 km/h (3 Bft) 100,00 %
21.06.2018 11:27 27,4 C 25,0 C 55 % 1012,1 hPa 0,0 l/m 12,9 km/h (3 Bft) SW 229 1 min 0,000 mm 5,7 UV-I 830 W/m 17,5 C 26,4 C 19,3 km/h (3 Bft) 100,00 %
21.06.2018 11:28 27,4 C 25,0 C 53 % 1012,1 hPa 0,0 l/m 11,5 km/h (2 Bft) W-SW 250 1 min 0,000 mm 5,7 UV-I 835 W/m 17,0 C 26,6 C 14,5 km/h (3 Bft) 100,00 %
21.06.2018 11:29 27,4 C 25,0 C 54 % 1012,1 hPa 0,0 l/m 10,8 km/h (2 Bft) S-SW 205 1 min 0,000 mm 5,8 UV-I 819 W/m 17,3 C 26,7 C 14,5 km/h (3 Bft) 100,00 %
21.06.2018 11:30 27,4 C 25,0 C 53 % 1012,2 hPa 0,0 l/m 11,0 km/h (2 Bft) SW 221 1 min 0,000 mm 5,8 UV-I 808 W/m 17,0 C 26,7 C 14,5 km/h (3 Bft) 100,00 %
21.06.2018 11:31 27,3 C 25,0 C 54 % 1012,2 hPa 0,0 l/m 7,5 km/h (2 Bft) SW 222 1 min 0,000 mm 5,8 UV-I 838 W/m 17,2 C 27,1 C 12,9 km/h (3 Bft) 100,00 %
21.06.2018 11:32 27,4 C 25,0 C 54 % 1012,1 hPa 0,0 l/m 5,6 km/h (1 Bft) W 265 1 min 0,000 mm 5,8 UV-I 841 W/m 17,3 C 27,4 C 9,7 km/h (2 Bft) 100,00 %
21.06.2018 11:33 27,4 C 25,0 C 54 % 1012,1 hPa 0,0 l/m 7,9 km/h (2 Bft) W-SW 240 1 min 0,000 mm 5,8 UV-I 842 W/m 17,3 C 27,1 C 12,9 km/h (3 Bft) 100,00 %
21.06.2018 11:34 27,4 C 25,0 C 53 % 1012,1 hPa 0,0 l/m 13,4 km/h (3 Bft) S-SW 208 1 min 0,000 mm 5,9 UV-I 846 W/m 17,0 C 26,4 C 17,7 km/h (3 Bft) 100,00 %
21.06.2018 11:35 27,4 C 25,0 C 54 % 1012,1 hPa 0,0 l/m 13,9 km/h (3 Bft) W 266 1 min 0,000 mm 5,8 UV-I 843 W/m 17,3 C 26,3 C 20,9 km/h (4 Bft) 100,00 %
21.06.2018 11:36 27,4 C 25,0 C 54 % 1012,2 hPa 0,0 l/m 9,1 km/h (2 Bft) W 281 1 min 0,000 mm 5,9 UV-I 841 W/m 17,3 C 26,9 C 14,5 km/h (3 Bft) 100,00 %
21.06.2018 11:37 27,4 C 25,0 C 53 % 1012,1 hPa 0,0 l/m 8,9 km/h (2 Bft) W 269 1 min 0,000 mm 5,8 UV-I 842 W/m 17,0 C 27,0 C 12,9 km/h (3 Bft) 100,00 %
21.06.2018 11:38 27,3 C 25,0 C 53 % 1012,1 hPa 0,0 l/m 7,2 km/h (2 Bft) W-SW 239 1 min 0,000 mm 5,9 UV-I 848 W/m 16,9 C 27,2 C 9,7 km/h (2 Bft) 100,00 %
21.06.2018 11:39 27,2 C 25,0 C 53 % 1012,0 hPa 0,0 l/m 6,3 km/h (2 Bft) W 263 1 min 0,000 mm 6,0 UV-I 852 W/m 16,8 C 27,2 C 11,3 km/h (2 Bft) 100,00 %
21.06.2018 11:40 27,2 C 25,6 C 55 % 1012,0 hPa 0,0 l/m 11,3 km/h (2 Bft) W-SW 250 1 min 0,000 mm 6,0 UV-I 857 W/m 17,4 C 26,4 C 19,3 km/h (3 Bft) 95,83 %
21.06.2018 11:41 27,2 C 25,0 C 55 % 1012,1 hPa 0,0 l/m 11,0 km/h (2 Bft) W 279 1 min 0,000 mm 6,0 UV-I 855 W/m 17,4 C 26,5 C 14,5 km/h (3 Bft) 100,00 %
21.06.2018 11:42 27,1 C 25,6 C 53 % 1012,0 hPa 0,0 l/m 7,8 km/h (2 Bft) W 263 1 min 0,000 mm 6,0 UV-I 854 W/m 16,7 C 26,8 C 11,3 km/h (2 Bft) 100,00 %
21.06.2018 11:43 26,9 C 25,6 C 55 % 1012,0 hPa 0,0 l/m 6,5 km/h (2 Bft) W 267 1 min 0,000 mm 6,0 UV-I 852 W/m 17,1 C 26,9 C 14,5 km/h (3 Bft) 100,00 %
21.06.2018 11:44 27,0 C 25,6 C 54 % 1012,0 hPa 0,0 l/m 12,1 km/h (2 Bft) W 264 1 min 0,000 mm 6,1 UV-I 857 W/m 16,9 C 26,1 C 16,1 km/h (3 Bft) 100,00 %
21.06.2018 11:45 27,1 C 25,6 C 55 % 1012,0 hPa 0,0 l/m 7,6 km/h (2 Bft) W 260 1 min 0,000 mm 6,0 UV-I 854 W/m 17,3 C 26,9 C 11,3 km/h (2 Bft) 95,65 %
21.06.2018 11:46 27,2 C 25,6 C 54 % 1012,0 hPa 0,0 l/m 8,2 km/h (2 Bft) W 265 1 min 0,000 mm 6,0 UV-I 850 W/m 17,1 C 26,9 C 11,3 km/h (2 Bft) 100,00 %
21.06.2018 11:47 27,3 C 25,6 C 56 % 1011,9 hPa 0,0 l/m 6,3 km/h (2 Bft) W-SW 238 1 min 0,000 mm 6,0 UV-I 847 W/m 17,7 C 27,3 C 9,7 km/h (2 Bft) 100,00 %
21.06.2018 11:48 27,3 C 25,6 C 53 % 1011,9 hPa 0,0 l/m 9,5 km/h (2 Bft) W 268 1 min 0,000 mm 6,0 UV-I 850 W/m 16,9 C 26,8 C 14,5 km/h (3 Bft) 100,00 %
21.06.2018 11:49 27,3 C 25,6 C 53 % 1011,9 hPa 0,0 l/m 7,2 km/h (2 Bft) W-NW 287 1 min 0,000 mm 6,0 UV-I 850 W/m 16,9 C 27,2 C 14,5 km/h (3 Bft) 100,00 %
21.06.2018 11:50 27,2 C 25,6 C 54 % 1011,9 hPa 0,0 l/m 4,4 km/h (1 Bft) W-NW 285 1 min 0,000 mm 6,1 UV-I 851 W/m 17,1 C 27,2 C 6,4 km/h (2 Bft) 100,00 %
21.06.2018 11:51 27,3 C 25,6 C 55 % 1011,9 hPa 0,0 l/m 5,0 km/h (1 Bft) SW 233 1 min 0,000 mm 6,1 UV-I 854 W/m 17,4 C 27,3 C 8,0 km/h (2 Bft) 95,65 %
21.06.2018 11:52 27,4 C 25,6 C 57 % 1011,9 hPa 0,0 l/m 6,6 km/h (2 Bft) W-SW 246 1 min 0,000 mm 6,1 UV-I 851 W/m 18,1 C 27,4 C 8,0 km/h (2 Bft) 100,00 %
21.06.2018 11:53 27,6 C 25,6 C 54 % 1011,9 hPa 0,0 l/m 5,0 km/h (1 Bft) W-NW 294 1 min 0,000 mm 6,2 UV-I 870 W/m 17,4 C 27,6 C 11,3 km/h (2 Bft) 100,00 %
21.06.2018 11:54 27,7 C 25,6 C 54 % 1011,9 hPa 0,0 l/m 3,6 km/h (1 Bft) NW 309 1 min 0,000 mm 6,3 UV-I 877 W/m 17,5 C 27,7 C 4,8 km/h (1 Bft) 95,83 %
21.06.2018 11:55 27,7 C 25,6 C 54 % 1011,9 hPa 0,0 l/m 12,8 km/h (3 Bft) W 271 1 min 0,000 mm 6,2 UV-I 870 W/m 17,5 C 26,8 C 20,9 km/h (4 Bft) 100,00 %
21.06.2018 11:56 27,7 C 25,6 C 52 % 1011,9 hPa 0,0 l/m 8,7 km/h (2 Bft) W-NW 298 1 min 0,000 mm 6,3 UV-I 870 W/m 16,9 C 27,3 C 14,5 km/h (3 Bft) 95,65 %
21.06.2018 11:57 27,6 C 25,6 C 53 % 1011,9 hPa 0,0 l/m 4,2 km/h (1 Bft) NW 315 1 min 0,000 mm 6,2 UV-I 870 W/m 17,1 C 27,6 C 6,4 km/h (2 Bft) 91,67 %
21.06.2018 11:58 27,6 C 25,6 C 53 % 1011,9 hPa 0,0 l/m 6,5 km/h (2 Bft) W-NW 282 1 min 0,000 mm 6,3 UV-I 870 W/m 17,1 C 27,6 C 8,0 km/h (2 Bft) 95,65 %
21.06.2018 11:59 27,5 C 25,6 C 53 % 1011,9 hPa 0,0 l/m 7,9 km/h (2 Bft) NW 313 1 min 0,000 mm 6,3 UV-I 872 W/m 17,0 C 27,2 C 11,3 km/h (2 Bft) 95,83 %
21.06.2018 12:00 27,4 C 25,6 C 53 % 1011,8 hPa 0,0 l/m 6,7 km/h (2 Bft) W 274 1 min 0,584 mm 6,3 UV-I 871 W/m 17,0 C 27,4 C 16,1 km/h (3 Bft) 100,00 %
21.06.2018 12:02 27,5 C 25,6 C 53 % 1011,8 hPa 0,0 l/m 9,8 km/h (2 Bft) W-SW 252 2 min 0,000 mm 6,3 UV-I 868 W/m 17,0 C 27,0 C 14,5 km/h (3 Bft) 95,74 %
21.06.2018 12:03 27,4 C 25,6 C 53 % 1011,8 hPa 0,0 l/m 6,4 km/h (2 Bft) S-SW 200 1 min 0,000 mm 6,2 UV-I 866 W/m 17,0 C 27,4 C 9,7 km/h (2 Bft) 86,67 %
21.06.2018 12:04 27,5 C 25,6 C 54 % 1011,8 hPa 0,0 l/m 7,6 km/h (2 Bft) SW 221 1 min 0,000 mm 6,3 UV-I 873 W/m 17,3 C 27,3 C 11,3 km/h (2 Bft) 100,00 %
21.06.2018 12:05 27,5 C 25,6 C 53 % 1011,8 hPa 0,0 l/m 8,4 km/h (2 Bft) W 270 1 min 0,000 mm 6,4 UV-I 877 W/m 17,0 C 27,2 C 14,5 km/h (3 Bft) 95,83 %
21.06.2018 12:06 27,6 C 25,6 C 54 % 1011,8 hPa 0,0 l/m 5,7 km/h (1 Bft) W-NW 290 1 min 0,000 mm 6,5 UV-I 880 W/m 17,4 C 27,6 C 9,7 km/h (2 Bft) 100,00 %
21.06.2018 12:07 27,7 C 25,6 C 54 % 1011,8 hPa 0,0 l/m 3,6 km/h (1 Bft) SW 234 1 min 0,000 mm 6,4 UV-I 873 W/m 17,5 C 27,7 C 4,8 km/h (1 Bft) 95,83 %
21.06.2018 12:08 27,6 C 25,6 C 54 % 1011,8 hPa 0,0 l/m 3,0 km/h (1 Bft) NW 311 1 min 0,000 mm 6,4 UV-I 870 W/m 17,4 C 27,6 C 4,8 km/h (1 Bft) 96,15 %
21.06.2018 12:09 27,6 C 25,6 C 54 % 1011,7 hPa 0,0 l/m 5,3 km/h (1 Bft) SW 220 1 min 0,000 mm 6,4 UV-I 874 W/m 17,4 C 27,6 C 12,9 km/h (3 Bft) 100,00 %
21.06.2018 12:10 27,7 C 25,6 C 55 % 1011,7 hPa 0,0 l/m 4,5 km/h (1 Bft) W-NW 296 1 min 0,000 mm 6,4 UV-I 854 W/m 17,8 C 27,7 C 8,0 km/h (2 Bft) 92,31 %
21.06.2018 12:11 27,9 C 25,6 C 56 % 1011,7 hPa 0,0 l/m 3,7 km/h (1 Bft) S-SW 199 1 min 0,000 mm 6,4 UV-I 845 W/m 18,3 C 27,9 C 4,8 km/h (1 Bft) 100,00 %
21.06.2018 12:12 28,1 C 25,6 C 53 % 1011,7 hPa 0,0 l/m 11,0 km/h (2 Bft) W-NW 286 1 min 0,000 mm 6,4 UV-I 874 W/m 17,6 C 27,5 C 17,7 km/h (3 Bft) 95,65 %
21.06.2018 12:13 28,2 C 25,6 C 52 % 1011,7 hPa 0,0 l/m 13,6 km/h (3 Bft) W 272 1 min 0,000 mm 6,4 UV-I 875 W/m 17,4 C 27,3 C 19,3 km/h (3 Bft) 95,83 %
21.06.2018 12:14 28,1 C 25,6 C 50 % 1011,6 hPa 0,0 l/m 7,3 km/h (2 Bft) W-NW 296 1 min 0,000 mm 6,4 UV-I 879 W/m 16,7 C 28,0 C 14,5 km/h (3 Bft) 95,65 %
21.06.2018 12:15 28,1 C 25,6 C 53 % 1011,6 hPa 0,0 l/m 13,2 km/h (3 Bft) W-SW 242 1 min 0,000 mm 6,5 UV-I 889 W/m 17,6 C 27,2 C 20,9 km/h (4 Bft) 95,83 %
21.06.2018 12:16 27,9 C 25,6 C 51 % 1011,6 hPa 0,0 l/m 5,3 km/h (1 Bft) SW 234 1 min 0,000 mm 6,6 UV-I 897 W/m 16,8 C 27,9 C 9,7 km/h (2 Bft) 95,83 %
21.06.2018 12:17 27,9 C 25,6 C 52 % 1011,6 hPa 0,0 l/m 5,9 km/h (2 Bft) SW 229 1 min 0,000 mm 6,6 UV-I 905 W/m 17,1 C 27,9 C 9,7 km/h (2 Bft) 95,65 %
21.06.2018 12:18 27,9 C 25,6 C 53 % 1011,6 hPa 0,0 l/m 4,0 km/h (1 Bft) S-SW 205 1 min 0,000 mm 6,4 UV-I 867 W/m 17,4 C 27,9 C 4,8 km/h (1 Bft) 95,83 %
21.06.2018 12:19 28,0 C 25,6 C 52 % 1011,6 hPa 0,0 l/m 7,9 km/h (2 Bft) W-SW 258 1 min 0,000 mm 6,0 UV-I 844 W/m 17,2 C 27,8 C 12,9 km/h (3 Bft) 91,30 %
21.06.2018 12:20 28,1 C 25,6 C 51 % 1011,6 hPa 0,0 l/m 11,6 km/h (2 Bft) W 259 1 min 0,000 mm 6,4 UV-I 844 W/m 17,0 C 27,4 C 16,1 km/h (3 Bft) 95,83 %
21.06.2018 12:21 28,1 C 25,6 C 50 % 1011,6 hPa 0,0 l/m 8,5 km/h (2 Bft) W 263 1 min 0,000 mm 6,7 UV-I 858 W/m 16,7 C 27,8 C 12,9 km/h (3 Bft) 96,15 %
21.06.2018 12:22 28,1 C 25,6 C 51 % 1011,5 hPa 0,0 l/m 12,2 km/h (2 Bft) W 275 1 min 0,000 mm 6,7 UV-I 897 W/m 17,0 C 27,3 C 16,1 km/h (3 Bft) 91,67 %
21.06.2018 12:23 28,1 C 25,6 C 51 % 1011,5 hPa 0,0 l/m 8,9 km/h (2 Bft) W-SW 254 1 min 0,000 mm 6,6 UV-I 894 W/m 17,0 C 27,7 C 11,3 km/h (2 Bft) 96,43 %
21.06.2018 12:24 28,1 C 25,6 C 51 % 1011,5 hPa 0,0 l/m 9,2 km/h (2 Bft) W-SW 253 1 min 0,000 mm 6,6 UV-I 887 W/m 17,0 C 27,7 C 12,9 km/h (3 Bft) 91,67 %
21.06.2018 12:25 28,2 C 25,6 C 52 % 1011,4 hPa 0,0 l/m 6,2 km/h (2 Bft) SW 227 1 min 0,000 mm 6,5 UV-I 836 W/m 17,4 C 28,2 C 9,7 km/h (2 Bft) 100,00 %
21.06.2018 12:26 28,4 C 25,6 C 52 % 1011,4 hPa 0,0 l/m 14,1 km/h (3 Bft) W 264 1 min 0,000 mm 6,6 UV-I 873 W/m 17,6 C 27,5 C 22,5 km/h (4 Bft) 95,83 %
21.06.2018 12:27 28,6 C 25,6 C 51 % 1011,6 hPa 0,0 l/m 19,8 km/h (3 Bft) W 271 1 min 0,000 mm 6,6 UV-I 884 W/m 17,4 C 27,3 C 24,1 km/h (4 Bft) 91,30 %
21.06.2018 12:28 28,7 C 25,6 C 49 % 1011,6 hPa 0,0 l/m 13,5 km/h (3 Bft) W-SW 243 1 min 0,000 mm 6,6 UV-I 881 W/m 16,9 C 27,9 C 20,9 km/h (4 Bft) 100,00 %
21.06.2018 12:29 28,7 C 25,6 C 49 % 1011,4 hPa 0,0 l/m 12,2 km/h (2 Bft) W-SW 247 1 min 0,000 mm 6,6 UV-I 877 W/m 16,9 C 28,0 C 16,1 km/h (3 Bft) 100,00 %
21.06.2018 12:30 28,6 C 25,6 C 49 % 1011,4 hPa 0,0 l/m 12,8 km/h (3 Bft) W-SW 255 1 min 0,000 mm 6,8 UV-I 900 W/m 16,8 C 27,9 C 19,3 km/h (3 Bft) 97,37 %
21.06.2018 12:31 28,5 C 25,6 C 49 % 1011,4 hPa 0,0 l/m 13,0 km/h (3 Bft) W-SW 244 1 min 0,000 mm 6,8 UV-I 905 W/m 16,7 C 27,7 C 17,7 km/h (3 Bft) 91,30 %
21.06.2018 12:32 28,3 C 25,6 C 50 % 1011,4 hPa 0,0 l/m 7,8 km/h (2 Bft) S-SW 198 1 min 0,000 mm 6,7 UV-I 897 W/m 16,9 C 28,1 C 12,9 km/h (3 Bft) 95,83 %
21.06.2018 12:33 28,3 C 25,6 C 50 % 1011,3 hPa 0,0 l/m 4,9 km/h (1 Bft) S-SW 213 1 min 0,000 mm 6,8 UV-I 902 W/m 16,9 C 28,3 C 6,4 km/h (2 Bft) 91,67 %
21.06.2018 12:34 28,4 C 25,6 C 53 % 1011,3 hPa 0,0 l/m 3,4 km/h (1 Bft) SW 223 1 min 0,000 mm 6,8 UV-I 899 W/m 17,9 C 28,4 C 4,8 km/h (1 Bft) 100,00 %
21.06.2018 12:35 28,7 C 25,6 C 51 % 1011,3 hPa 0,0 l/m 4,0 km/h (1 Bft) W 263 1 min 0,000 mm 6,6 UV-I 893 W/m 17,5 C 28,7 C 6,4 km/h (2 Bft) 95,83 %
21.06.2018 12:36 28,8 C 25,6 C 51 % 1011,4 hPa 0,0 l/m 7,8 km/h (2 Bft) S-SW 211 1 min 0,000 mm 6,5 UV-I 841 W/m 17,6 C 28,6 C 12,9 km/h (3 Bft) 95,65 %
21.06.2018 12:37 28,9 C 25,6 C 52 % 1011,3 hPa 0,0 l/m 3,4 km/h (1 Bft) S-SW 210 1 min 0,000 mm 6,6 UV-I 885 W/m 18,0 C 28,9 C 9,7 km/h (2 Bft) 100,00 %
21.06.2018 12:38 29,0 C 25,6 C 51 % 1011,3 hPa 0,0 l/m 10,3 km/h (2 Bft) W 267 1 min 0,000 mm 6,7 UV-I 902 W/m 17,8 C 28,6 C 16,1 km/h (3 Bft) 100,00 %
21.06.2018 12:39 29,1 C 25,6 C 50 % 1011,3 hPa 0,0 l/m 5,8 km/h (2 Bft) S-SW 205 1 min 0,000 mm 6,8 UV-I 908 W/m 17,6 C 29,1 C 12,9 km/h (3 Bft) 95,83 %
21.06.2018 12:40 29,2 C 25,6 C 50 % 1011,3 hPa 0,0 l/m 9,5 km/h (2 Bft) W-SW 250 1 min 0,000 mm 6,7 UV-I 893 W/m 17,7 C 28,9 C 14,5 km/h (3 Bft) 96,15 %
21.06.2018 12:41 29,2 C 25,6 C 49 % 1011,3 hPa 0,0 l/m 10,5 km/h (2 Bft) NW 305 1 min 0,000 mm 6,8 UV-I 893 W/m 17,4 C 28,8 C 16,1 km/h (3 Bft) 100,00 %
21.06.2018 12:42 29,2 C 25,6 C 49 % 1011,3 hPa 0,0 l/m 10,5 km/h (2 Bft) SW 214 1 min 0,000 mm 6,7 UV-I 894 W/m 17,4 C 28,8 C 16,1 km/h (3 Bft) 95,65 %
21.06.2018 12:43 29,2 C 25,6 C 48 % 1011,3 hPa 0,0 l/m 12,7 km/h (3 Bft) W-NW 302 1 min 0,000 mm 6,7 UV-I 889 W/m 17,0 C 28,6 C 17,7 km/h (3 Bft) 100,00 %
21.06.2018 12:44 29,2 C 25,6 C 48 % 1011,3 hPa 0,0 l/m 6,6 km/h (2 Bft) W-NW 302 1 min 0,000 mm 6,7 UV-I 903 W/m 17,0 C 29,2 C 11,3 km/h (2 Bft) 91,30 %
21.06.2018 12:45 29,1 C 25,6 C 48 % 1011,2 hPa 0,0 l/m 5,4 km/h (1 Bft) N 5 1 min 0,000 mm 6,5 UV-I 911 W/m 16,9 C 29,1 C 12,9 km/h (3 Bft) 100,00 %
21.06.2018 12:46 28,9 C 25,6 C 48 % 1011,2 hPa 0,0 l/m 3,1 km/h (1 Bft) NW 315 1 min 0,000 mm 5,1 UV-I 911 W/m 16,8 C 28,9 C 8,0 km/h (2 Bft) 95,65 %
21.06.2018 12:48 28,9 C 25,6 C 49 % 1011,1 hPa 0,0 l/m 5,5 km/h (1 Bft) W-SW 246 2 min 0,000 mm 6,7 UV-I 914 W/m 17,1 C 28,9 C 11,3 km/h (2 Bft) 97,87 %
21.06.2018 12:49 29,2 C 25,6 C 48 % 1011,1 hPa 0,0 l/m 7,7 km/h (2 Bft) NW 311 1 min 0,000 mm 6,8 UV-I 919 W/m 17,0 C 29,0 C 11,3 km/h (2 Bft) 95,83 %
21.06.2018 12:50 29,3 C 25,6 C 49 % 1011,1 hPa 0,0 l/m 6,2 km/h (2 Bft) W 263 1 min 0,000 mm 6,9 UV-I 920 W/m 17,5 C 29,3 C 11,3 km/h (2 Bft) 100,00 %
21.06.2018 12:51 29,3 C 25,6 C 47 % 1011,1 hPa 0,0 l/m 5,5 km/h (1 Bft) W-SW 245 1 min 0,000 mm 6,9 UV-I 912 W/m 16,8 C 29,3 C 9,7 km/h (2 Bft) 91,30 %
21.06.2018 12:52 29,2 C 25,6 C 48 % 1011,1 hPa 0,0 l/m 11,7 km/h (2 Bft) W-SW 249 1 min 0,000 mm 6,8 UV-I 908 W/m 17,0 C 28,6 C 16,1 km/h (3 Bft) 100,00 %
21.06.2018 12:53 29,2 C 25,6 C 48 % 1011,1 hPa 0,0 l/m 14,3 km/h (3 Bft) W 277 1 min 0,000 mm 6,7 UV-I 904 W/m 17,0 C 28,4 C 17,7 km/h (3 Bft) 95,65 %
21.06.2018 12:54 29,1 C 25,6 C 47 % 1011,1 hPa 0,0 l/m 17,4 km/h (3 Bft) W 262 1 min 0,000 mm 6,8 UV-I 913 W/m 16,6 C 28,1 C 24,1 km/h (4 Bft) 100,00 %
21.06.2018 12:55 28,9 C 25,6 C 47 % 1011,1 hPa 0,0 l/m 7,4 km/h (2 Bft) W 263 1 min 0,000 mm 6,7 UV-I 914 W/m 16,4 C 28,8 C 16,1 km/h (3 Bft) 96,15 %
21.06.2018 12:56 28,7 C 25,6 C 48 % 1011,1 hPa 0,0 l/m 7,8 km/h (2 Bft) S 174 1 min 0,000 mm 6,7 UV-I 915 W/m 16,6 C 28,5 C 11,3 km/h (2 Bft) 100,00 %
21.06.2018 12:57 28,7 C 25,6 C 49 % 1011,1 hPa 0,0 l/m 12,1 km/h (2 Bft) W 266 1 min 0,000 mm 6,8 UV-I 927 W/m 16,9 C 28,0 C 20,9 km/h (4 Bft) 95,65 %
21.06.2018 12:58 28,8 C 25,6 C 48 % 1011,1 hPa 0,0 l/m 9,5 km/h (2 Bft) W 259 1 min 0,000 mm 7,0 UV-I 934 W/m 16,7 C 28,4 C 12,9 km/h (3 Bft) 91,67 %
21.06.2018 12:59 28,9 C 25,6 C 50 % 1011,1 hPa 0,0 l/m 12,8 km/h (3 Bft) SW 235 1 min 0,000 mm 7,1 UV-I 943 W/m 17,4 C 28,2 C 20,9 km/h (4 Bft) 100,00 %
21.06.2018 13:00 29,1 C 25,6 C 47 % 1011,1 hPa 0,0 l/m 14,7 km/h (3 Bft) W-SW 242 1 min 0,000 mm 6,9 UV-I 942 W/m 16,6 C 28,3 C 20,9 km/h (4 Bft) 95,83 %
21.06.2018 13:02 28,9 C 26,1 C 46 % 1011,0 hPa 0,0 l/m 10,0 km/h (2 Bft) S-SW 210 2 min 0,635 mm 6,6 UV-I 911 W/m 16,1 C 28,5 C 17,7 km/h (3 Bft) 95,74 %
21.06.2018 13:03 28,8 C 26,1 C 48 % 1011,0 hPa 0,0 l/m 8,7 km/h (2 Bft) W 267 1 min 0,000 mm 5,7 UV-I 882 W/m 16,7 C 28,5 C 16,1 km/h (3 Bft) 100,00 %
21.06.2018 13:04 28,9 C 26,1 C 48 % 1011,0 hPa 0,0 l/m 13,9 km/h (3 Bft) W-SW 239 1 min 0,000 mm 6,6 UV-I 882 W/m 16,8 C 28,1 C 16,1 km/h (3 Bft) 95,83 %
21.06.2018 13:05 28,8 C 26,1 C 48 % 1011,0 hPa 0,0 l/m 14,5 km/h (3 Bft) W-SW 251 1 min 0,000 mm 6,7 UV-I 908 W/m 16,7 C 28,0 C 24,1 km/h (4 Bft) 100,00 %
21.06.2018 13:06 28,9 C 26,1 C 49 % 1011,0 hPa 0,0 l/m 11,3 km/h (2 Bft) S 190 1 min 0,000 mm 6,8 UV-I 921 W/m 17,1 C 28,3 C 14,5 km/h (3 Bft) 95,83 %
21.06.2018 13:08 28,9 C 26,1 C 47 % 1011,0 hPa 0,0 l/m 8,8 km/h (2 Bft) SW 234 2 min 0,000 mm 6,8 UV-I 915 W/m 16,4 C 28,6 C 16,1 km/h (3 Bft) 95,74 %
21.06.2018 13:09 29,0 C 26,1 C 48 % 1011,0 hPa 0,0 l/m 12,6 km/h (3 Bft) SW 235 1 min 0,000 mm 6,8 UV-I 916 W/m 16,9 C 28,3 C 17,7 km/h (3 Bft) 95,65 %
21.06.2018 13:10 29,1 C 26,1 C 47 % 1010,9 hPa 0,0 l/m 10,9 km/h (2 Bft) SW 222 1 min 0,000 mm 6,9 UV-I 915 W/m 16,6 C 28,6 C 12,9 km/h (3 Bft) 100,00 %
21.06.2018 13:11 29,1 C 26,1 C 47 % 1010,9 hPa 0,0 l/m 11,1 km/h (2 Bft) W-SW 249 1 min 0,000 mm 6,9 UV-I 912 W/m 16,6 C 28,6 C 14,5 km/h (3 Bft) 95,65 %
21.06.2018 13:12 29,1 C 26,1 C 48 % 1010,9 hPa 0,0 l/m 11,0 km/h (2 Bft) W-SW 243 1 min 0,000 mm 6,9 UV-I 912 W/m 16,9 C 28,6 C 17,7 km/h (3 Bft) 97,70 %
21.06.2018 13:13 29,3 C 26,1 C 46 % 1010,9 hPa 0,0 l/m 15,5 km/h (3 Bft) W 281 1 min 0,000 mm 6,8 UV-I 909 W/m 16,5 C 28,5 C 22,5 km/h (4 Bft) 97,44 %
21.06.2018 13:14 29,3 C 26,1 C 46 % 1010,9 hPa 0,0 l/m 11,7 km/h (2 Bft) W 260 1 min 0,000 mm 6,8 UV-I 906 W/m 16,5 C 28,8 C 17,7 km/h (3 Bft) 100,00 %
21.06.2018 13:15 29,2 C 26,1 C 43 % 1010,9 hPa 0,0 l/m 8,5 km/h (2 Bft) W-NW 290 1 min 0,000 mm 6,9 UV-I 909 W/m 15,3 C 29,0 C 16,1 km/h (3 Bft) 100,00 %
21.06.2018 13:16 29,2 C 26,1 C 44 % 1010,9 hPa 0,0 l/m 6,1 km/h (2 Bft) W-NW 282 1 min 0,000 mm 6,9 UV-I 915 W/m 15,7 C 29,2 C 11,3 km/h (2 Bft) 100,00 %
21.06.2018 13:18 29,3 C 26,1 C 45 % 1010,9 hPa 0,0 l/m 10,1 km/h (2 Bft) W 262 2 min 0,000 mm 6,9 UV-I 909 W/m 16,1 C 28,9 C 14,5 km/h (3 Bft) 100,00 %
21.06.2018 13:19 29,4 C 26,1 C 45 % 1010,9 hPa 0,0 l/m 14,8 km/h (3 Bft) W-SW 242 1 min 0,000 mm 6,7 UV-I 893 W/m 16,2 C 28,7 C 19,3 km/h (3 Bft) 100,00 %
21.06.2018 13:20 29,5 C 26,1 C 43 % 1010,8 hPa 0,0 l/m 10,5 km/h (2 Bft) W-SW 248 1 min 0,000 mm 6,9 UV-I 903 W/m 15,6 C 29,1 C 12,9 km/h (3 Bft) 100,00 %
21.06.2018 13:21 29,4 C 26,1 C 44 % 1010,8 hPa 0,0 l/m 7,2 km/h (2 Bft) W-NW 288 1 min 0,000 mm 6,7 UV-I 905 W/m 15,8 C 29,3 C 12,9 km/h (3 Bft) 100,00 %
21.06.2018 13:22 29,4 C 26,1 C 43 % 1010,7 hPa 0,0 l/m 11,7 km/h (2 Bft) SW 235 1 min 0,000 mm 6,9 UV-I 913 W/m 15,5 C 28,9 C 17,7 km/h (3 Bft) 100,00 %
21.06.2018 13:23 29,4 C 26,1 C 45 % 1010,8 hPa 0,0 l/m 11,5 km/h (2 Bft) SW 234 1 min 0,000 mm 6,9 UV-I 911 W/m 16,2 C 28,9 C 17,7 km/h (3 Bft) 100,00 %
21.06.2018 13:24 29,4 C 26,1 C 45 % 1010,7 hPa 0,0 l/m 9,6 km/h (2 Bft) W 269 1 min 0,000 mm 6,8 UV-I 903 W/m 16,2 C 29,1 C 14,5 km/h (3 Bft) 100,00 %
21.06.2018 13:25 29,6 C 26,1 C 44 % 1010,7 hPa 0,0 l/m 6,5 km/h (2 Bft) W-SW 257 1 min 0,000 mm 6,8 UV-I 902 W/m 16,0 C 29,6 C 8,0 km/h (2 Bft) 100,00 %
21.06.2018 13:26 29,7 C 26,1 C 45 % 1010,7 hPa 0,0 l/m 11,5 km/h (2 Bft) W-SW 242 1 min 0,000 mm 6,8 UV-I 906 W/m 16,5 C 29,2 C 16,1 km/h (3 Bft) 91,30 %
21.06.2018 13:27 29,8 C 26,1 C 42 % 1010,6 hPa 0,0 l/m 9,3 km/h (2 Bft) W-SW 252 1 min 0,000 mm 6,7 UV-I 910 W/m 15,5 C 29,5 C 14,5 km/h (3 Bft) 100,00 %
21.06.2018 13:28 29,7 C 26,1 C 42 % 1010,6 hPa 0,0 l/m 9,9 km/h (2 Bft) SW 215 1 min 0,000 mm 6,6 UV-I 914 W/m 15,4 C 29,4 C 14,5 km/h (3 Bft) 100,00 %
21.06.2018 13:29 29,7 C 26,1 C 42 % 1010,6 hPa 0,0 l/m 9,6 km/h (2 Bft) SW 232 1 min 0,000 mm 6,6 UV-I 914 W/m 15,4 C 29,4 C 12,9 km/h (3 Bft) 95,83 %
21.06.2018 13:30 29,8 C 26,1 C 44 % 1010,6 hPa 0,0 l/m 14,0 km/h (3 Bft) W-SW 257 1 min 0,000 mm 6,8 UV-I 924 W/m 16,2 C 29,2 C 19,3 km/h (3 Bft) 100,00 %
21.06.2018 13:31 30,0 C 26,1 C 43 % 1010,7 hPa 0,0 l/m 17,8 km/h (3 Bft) W 267 1 min 0,000 mm 6,9 UV-I 931 W/m 16,0 C 29,2 C 22,5 km/h (4 Bft) 100,00 %
21.06.2018 13:32 30,1 C 26,1 C 43 % 1010,6 hPa 0,0 l/m 21,2 km/h (4 Bft) SW 235 1 min 0,000 mm 6,9 UV-I 928 W/m 16,1 C 29,2 C 27,4 km/h (4 Bft) 100,00 %
21.06.2018 13:33 29,9 C 26,1 C 41 % 1010,6 hPa 0,0 l/m 13,7 km/h (3 Bft) W 259 1 min 0,000 mm 6,9 UV-I 929 W/m 15,2 C 29,3 C 24,1 km/h (4 Bft) 100,00 %
21.06.2018 13:34 29,9 C 26,1 C 42 % 1010,6 hPa 0,0 l/m 9,1 km/h (2 Bft) W-SW 254 1 min 0,000 mm 6,8 UV-I 926 W/m 15,6 C 29,6 C 14,5 km/h (3 Bft) 100,00 %
21.06.2018 13:35 30,0 C 26,1 C 41 % 1010,6 hPa 0,0 l/m 12,1 km/h (2 Bft) SW 229 1 min 0,000 mm 6,7 UV-I 912 W/m 15,3 C 29,5 C 19,3 km/h (3 Bft) 100,00 %
21.06.2018 13:36 30,1 C 26,1 C 42 % 1010,6 hPa 0,0 l/m 11,4 km/h (2 Bft) SW 220 1 min 0,000 mm 6,8 UV-I 913 W/m 15,7 C 29,7 C 14,5 km/h (3 Bft) 100,00 %
21.06.2018 13:37 30,2 C 26,1 C 41 % 1010,6 hPa 0,0 l/m 13,9 km/h (3 Bft) W-NW 284 1 min 0,000 mm 6,6 UV-I 898 W/m 15,5 C 29,7 C 17,7 km/h (3 Bft) 97,77 %
21.06.2018 13:38 30,3 C 26,1 C 41 % 1010,6 hPa 0,0 l/m 12,9 km/h (3 Bft) SW 217 1 min 0,000 mm 6,8 UV-I 910 W/m 15,6 C 29,8 C 17,7 km/h (3 Bft) 100,00 %
21.06.2018 13:39 30,4 C 26,1 C 41 % 1010,6 hPa 0,0 l/m 11,1 km/h (2 Bft) S-SW 200 1 min 0,000 mm 6,8 UV-I 913 W/m 15,6 C 30,1 C 14,5 km/h (3 Bft) 100,00 %
21.06.2018 13:40 30,3 C 26,1 C 39 % 1010,5 hPa 0,0 l/m 9,3 km/h (2 Bft) W-SW 248 1 min 0,000 mm 6,8 UV-I 917 W/m 14,8 C 30,1 C 12,9 km/h (3 Bft) 100,00 %
21.06.2018 13:41 30,1 C 26,1 C 40 % 1010,5 hPa 0,0 l/m 8,7 km/h (2 Bft) W 266 1 min 0,000 mm 6,9 UV-I 924 W/m 15,0 C 29,9 C 11,3 km/h (2 Bft) 100,00 %
21.06.2018 13:42 30,1 C 26,1 C 39 % 1010,5 hPa 0,0 l/m 5,6 km/h (1 Bft) W-SW 249 1 min 0,000 mm 6,8 UV-I 928 W/m 14,6 C 30,1 C 14,5 km/h (3 Bft) 100,00 %
21.06.2018 13:43 30,0 C 26,1 C 40 % 1010,5 hPa 0,0 l/m 15,3 km/h (3 Bft) W-SW 254 1 min 0,000 mm 6,8 UV-I 929 W/m 14,9 C 29,3 C 19,3 km/h (3 Bft) 95,65 %
21.06.2018 13:44 30,0 C 26,1 C 40 % 1010,5 hPa 0,0 l/m 13,8 km/h (3 Bft) W-SW 237 1 min 0,000 mm 6,6 UV-I 923 W/m 14,9 C 29,4 C 19,3 km/h (3 Bft) 100,00 %
21.06.2018 13:45 30,1 C 26,1 C 41 % 1010,4 hPa 0,0 l/m 13,7 km/h (3 Bft) SW 232 1 min 0,000 mm 6,6 UV-I 929 W/m 15,4 C 29,6 C 17,7 km/h (3 Bft) 95,65 %
21.06.2018 13:46 30,2 C 26,1 C 41 % 1010,4 hPa 0,0 l/m 12,9 km/h (3 Bft) S 185 1 min 0,000 mm 6,8 UV-I 939 W/m 15,5 C 29,7 C 17,7 km/h (3 Bft) 100,00 %
21.06.2018 13:47 30,3 C 26,1 C 39 % 1010,4 hPa 0,0 l/m 17,4 km/h (3 Bft) W-SW 242 1 min 0,000 mm 6,8 UV-I 954 W/m 14,8 C 29,6 C 24,1 km/h (4 Bft) 100,00 %
21.06.2018 13:48 30,4 C 26,1 C 39 % 1010,3 hPa 0,0 l/m 18,6 km/h (3 Bft) SW 229 1 min 0,000 mm 6,8 UV-I 968 W/m 14,9 C 29,7 C 30,6 km/h (5 Bft) 100,00 %
21.06.2018 13:49 30,3 C 26,1 C 38 % 1010,4 hPa 0,0 l/m 11,9 km/h (2 Bft) W-SW 244 1 min 0,000 mm 4,9 UV-I 969 W/m 14,4 C 29,9 C 19,3 km/h (3 Bft) 100,00 %
21.06.2018 13:50 30,2 C 26,1 C 39 % 1010,4 hPa 0,0 l/m 18,0 km/h (3 Bft) W-SW 242 1 min 0,000 mm 6,8 UV-I 976 W/m 14,7 C 29,5 C 22,5 km/h (4 Bft) 100,00 %
21.06.2018 13:51 30,2 C 26,1 C 40 % 1010,3 hPa 0,0 l/m 9,9 km/h (2 Bft) SW 224 1 min 0,000 mm 6,9 UV-I 982 W/m 15,1 C 29,9 C 16,1 km/h (3 Bft) 100,00 %
21.06.2018 13:53 30,4 C 26,1 C 40 % 1010,3 hPa 0,0 l/m 6,6 km/h (2 Bft) W-SW 245 2 min 0,000 mm 6,8 UV-I 980 W/m 15,3 C 30,4 C 16,1 km/h (3 Bft) 97,87 %
21.06.2018 13:54 30,5 C 26,1 C 40 % 1010,3 hPa 0,0 l/m 12,2 km/h (2 Bft) SW 219 1 min 0,000 mm 6,7 UV-I 984 W/m 15,3 C 30,1 C 16,1 km/h (3 Bft) 95,65 %
21.06.2018 13:55 30,6 C 26,1 C 42 % 1010,3 hPa 0,0 l/m 8,3 km/h (2 Bft) W 274 1 min 0,000 mm 6,6 UV-I 961 W/m 16,2 C 30,5 C 12,9 km/h (3 Bft) 100,00 %
21.06.2018 13:56 30,6 C 26,1 C 40 % 1010,3 hPa 0,0 l/m 6,9 km/h (2 Bft) W-NW 298 1 min 0,000 mm 6,6 UV-I 945 W/m 15,4 C 30,6 C 12,9 km/h (3 Bft) 95,65 %
21.06.2018 13:57 30,4 C 26,1 C 41 % 1010,4 hPa 0,0 l/m 9,7 km/h (2 Bft) N-NW 343 1 min 0,000 mm 5,5 UV-I 947 W/m 15,6 C 30,1 C 16,1 km/h (3 Bft) 95,83 %
21.06.2018 13:58 30,3 C 26,1 C 41 % 1010,3 hPa 0,0 l/m 7,6 km/h (2 Bft) W-SW 248 0 min 0,000 mm 3,5 UV-I 390 W/m 15,6 C 30,2 C 12,9 km/h (3 Bft) 100,00 %
21.06.2018 13:59 30,2 C 26,1 C 43 % 1010,3 hPa 0,0 l/m 5,6 km/h (1 Bft) N-NO 26 0 min 0,000 mm 4,5 UV-I 160 W/m 16,2 C 30,2 C 9,7 km/h (2 Bft) 95,83 %
21.06.2018 14:00 30,1 C 26,1 C 42 % 1010,3 hPa 0,0 l/m 5,4 km/h (1 Bft) W 263 0 min 0,686 mm 4,2 UV-I 160 W/m 15,7 C 30,1 C 8,0 km/h (2 Bft) 100,00 %
21.06.2018 14:02 29,8 C 26,1 C 43 % 1010,3 hPa 0,0 l/m 9,6 km/h (2 Bft) NW 306 0 min 0,000 mm 4,8 UV-I 342 W/m 15,8 C 29,5 C 17,7 km/h (3 Bft) 97,87 %
21.06.2018 14:03 29,8 C 26,1 C 43 % 1010,3 hPa 0,0 l/m 7,6 km/h (2 Bft) W-SW 244 1 min 0,000 mm 6,7 UV-I 943 W/m 15,8 C 29,7 C 12,9 km/h (3 Bft) 95,83 %
21.06.2018 14:04 29,9 C 26,1 C 42 % 1010,3 hPa 0,0 l/m 6,2 km/h (2 Bft) W-NW 282 1 min 0,000 mm 6,3 UV-I 937 W/m 15,6 C 29,9 C 16,1 km/h (3 Bft) 100,00 %
21.06.2018 14:05 29,9 C 26,1 C 43 % 1010,2 hPa 0,0 l/m 5,0 km/h (1 Bft) W 271 1 min 0,000 mm 6,4 UV-I 919 W/m 15,9 C 29,9 C 9,7 km/h (2 Bft) 94,44 %
21.06.2018 14:06 30,1 C 26,1 C 42 % 1010,2 hPa 0,0 l/m 10,5 km/h (2 Bft) W 277 1 min 0,000 mm 6,6 UV-I 843 W/m 15,7 C 29,8 C 17,7 km/h (3 Bft) 97,50 %
21.06.2018 14:07 30,2 C 26,1 C 42 % 1010,2 hPa 0,0 l/m 6,2 km/h (2 Bft) NW 316 1 min 0,000 mm 6,6 UV-I 911 W/m 15,8 C 30,2 C 11,3 km/h (2 Bft) 100,00 %
21.06.2018 14:08 30,2 C 26,1 C 41 % 1010,2 hPa 0,0 l/m 2,1 km/h (1 Bft) NW 309 1 min 0,000 mm 6,5 UV-I 903 W/m 15,5 C 30,2 C 3,2 km/h (1 Bft) 95,83 %
21.06.2018 14:09 30,3 C 26,1 C 42 % 1010,2 hPa 0,0 l/m 6,4 km/h (2 Bft) W-SW 239 1 min 0,000 mm 6,4 UV-I 893 W/m 15,9 C 30,3 C 9,7 km/h (2 Bft) 95,65 %
21.06.2018 14:10 30,4 C 26,1 C 41 % 1010,2 hPa 0,0 l/m 7,6 km/h (2 Bft) S-SO 166 1 min 0,000 mm 6,5 UV-I 888 W/m 15,6 C 30,3 C 12,9 km/h (3 Bft) 95,83 %
21.06.2018 14:11 30,3 C 26,1 C 39 % 1010,1 hPa 0,0 l/m 4,2 km/h (1 Bft) S 181 1 min 0,000 mm 6,5 UV-I 880 W/m 14,8 C 30,3 C 8,0 km/h (2 Bft) 100,00 %
21.06.2018 14:12 30,3 C 26,1 C 41 % 1010,1 hPa 0,0 l/m 8,7 km/h (2 Bft) W 269 1 min 0,000 mm 6,5 UV-I 882 W/m 15,6 C 30,1 C 14,5 km/h (3 Bft) 95,83 %
21.06.2018 14:13 30,4 C 26,1 C 40 % 1010,1 hPa 0,0 l/m 9,9 km/h (2 Bft) W 268 1 min 0,000 mm 6,4 UV-I 880 W/m 15,3 C 30,1 C 12,9 km/h (3 Bft) 100,00 %
21.06.2018 14:14 30,5 C 26,1 C 39 % 1010,1 hPa 0,0 l/m 5,8 km/h (2 Bft) W-SW 245 1 min 0,000 mm 6,2 UV-I 896 W/m 15,0 C 30,5 C 9,7 km/h (2 Bft) 95,83 %
21.06.2018 14:15 30,5 C 26,1 C 40 % 1010,1 hPa 0,0 l/m 4,9 km/h (1 Bft) W 262 1 min 0,000 mm 6,3 UV-I 910 W/m 15,3 C 30,5 C 9,7 km/h (2 Bft) 95,65 %
21.06.2018 14:16 30,6 C 26,1 C 41 % 1010,0 hPa 0,0 l/m 7,6 km/h (2 Bft) W 278 1 min 0,000 mm 6,3 UV-I 914 W/m 15,8 C 30,5 C 12,9 km/h (3 Bft) 96,30 %
21.06.2018 14:17 30,6 C 26,1 C 40 % 1010,0 hPa 0,0 l/m 7,6 km/h (2 Bft) W 269 1 min 0,000 mm 6,3 UV-I 904 W/m 15,4 C 30,5 C 11,3 km/h (2 Bft) 95,65 %
21.06.2018 14:18 30,6 C 26,1 C 43 % 1010,0 hPa 0,0 l/m 6,0 km/h (2 Bft) SW 229 1 min 0,000 mm 6,4 UV-I 895 W/m 16,6 C 30,6 C 9,7 km/h (2 Bft) 96,30 %
21.06.2018 14:19 30,7 C 26,1 C 41 % 1010,0 hPa 0,0 l/m 3,1 km/h (1 Bft) N-NW 329 1 min 0,000 mm 6,4 UV-I 891 W/m 15,9 C 30,7 C 4,8 km/h (1 Bft) 91,30 %
21.06.2018 14:20 30,8 C 26,1 C 41 % 1010,0 hPa 0,0 l/m 5,8 km/h (2 Bft) NW 324 1 min 0,000 mm 6,4 UV-I 879 W/m 16,0 C 30,8 C 9,7 km/h (2 Bft) 100,00 %
21.06.2018 14:21 30,7 C 26,1 C 38 % 1010,0 hPa 0,0 l/m 8,1 km/h (2 Bft) N 360 1 min 0,000 mm 6,3 UV-I 866 W/m 14,7 C 30,6 C 12,9 km/h (3 Bft) 95,65 %
21.06.2018 14:22 30,7 C 26,1 C 39 % 1010,0 hPa 0,0 l/m 7,0 km/h (2 Bft) W 269 1 min 0,000 mm 6,3 UV-I 864 W/m 15,1 C 30,7 C 12,9 km/h (3 Bft) 100,00 %
21.06.2018 14:23 30,7 C 26,1 C 40 % 1010,0 hPa 0,0 l/m 4,8 km/h (1 Bft) W-SW 250 1 min 0,000 mm 6,4 UV-I 868 W/m 15,5 C 30,7 C 8,0 km/h (2 Bft) 95,65 %
21.06.2018 14:24 30,7 C 26,1 C 39 % 1010,0 hPa 0,0 l/m 8,5 km/h (2 Bft) W 265 1 min 0,000 mm 6,3 UV-I 868 W/m 15,1 C 30,6 C 12,9 km/h (3 Bft) 95,83 %
21.06.2018 14:25 30,7 C 26,1 C 36 % 1010,0 hPa 0,0 l/m 8,0 km/h (2 Bft) W-SW 244 1 min 0,000 mm 6,3 UV-I 844 W/m 13,9 C 30,6 C 11,3 km/h (2 Bft) 95,65 %
21.06.2018 14:26 30,6 C 26,1 C 37 % 1010,0 hPa 0,0 l/m 6,7 km/h (2 Bft) W-SW 240 1 min 0,000 mm 6,3 UV-I 792 W/m 14,2 C 30,6 C 11,3 km/h (2 Bft) 95,83 %
21.06.2018 14:27 30,5 C 26,1 C 36 % 1010,0 hPa 0,0 l/m 7,7 km/h (2 Bft) S-SW 199 1 min 0,000 mm 6,2 UV-I 828 W/m 13,7 C 30,4 C 14,5 km/h (3 Bft) 100,00 %
21.06.2018 14:28 30,5 C 26,1 C 38 % 1010,0 hPa 0,0 l/m 10,1 km/h (2 Bft) S-SW 200 1 min 0,000 mm 6,1 UV-I 843 W/m 14,5 C 30,2 C 14,5 km/h (3 Bft) 95,65 %
21.06.2018 14:29 30,6 C 26,1 C 40 % 1009,9 hPa 0,0 l/m 8,8 km/h (2 Bft) SW 227 1 min 0,000 mm 6,1 UV-I 848 W/m 15,4 C 30,4 C 12,9 km/h (3 Bft) 100,00 %
21.06.2018 14:30 30,7 C 26,1 C 39 % 1009,9 hPa 0,0 l/m 14,7 km/h (3 Bft) S-SW 195 1 min 0,000 mm 6,1 UV-I 843 W/m 15,1 C 30,2 C 19,3 km/h (3 Bft) 95,65 %
21.06.2018 14:31 30,7 C 26,1 C 39 % 1009,9 hPa 0,0 l/m 12,1 km/h (2 Bft) SW 217 1 min 0,000 mm 6,1 UV-I 840 W/m 15,1 C 30,3 C 22,5 km/h (4 Bft) 100,00 %
21.06.2018 14:32 30,6 C 26,1 C 38 % 1009,9 hPa 0,0 l/m 8,4 km/h (2 Bft) W-SW 254 1 min 0,000 mm 6,1 UV-I 842 W/m 14,6 C 30,5 C 14,5 km/h (3 Bft) 100,00 %
21.06.2018 14:33 30,6 C 26,1 C 36 % 1009,9 hPa 0,0 l/m 8,4 km/h (2 Bft) W-SW 244 1 min 0,000 mm 6,1 UV-I 841 W/m 13,8 C 30,5 C 12,9 km/h (3 Bft) 95,83 %
21.06.2018 14:34 30,4 C 26,1 C 37 % 1009,9 hPa 0,0 l/m 5,9 km/h (2 Bft) W-SW 246 1 min 0,000 mm 6,1 UV-I 842 W/m 14,0 C 30,4 C 8,0 km/h (2 Bft) 100,00 %
21.06.2018 14:35 30,3 C 26,1 C 36 % 1009,9 hPa 0,0 l/m 5,7 km/h (1 Bft) SW 234 1 min 0,000 mm 6,0 UV-I 838 W/m 13,5 C 30,3 C 6,4 km/h (2 Bft) 100,00 %
21.06.2018 14:36 30,2 C 26,1 C 37 % 1009,9 hPa 0,0 l/m 5,2 km/h (1 Bft) SW 227 1 min 0,000 mm 6,0 UV-I 837 W/m 13,9 C 30,2 C 8,0 km/h (2 Bft) 100,00 %
21.06.2018 14:37 30,2 C 26,1 C 39 % 1009,9 hPa 0,0 l/m 4,7 km/h (1 Bft) S-SW 212 1 min 0,000 mm 6,0 UV-I 836 W/m 14,7 C 30,2 C 8,0 km/h (2 Bft) 100,00 %
21.06.2018 14:38 30,1 C 26,1 C 37 % 1009,9 hPa 0,0 l/m 1,5 km/h (1 Bft) S-SW 212 1 min 0,000 mm 6,0 UV-I 834 W/m 13,8 C 30,1 C 3,2 km/h (1 Bft) 100,00 %
21.06.2018 14:39 29,9 C 26,1 C 40 % 1009,8 hPa 0,0 l/m 1,1 km/h (1 Bft) SW 215 1 min 0,000 mm 6,0 UV-I 836 W/m 14,8 C 29,9 C 1,6 km/h (1 Bft) 95,83 %
21.06.2018 14:40 29,9 C 26,1 C 40 % 1009,8 hPa 0,0 l/m 4,0 km/h (1 Bft) W 269 1 min 0,000 mm 5,9 UV-I 831 W/m 14,8 C 29,9 C 9,7 km/h (2 Bft) 100,00 %
21.06.2018 14:41 30,0 C 26,1 C 41 % 1009,9 hPa 0,0 l/m 7,0 km/h (2 Bft) NW 313 1 min 0,000 mm 5,7 UV-I 823 W/m 15,3 C 29,9 C 9,7 km/h (2 Bft) 100,00 %
21.06.2018 14:42 30,1 C 26,7 C 39 % 1009,8 hPa 0,0 l/m 4,8 km/h (1 Bft) W-SW 257 1 min 0,000 mm 5,8 UV-I 824 W/m 14,6 C 30,1 C 12,9 km/h (3 Bft) 100,00 %
21.06.2018 14:43 30,2 C 26,1 C 40 % 1009,9 hPa 0,0 l/m 9,4 km/h (2 Bft) NW 305 1 min 0,000 mm 5,8 UV-I 826 W/m 15,1 C 30,0 C 17,7 km/h (3 Bft) 100,00 %
21.06.2018 14:44 30,3 C 26,7 C 40 % 1009,9 hPa 0,0 l/m 6,5 km/h (2 Bft) NW 306 1 min 0,000 mm 5,7 UV-I 819 W/m 15,2 C 30,3 C 11,3 km/h (2 Bft) 100,00 %
21.06.2018 14:45 30,4 C 26,7 C 40 % 1009,8 hPa 0,0 l/m 6,8 km/h (2 Bft) W-NW 295 1 min 0,000 mm 5,7 UV-I 831 W/m 15,3 C 30,4 C 12,9 km/h (3 Bft) 100,00 %
21.06.2018 14:46 30,3 C 26,7 C 39 % 1009,8 hPa 0,0 l/m 3,8 km/h (1 Bft) N-NO 27 1 min 0,000 mm 5,8 UV-I 838 W/m 14,8 C 30,3 C 6,4 km/h (2 Bft) 100,00 %
21.06.2018 14:47 30,4 C 26,7 C 39 % 1009,8 hPa 0,0 l/m 4,3 km/h (1 Bft) S-SW 207 1 min 0,000 mm 5,8 UV-I 842 W/m 14,9 C 30,4 C 8,0 km/h (2 Bft) 100,00 %
21.06.2018 14:48 30,5 C 26,7 C 41 % 1009,7 hPa 0,0 l/m 6,6 km/h (2 Bft) W-SW 238 1 min 0,000 mm 5,9 UV-I 849 W/m 15,7 C 30,5 C 8,0 km/h (2 Bft) 100,00 %
21.06.2018 14:49 30,6 C 26,7 C 39 % 1009,7 hPa 0,0 l/m 8,0 km/h (2 Bft) N-NO 24 1 min 0,000 mm 5,8 UV-I 856 W/m 15,0 C 30,5 C 14,5 km/h (3 Bft) 100,00 %
21.06.2018 14:50 30,7 C 26,7 C 41 % 1009,7 hPa 0,0 l/m 2,7 km/h (1 Bft) O-NO 67 1 min 0,000 mm 5,8 UV-I 858 W/m 15,9 C 30,7 C 4,8 km/h (1 Bft) 96,30 %
21.06.2018 14:51 30,8 C 26,7 C 39 % 1009,5 hPa 0,0 l/m 3,4 km/h (1 Bft) SW 236 1 min 0,000 mm 5,4 UV-I 856 W/m 15,2 C 30,8 C 6,4 km/h (2 Bft) 100,00 %
21.06.2018 14:52 30,8 C 26,7 C 38 % 1009,6 hPa 0,0 l/m 14,8 km/h (3 Bft) W-NW 286 1 min 0,000 mm 5,2 UV-I 856 W/m 14,8 C 30,3 C 19,3 km/h (3 Bft) 100,00 %
21.06.2018 14:53 30,8 C 26,7 C 39 % 1009,6 hPa 0,0 l/m 9,8 km/h (2 Bft) W 262 1 min 0,000 mm 5,6 UV-I 859 W/m 15,2 C 30,6 C 12,9 km/h (3 Bft) 100,00 %
21.06.2018 14:54 30,8 C 26,7 C 39 % 1009,6 hPa 0,0 l/m 10,2 km/h (2 Bft) W-SW 258 1 min 0,000 mm 5,7 UV-I 874 W/m 15,2 C 30,6 C 16,1 km/h (3 Bft) 100,00 %
21.06.2018 14:55 30,9 C 26,7 C 39 % 1009,5 hPa 0,0 l/m 5,2 km/h (1 Bft) W-NW 290 1 min 0,000 mm 5,8 UV-I 876 W/m 15,3 C 30,9 C 11,3 km/h (2 Bft) 100,00 %
21.06.2018 14:56 30,9 C 26,7 C 37 % 1009,5 hPa 0,0 l/m 10,3 km/h (2 Bft) W 281 1 min 0,000 mm 5,9 UV-I 869 W/m 14,5 C 30,7 C 14,5 km/h (3 Bft) 91,67 %
21.06.2018 14:57 30,8 C 26,7 C 37 % 1009,5 hPa 0,0 l/m 8,6 km/h (2 Bft) NW 318 1 min 0,000 mm 5,8 UV-I 861 W/m 14,4 C 30,7 C 12,9 km/h (3 Bft) 100,00 %
21.06.2018 14:58 30,7 C 26,7 C 37 % 1009,5 hPa 0,0 l/m 3,3 km/h (1 Bft) W 265 1 min 0,000 mm 5,8 UV-I 855 W/m 14,3 C 30,7 C 6,4 km/h (2 Bft) 100,00 %
21.06.2018 14:59 30,5 C 26,7 C 37 % 1009,5 hPa 0,0 l/m 3,2 km/h (1 Bft) N-NO 18 1 min 0,000 mm 5,8 UV-I 858 W/m 14,1 C 30,5 C 6,4 km/h (2 Bft) 100,00 %
21.06.2018 15:00 30,4 C 26,7 C 38 % 1009,4 hPa 0,0 l/m 5,5 km/h (1 Bft) SW 224 1 min 0,635 mm 3,9 UV-I 858 W/m 14,5 C 30,4 C 9,7 km/h (2 Bft) 100,00 %
21.06.2018 15:02 30,3 C 26,7 C 38 % 1009,4 hPa 0,0 l/m 8,2 km/h (2 Bft) NW 322 2 min 0,000 mm 4,0 UV-I 858 W/m 14,4 C 30,1 C 20,9 km/h (4 Bft) 97,87 %
21.06.2018 15:03 30,2 C 26,7 C 38 % 1009,5 hPa 0,0 l/m 12,2 km/h (2 Bft) W-NW 303 1 min 0,000 mm 3,9 UV-I 858 W/m 14,3 C 29,8 C 16,1 km/h (3 Bft) 100,00 %
21.06.2018 15:04 30,2 C 26,7 C 39 % 1009,5 hPa 0,0 l/m 7,0 km/h (2 Bft) W 259 1 min 0,000 mm 5,5 UV-I 858 W/m 14,7 C 30,1 C 11,3 km/h (2 Bft) 100,00 %
21.06.2018 15:05 30,3 C 26,7 C 39 % 1009,5 hPa 0,0 l/m 14,6 km/h (3 Bft) W-SW 242 1 min 0,000 mm 5,6 UV-I 870 W/m 14,8 C 29,7 C 24,1 km/h (4 Bft) 100,00 %
21.06.2018 15:06 30,4 C 26,7 C 38 % 1009,5 hPa 0,0 l/m 10,0 km/h (2 Bft) W 263 1 min 0,000 mm 5,7 UV-I 876 W/m 14,5 C 30,1 C 25,7 km/h (4 Bft) 95,65 %
21.06.2018 15:07 30,7 C 26,7 C 39 % 1009,5 hPa 0,0 l/m 9,5 km/h (2 Bft) NW 306 1 min 0,000 mm 4,9 UV-I 875 W/m 15,1 C 30,5 C 16,1 km/h (3 Bft) 100,00 %
21.06.2018 15:08 30,8 C 26,7 C 38 % 1009,5 hPa 0,0 l/m 12,3 km/h (3 Bft) W 270 1 min 0,000 mm 4,4 UV-I 875 W/m 14,8 C 30,5 C 19,3 km/h (3 Bft) 100,00 %
21.06.2018 15:09 30,8 C 26,7 C 37 % 1009,6 hPa 0,0 l/m 16,9 km/h (3 Bft) W-SW 248 1 min 0,000 mm 4,5 UV-I 875 W/m 14,4 C 30,3 C 24,1 km/h (4 Bft) 100,00 %
21.06.2018 15:10 30,8 C 26,7 C 37 % 1009,5 hPa 0,0 l/m 14,8 km/h (3 Bft) W 271 1 min 0,000 mm 5,1 UV-I 875 W/m 14,4 C 30,3 C 17,7 km/h (3 Bft) 100,00 %
21.06.2018 15:11 30,8 C 26,7 C 37 % 1009,6 hPa 0,0 l/m 16,8 km/h (3 Bft) W 271 1 min 0,000 mm 5,1 UV-I 722 W/m 14,4 C 30,3 C 24,1 km/h (4 Bft) 95,83 %
21.06.2018 15:13 30,6 C 26,7 C 37 % 1009,6 hPa 0,0 l/m 14,8 km/h (3 Bft) W-SW 246 0 min 0,000 mm 2,9 UV-I 248 W/m 14,2 C 30,1 C 27,4 km/h (4 Bft) 97,87 %
21.06.2018 15:14 30,4 C 26,7 C 38 % 1009,6 hPa 0,0 l/m 11,0 km/h (2 Bft) W-SW 247 0 min 0,000 mm 2,6 UV-I 233 W/m 14,5 C 30,1 C 16,1 km/h (3 Bft) 100,00 %
21.06.2018 15:15 30,3 C 26,7 C 38 % 1009,6 hPa 0,0 l/m 5,7 km/h (1 Bft) W-SW 248 0 min 0,000 mm 2,4 UV-I 232 W/m 14,4 C 30,3 C 12,9 km/h (3 Bft) 100,00 %
21.06.2018 15:16 30,2 C 26,7 C 38 % 1009,7 hPa 0,0 l/m 11,2 km/h (2 Bft) W 265 0 min 0,000 mm 2,2 UV-I 230 W/m 14,3 C 29,8 C 16,1 km/h (3 Bft) 100,00 %
21.06.2018 15:18 29,9 C 26,7 C 39 % 1009,8 hPa 0,0 l/m 21,3 km/h (4 Bft) W-SW 256 0 min 0,000 mm 2,2 UV-I 235 W/m 14,4 C 28,9 C 41,8 km/h (6 Bft) 100,00 %
21.06.2018 15:19 29,7 C 26,7 C 41 % 1009,8 hPa 0,0 l/m 18,8 km/h (3 Bft) W 276 0 min 0,000 mm 2,7 UV-I 251 W/m 15,0 C 28,8 C 29,0 km/h (5 Bft) 100,00 %
21.06.2018 15:20 29,5 C 26,7 C 42 % 1009,8 hPa 0,0 l/m 18,8 km/h (3 Bft) W-SW 242 0 min 0,000 mm 3,1 UV-I 251 W/m 15,2 C 28,5 C 27,4 km/h (4 Bft) 100,00 %
21.06.2018 15:21 29,3 C 26,7 C 43 % 1009,9 hPa 0,0 l/m 16,2 km/h (3 Bft) W 265 0 min 0,000 mm 3,8 UV-I 251 W/m 15,4 C 28,4 C 20,9 km/h (4 Bft) 91,67 %
21.06.2018 15:23 29,1 C 26,7 C 44 % 1009,9 hPa 0,0 l/m 22,4 km/h (4 Bft) W-NW 296 2 min 0,000 mm 3,8 UV-I 529 W/m 15,6 C 27,8 C 32,2 km/h (5 Bft) 97,87 %
21.06.2018 15:24 28,8 C 26,7 C 45 % 1009,9 hPa 0,0 l/m 13,3 km/h (3 Bft) W-SW 251 1 min 0,000 mm 2,6 UV-I 494 W/m 15,7 C 28,0 C 19,3 km/h (3 Bft) 100,00 %
21.06.2018 15:25 28,7 C 26,7 C 46 % 1010,0 hPa 0,0 l/m 20,0 km/h (4 Bft) W 280 0 min 0,000 mm 2,5 UV-I 270 W/m 15,9 C 27,4 C 29,0 km/h (5 Bft) 100,00 %
21.06.2018 15:26 28,4 C 26,7 C 46 % 1010,0 hPa 0,0 l/m 24,2 km/h (4 Bft) W 261 0 min 0,000 mm 2,7 UV-I 281 W/m 15,6 C 26,8 C 43,5 km/h (6 Bft) 100,00 %
21.06.2018 15:27 28,2 C 26,7 C 47 % 1010,0 hPa 0,0 l/m 20,3 km/h (4 Bft) W-NW 292 0 min 0,000 mm 2,6 UV-I 304 W/m 15,8 C 26,8 C 29,0 km/h (5 Bft) 95,65 %
21.06.2018 15:28 27,9 C 26,7 C 48 % 1009,9 hPa 0,0 l/m 17,4 km/h (3 Bft) W-NW 286 0 min 0,000 mm 2,5 UV-I 284 W/m 15,9 C 26,6 C 29,0 km/h (5 Bft) 91,67 %
21.06.2018 15:29 27,8 C 26,7 C 48 % 1009,9 hPa 0,0 l/m 14,8 km/h (3 Bft) W-SW 253 0 min 0,000 mm 2,2 UV-I 252 W/m 15,8 C 26,7 C 22,5 km/h (4 Bft) 95,65 %
21.06.2018 15:30 27,6 C 26,7 C 49 % 1009,9 hPa 0,0 l/m 16,8 km/h (3 Bft) W-NW 294 0 min 0,000 mm 2,1 UV-I 221 W/m 15,9 C 26,3 C 22,5 km/h (4 Bft) 95,83 %
21.06.2018 15:31 27,4 C 26,7 C 48 % 1010,0 hPa 0,0 l/m 12,7 km/h (3 Bft) SW 232 0 min 0,000 mm 2,0 UV-I 216 W/m 15,4 C 26,5 C 22,5 km/h (4 Bft) 100,00 %
21.06.2018 15:33 27,1 C 26,7 C 50 % 1009,9 hPa 0,0 l/m 12,1 km/h (2 Bft) N-NW 347 0 min 0,000 mm 1,9 UV-I 235 W/m 15,8 C 26,2 C 19,3 km/h (3 Bft) 96,61 %
21.06.2018 15:34 27,1 C 26,7 C 50 % 1009,9 hPa 0,0 l/m 12,6 km/h (3 Bft) W-NW 300 0 min 0,000 mm 2,0 UV-I 262 W/m 15,8 C 26,1 C 24,1 km/h (4 Bft) 91,67 %
21.06.2018 15:35 27,0 C 26,7 C 50 % 1010,0 hPa 0,0 l/m 16,2 km/h (3 Bft) W-SW 258 0 min 0,000 mm 2,0 UV-I 304 W/m 15,7 C 25,6 C 24,1 km/h (4 Bft) 95,83 %
21.06.2018 15:36 26,9 C 26,7 C 50 % 1010,1 hPa 0,0 l/m 13,8 km/h (3 Bft) W 271 0 min 0,000 mm 2,3 UV-I 359 W/m 15,6 C 25,7 C 22,5 km/h (4 Bft) 95,65 %
21.06.2018 15:38 26,9 C 26,7 C 50 % 1010,0 hPa 0,0 l/m 9,3 km/h (2 Bft) NW 305 2 min 0,000 mm 2,6 UV-I 444 W/m 15,6 C 26,4 C 24,1 km/h (4 Bft) 100,00 %
21.06.2018 15:39 26,8 C 26,7 C 50 % 1010,0 hPa 0,0 l/m 7,9 km/h (2 Bft) W-NW 298 1 min 0,000 mm 2,8 UV-I 603 W/m 15,5 C 26,5 C 19,3 km/h (3 Bft) 91,67 %
21.06.2018 15:40 26,8 C 26,7 C 50 % 1010,1 hPa 0,0 l/m 8,6 km/h (2 Bft) NO 55 1 min 0,000 mm 2,8 UV-I 610 W/m 15,5 C 26,4 C 14,5 km/h (3 Bft) 95,65 %
21.06.2018 15:41 26,8 C 26,7 C 50 % 1010,0 hPa 0,0 l/m 11,5 km/h (2 Bft) W 275 1 min 0,000 mm 2,2 UV-I 610 W/m 15,5 C 25,9 C 24,1 km/h (4 Bft) 95,83 %
21.06.2018 15:43 26,7 C 26,7 C 50 % 1010,0 hPa 0,0 l/m 12,0 km/h (2 Bft) W 270 0 min 0,000 mm 2,1 UV-I 375 W/m 15,4 C 25,7 C 22,5 km/h (4 Bft) 98,00 %
21.06.2018 15:44 26,7 C 26,7 C 48 % 1010,0 hPa 0,0 l/m 17,7 km/h (3 Bft) W-NW 285 0 min 0,000 mm 1,9 UV-I 255 W/m 14,8 C 25,1 C 25,7 km/h (4 Bft) 96,15 %
21.06.2018 15:45 26,6 C 26,7 C 48 % 1010,0 hPa 0,0 l/m 12,0 km/h (2 Bft) W 269 0 min 0,000 mm 1,8 UV-I 254 W/m 14,7 C 25,6 C 20,9 km/h (4 Bft) 95,83 %
21.06.2018 15:46 26,5 C 26,7 C 49 % 1010,0 hPa 0,0 l/m 9,3 km/h (2 Bft) W-SW 257 0 min 0,000 mm 1,8 UV-I 237 W/m 14,9 C 25,9 C 12,9 km/h (3 Bft) 95,65 %
21.06.2018 15:48 26,3 C 26,7 C 49 % 1009,9 hPa 0,0 l/m 9,5 km/h (2 Bft) NW 325 0 min 0,000 mm 1,8 UV-I 237 W/m 14,7 C 25,7 C 16,1 km/h (3 Bft) 95,74 %
21.06.2018 15:49 26,3 C 26,7 C 48 % 1009,9 hPa 0,0 l/m 11,5 km/h (2 Bft) W 266 0 min 0,000 mm 1,8 UV-I 245 W/m 14,4 C 25,4 C 17,7 km/h (3 Bft) 100,00 %
21.06.2018 15:50 26,3 C 26,7 C 49 % 1009,9 hPa 0,0 l/m 10,5 km/h (2 Bft) NW 318 0 min 0,000 mm 1,9 UV-I 263 W/m 14,7 C 25,5 C 16,1 km/h (3 Bft) 95,65 %
21.06.2018 15:51 26,3 C 26,7 C 49 % 1009,8 hPa 0,0 l/m 6,7 km/h (2 Bft) SW 221 0 min 0,000 mm 1,9 UV-I 268 W/m 14,7 C 26,2 C 11,3 km/h (2 Bft) 100,00 %
21.06.2018 15:53 26,3 C 26,7 C 48 % 1009,8 hPa 0,0 l/m 8,4 km/h (2 Bft) W-NW 298 0 min 0,000 mm 1,8 UV-I 255 W/m 14,4 C 25,9 C 17,7 km/h (3 Bft) 95,74 %
21.06.2018 15:54 26,3 C 26,7 C 48 % 1009,8 hPa 0,0 l/m 10,8 km/h (2 Bft) W 271 0 min 0,000 mm 1,8 UV-I 267 W/m 14,4 C 25,5 C 16,1 km/h (3 Bft) 91,30 %
21.06.2018 15:55 26,3 C 26,7 C 48 % 1009,8 hPa 0,0 l/m 5,2 km/h (1 Bft) W-SW 251 0 min 0,000 mm 1,9 UV-I 285 W/m 14,4 C 26,3 C 6,4 km/h (2 Bft) 100,00 %
21.06.2018 15:56 26,3 C 26,7 C 49 % 1009,8 hPa 0,0 l/m 5,6 km/h (1 Bft) W 261 0 min 0,000 mm 2,0 UV-I 294 W/m 14,7 C 26,3 C 9,7 km/h (2 Bft) 95,65 %
21.06.2018 15:57 26,3 C 26,7 C 50 % 1009,8 hPa 0,0 l/m 9,1 km/h (2 Bft) W 281 0 min 0,000 mm 2,0 UV-I 297 W/m 15,0 C 25,8 C 11,3 km/h (2 Bft) 95,83 %
21.06.2018 15:58 26,3 C 26,7 C 49 % 1009,7 hPa 0,0 l/m 4,3 km/h (1 Bft) W-SW 252 0 min 0,000 mm 2,1 UV-I 302 W/m 14,7 C 26,3 C 6,4 km/h (2 Bft) 95,65 %
21.06.2018 15:59 26,3 C 26,7 C 49 % 1009,7 hPa 0,0 l/m 5,2 km/h (1 Bft) W 259 0 min 0,000 mm 2,1 UV-I 318 W/m 14,7 C 26,3 C 8,0 km/h (2 Bft) 91,67 %
21.06.2018 16:00 26,4 C 26,7 C 51 % 1009,7 hPa 0,0 l/m 7,4 km/h (2 Bft) W-SW 240 0 min 0,000 mm 2,1 UV-I 323 W/m 15,4 C 26,2 C 14,5 km/h (3 Bft) 100,00 %
21.06.2018 16:02 26,4 C 26,7 C 49 % 1009,6 hPa 0,0 l/m 6,0 km/h (2 Bft) W 270 0 min 0,381 mm 2,1 UV-I 329 W/m 14,8 C 26,4 C 14,5 km/h (3 Bft) 95,74 %
21.06.2018 16:03 26,4 C 26,7 C 49 % 1009,5 hPa 0,0 l/m 6,6 km/h (2 Bft) W-SW 237 0 min 0,000 mm 2,1 UV-I 330 W/m 14,8 C 26,4 C 11,3 km/h (2 Bft) 88,57 %
21.06.2018 16:04 26,5 C 26,7 C 50 % 1009,5 hPa 0,0 l/m 10,0 km/h (2 Bft) W 269 0 min 0,000 mm 2,1 UV-I 333 W/m 15,2 C 25,8 C 14,5 km/h (3 Bft) 100,00 %
21.06.2018 16:05 26,5 C 26,7 C 50 % 1009,5 hPa 0,0 l/m 7,4 km/h (2 Bft) W 281 0 min 0,000 mm 2,1 UV-I 332 W/m 15,2 C 26,3 C 12,9 km/h (3 Bft) 91,30 %
21.06.2018 16:06 26,4 C 26,7 C 49 % 1009,5 hPa 0,0 l/m 5,7 km/h (1 Bft) W 259 0 min 0,000 mm 2,1 UV-I 326 W/m 14,8 C 26,4 C 11,3 km/h (2 Bft) 100,00 %
21.06.2018 16:08 26,4 C 26,7 C 51 % 1009,4 hPa 0,0 l/m 8,7 km/h (2 Bft) W 265 0 min 0,000 mm 2,1 UV-I 319 W/m 15,4 C 25,9 C 14,5 km/h (3 Bft) 94,00 %
21.06.2018 16:09 26,4 C 26,7 C 49 % 1009,4 hPa 0,0 l/m 7,2 km/h (2 Bft) W-NW 296 0 min 0,000 mm 2,1 UV-I 316 W/m 14,8 C 26,2 C 11,3 km/h (2 Bft) 91,30 %
21.06.2018 16:10 26,4 C 26,7 C 50 % 1009,4 hPa 0,0 l/m 5,4 km/h (1 Bft) NW 306 0 min 0,000 mm 2,0 UV-I 314 W/m 15,1 C 26,4 C 6,4 km/h (2 Bft) 91,67 %
21.06.2018 16:11 26,5 C 26,7 C 50 % 1009,4 hPa 0,0 l/m 4,4 km/h (1 Bft) W-SW 248 0 min 0,000 mm 2,0 UV-I 311 W/m 15,2 C 26,5 C 6,4 km/h (2 Bft) 96,15 %
21.06.2018 16:13 26,6 C 26,7 C 50 % 1009,4 hPa 0,0 l/m 5,0 km/h (1 Bft) N-NW 344 0 min 0,000 mm 2,0 UV-I 305 W/m 15,3 C 26,6 C 11,3 km/h (2 Bft) 94,87 %
21.06.2018 16:14 26,6 C 26,7 C 49 % 1009,4 hPa 0,0 l/m 3,9 km/h (1 Bft) W 261 0 min 0,000 mm 1,9 UV-I 297 W/m 15,0 C 26,6 C 9,7 km/h (2 Bft) 91,30 %
21.06.2018 16:15 26,6 C 26,7 C 50 % 1009,3 hPa 0,0 l/m 6,6 km/h (2 Bft) W 262 0 min 0,000 mm 1,9 UV-I 294 W/m 15,3 C 26,6 C 9,7 km/h (2 Bft) 100,00 %
21.06.2018 16:16 26,7 C 26,7 C 49 % 1009,3 hPa 0,0 l/m 6,9 km/h (2 Bft) W 277 0 min 0,000 mm 1,9 UV-I 292 W/m 15,1 C 26,6 C 11,3 km/h (2 Bft) 91,30 %
21.06.2018 16:18 26,6 C 26,7 C 49 % 1009,2 hPa 0,0 l/m 6,9 km/h (2 Bft) W 275 0 min 0,000 mm 1,8 UV-I 283 W/m 15,0 C 26,5 C 11,3 km/h (2 Bft) 96,00 %
21.06.2018 16:19 26,6 C 26,7 C 48 % 1009,2 hPa 0,0 l/m 7,5 km/h (2 Bft) W-SW 244 0 min 0,000 mm 1,8 UV-I 278 W/m 14,7 C 26,4 C 9,7 km/h (2 Bft) 91,67 %
21.06.2018 16:20 26,5 C 26,7 C 50 % 1009,3 hPa 0,0 l/m 5,3 km/h (1 Bft) SW 227 0 min 0,000 mm 1,7 UV-I 276 W/m 15,2 C 26,5 C 11,3 km/h (2 Bft) 96,15 %
21.06.2018 16:21 26,5 C 26,7 C 50 % 1009,3 hPa 0,0 l/m 7,7 km/h (2 Bft) W 275 0 min 0,000 mm 1,7 UV-I 274 W/m 15,2 C 26,2 C 11,3 km/h (2 Bft) 91,67 %
21.06.2018 16:22 26,6 C 26,7 C 51 % 1009,3 hPa 0,0 l/m 6,3 km/h (2 Bft) W-SW 238 0 min 0,000 mm 1,7 UV-I 273 W/m 15,6 C 26,6 C 9,7 km/h (2 Bft) 100,00 %
21.06.2018 16:23 26,6 C 26,7 C 51 % 1009,3 hPa 0,0 l/m 6,0 km/h (2 Bft) W-SW 246 0 min 0,000 mm 1,7 UV-I 271 W/m 15,6 C 26,6 C 9,7 km/h (2 Bft) 95,83 %
21.06.2018 16:24 26,6 C 26,7 C 51 % 1009,3 hPa 0,0 l/m 4,9 km/h (1 Bft) S-SW 210 0 min 0,000 mm 1,7 UV-I 271 W/m 15,6 C 26,6 C 6,4 km/h (2 Bft) 95,65 %
21.06.2018 16:25 26,6 C 26,7 C 50 % 1009,3 hPa 0,0 l/m 8,3 km/h (2 Bft) W 261 0 min 0,000 mm 1,6 UV-I 269 W/m 15,3 C 26,2 C 11,3 km/h (2 Bft) 95,83 %
21.06.2018 16:26 26,6 C 26,7 C 50 % 1009,3 hPa 0,0 l/m 5,6 km/h (1 Bft) W 263 0 min 0,000 mm 1,6 UV-I 271 W/m 15,3 C 26,6 C 6,4 km/h (2 Bft) 95,65 %
21.06.2018 16:28 26,7 C 26,7 C 51 % 1009,2 hPa 0,0 l/m 7,0 km/h (2 Bft) W-SW 242 0 min 0,000 mm 1,6 UV-I 272 W/m 15,7 C 26,6 C 12,9 km/h (3 Bft) 97,87 %
21.06.2018 16:29 26,7 C 26,7 C 51 % 1009,2 hPa 0,0 l/m 9,0 km/h (2 Bft) W-SW 255 0 min 0,000 mm 1,6 UV-I 276 W/m 15,7 C 26,2 C 12,9 km/h (3 Bft) 95,83 %
21.06.2018 16:30 26,7 C 26,7 C 53 % 1009,2 hPa 0,0 l/m 6,2 km/h (2 Bft) SW 235 0 min 0,000 mm 1,6 UV-I 280 W/m 16,3 C 26,7 C 8,0 km/h (2 Bft) 100,00 %
21.06.2018 16:31 26,7 C 26,7 C 52 % 1009,3 hPa 0,0 l/m 5,6 km/h (1 Bft) SW 216 0 min 0,000 mm 1,6 UV-I 286 W/m 16,0 C 26,7 C 9,7 km/h (2 Bft) 95,83 %
21.06.2018 16:32 26,7 C 26,7 C 52 % 1009,2 hPa 0,0 l/m 10,3 km/h (2 Bft) S-SW 211 0 min 0,000 mm 1,6 UV-I 292 W/m 16,0 C 26,0 C 12,9 km/h (3 Bft) 95,65 %
21.06.2018 16:33 26,7 C 26,7 C 53 % 1009,2 hPa 0,0 l/m 8,9 km/h (2 Bft) SW 222 0 min 0,000 mm 1,6 UV-I 298 W/m 16,3 C 26,2 C 14,5 km/h (3 Bft) 100,00 %
21.06.2018 16:34 26,7 C 26,7 C 52 % 1009,2 hPa 0,0 l/m 8,0 km/h (2 Bft) SW 225 0 min 0,000 mm 1,7 UV-I 302 W/m 16,0 C 26,4 C 12,9 km/h (3 Bft) 95,65 %
21.06.2018 16:35 26,7 C 26,7 C 53 % 1009,3 hPa 0,0 l/m 9,4 km/h (2 Bft) W-SW 256 0 min 0,000 mm 1,7 UV-I 303 W/m 16,3 C 26,1 C 16,1 km/h (3 Bft) 100,00 %
21.06.2018 16:36 26,6 C 26,7 C 52 % 1009,3 hPa 0,0 l/m 11,0 km/h (2 Bft) SW 236 0 min 0,000 mm 1,7 UV-I 307 W/m 15,9 C 25,8 C 14,5 km/h (3 Bft) 100,00 %
21.06.2018 16:38 26,6 C 26,7 C 54 % 1009,2 hPa 0,0 l/m 5,8 km/h (2 Bft) W-SW 240 0 min 0,000 mm 1,7 UV-I 313 W/m 16,5 C 26,6 C 8,0 km/h (2 Bft) 100,00 %
21.06.2018 16:39 26,6 C 26,7 C 54 % 1009,2 hPa 0,0 l/m 3,6 km/h (1 Bft) SW 229 0 min 0,000 mm 1,7 UV-I 315 W/m 16,5 C 26,6 C 6,4 km/h (2 Bft) 100,00 %
21.06.2018 16:40 26,6 C 26,7 C 54 % 1009,2 hPa 0,0 l/m 4,5 km/h (1 Bft) W-SW 242 0 min 0,000 mm 1,7 UV-I 318 W/m 16,5 C 26,6 C 6,4 km/h (2 Bft) 100,00 %
21.06.2018 16:41 26,6 C 26,7 C 54 % 1009,1 hPa 0,0 l/m 6,3 km/h (2 Bft) S-SW 210 0 min 0,000 mm 1,7 UV-I 325 W/m 16,5 C 26,6 C 9,7 km/h (2 Bft) 100,00 %
21.06.2018 16:43 26,8 C 26,7 C 54 % 1009,1 hPa 0,0 l/m 7,8 km/h (2 Bft) W-SW 243 0 min 0,000 mm 1,7 UV-I 339 W/m 16,7 C 26,5 C 11,3 km/h (2 Bft) 97,56 %
21.06.2018 16:44 26,8 C 26,7 C 53 % 1009,1 hPa 0,0 l/m 7,1 km/h (2 Bft) S-SW 213 0 min 0,000 mm 1,7 UV-I 340 W/m 16,4 C 26,7 C 9,7 km/h (2 Bft) 95,83 %
21.06.2018 16:45 26,8 C 26,7 C 52 % 1009,1 hPa 0,0 l/m 5,3 km/h (1 Bft) W-SW 258 0 min 0,000 mm 1,8 UV-I 338 W/m 16,1 C 26,8 C 8,0 km/h (2 Bft) 95,65 %
21.06.2018 16:46 26,9 C 26,7 C 54 % 1009,1 hPa 0,0 l/m 6,9 km/h (2 Bft) S-SW 194 0 min 0,000 mm 1,7 UV-I 320 W/m 16,8 C 26,8 C 9,7 km/h (2 Bft) 100,00 %
21.06.2018 16:47 26,9 C 26,7 C 53 % 1009,1 hPa 0,0 l/m 5,4 km/h (1 Bft) W-SW 238 0 min 0,000 mm 1,7 UV-I 316 W/m 16,5 C 26,9 C 9,7 km/h (2 Bft) 100,00 %
21.06.2018 16:48 26,9 C 26,7 C 53 % 1009,0 hPa 0,0 l/m 8,2 km/h (2 Bft) S-SW 204 0 min 0,000 mm 1,7 UV-I 317 W/m 16,5 C 26,6 C 12,9 km/h (3 Bft) 100,00 %
21.06.2018 16:49 26,8 C 26,7 C 54 % 1009,0 hPa 0,0 l/m 8,4 km/h (2 Bft) SW 223 0 min 0,000 mm 1,7 UV-I 318 W/m 16,7 C 26,4 C 12,9 km/h (3 Bft) 100,00 %
21.06.2018 16:50 26,8 C 26,7 C 54 % 1009,0 hPa 0,0 l/m 8,0 km/h (2 Bft) SW 228 0 min 0,000 mm 1,7 UV-I 324 W/m 16,7 C 26,5 C 12,9 km/h (3 Bft) 95,83 %
21.06.2018 16:51 26,8 C 26,7 C 53 % 1009,0 hPa 0,0 l/m 8,7 km/h (2 Bft) SW 214 0 min 0,000 mm 1,7 UV-I 319 W/m 16,4 C 26,4 C 12,9 km/h (3 Bft) 100,00 %
21.06.2018 16:52 26,8 C 26,7 C 54 % 1009,0 hPa 0,0 l/m 13,5 km/h (3 Bft) SW 214 0 min 0,000 mm 1,7 UV-I 315 W/m 16,7 C 25,7 C 19,3 km/h (3 Bft) 100,00 %
21.06.2018 16:53 26,8 C 26,7 C 55 % 1009,0 hPa 0,0 l/m 7,6 km/h (2 Bft) S-SW 210 0 min 0,000 mm 1,7 UV-I 328 W/m 17,0 C 26,6 C 11,3 km/h (2 Bft) 100,00 %
21.06.2018 16:54 26,8 C 26,7 C 54 % 1008,9 hPa 0,0 l/m 7,3 km/h (2 Bft) SW 217 0 min 0,000 mm 1,7 UV-I 327 W/m 16,7 C 26,6 C 11,3 km/h (2 Bft) 100,00 %
21.06.2018 16:55 26,8 C 26,7 C 55 % 1008,9 hPa 0,0 l/m 7,0 km/h (2 Bft) SW 215 0 min 0,000 mm 1,7 UV-I 329 W/m 17,0 C 26,7 C 14,5 km/h (3 Bft) 100,00 %
21.06.2018 16:56 26,8 C 26,7 C 54 % 1008,9 hPa 0,0 l/m 9,9 km/h (2 Bft) S-SW 201 1 min 0,000 mm 1,7 UV-I 338 W/m 16,7 C 26,2 C 12,9 km/h (3 Bft) 100,00 %
21.06.2018 16:58 27,0 C 26,7 C 54 % 1008,8 hPa 0,0 l/m 9,9 km/h (2 Bft) S-SW 207 0 min 0,000 mm 1,7 UV-I 331 W/m 16,9 C 26,4 C 16,1 km/h (3 Bft) 97,87 %
21.06.2018 16:59 27,0 C 26,7 C 54 % 1008,8 hPa 0,0 l/m 10,7 km/h (2 Bft) SW 229 1 min 0,000 mm 1,7 UV-I 339 W/m 16,9 C 26,3 C 14,5 km/h (3 Bft) 100,00 %
21.06.2018 17:00 27,0 C 26,7 C 54 % 1008,8 hPa 0,0 l/m 11,9 km/h (2 Bft) SW 217 1 min 0,254 mm 1,7 UV-I 349 W/m 16,9 C 26,1 C 17,7 km/h (3 Bft) 100,00 %
21.06.2018 17:02 27,1 C 26,7 C 53 % 1008,7 hPa 0,0 l/m 14,0 km/h (3 Bft) S-SW 213 2 min 0,000 mm 1,8 UV-I 375 W/m 16,7 C 26,0 C 19,3 km/h (3 Bft) 97,37 %
21.06.2018 17:03 27,1 C 26,7 C 54 % 1008,7 hPa 0,0 l/m 14,5 km/h (3 Bft) W-SW 256 1 min 0,000 mm 1,8 UV-I 402 W/m 17,0 C 25,9 C 19,3 km/h (3 Bft) 95,83 %
21.06.2018 17:04 27,1 C 26,7 C 53 % 1008,7 hPa 0,0 l/m 11,4 km/h (2 Bft) SW 220 1 min 0,000 mm 1,8 UV-I 401 W/m 16,7 C 26,3 C 17,7 km/h (3 Bft) 95,65 %
21.06.2018 17:05 27,2 C 26,7 C 54 % 1008,7 hPa 0,0 l/m 10,7 km/h (2 Bft) SW 222 1 min 0,000 mm 1,8 UV-I 410 W/m 17,1 C 26,5 C 14,5 km/h (3 Bft) 100,00 %
21.06.2018 17:06 27,2 C 26,7 C 53 % 1008,7 hPa 0,0 l/m 12,3 km/h (3 Bft) SW 223 1 min 0,000 mm 1,8 UV-I 406 W/m 16,8 C 26,3 C 19,3 km/h (3 Bft) 100,00 %
21.06.2018 17:07 27,3 C 26,7 C 52 % 1008,6 hPa 0,0 l/m 13,4 km/h (3 Bft) S-SW 205 1 min 0,000 mm 1,8 UV-I 390 W/m 16,6 C 26,3 C 20,9 km/h (4 Bft) 100,00 %
21.06.2018 17:08 27,3 C 26,7 C 51 % 1008,6 hPa 0,0 l/m 16,6 km/h (3 Bft) SW 228 1 min 0,000 mm 1,8 UV-I 381 W/m 16,3 C 25,9 C 24,1 km/h (4 Bft) 91,30 %
21.06.2018 17:09 27,2 C 26,7 C 52 % 1008,6 hPa 0,0 l/m 12,7 km/h (3 Bft) W-SW 238 1 min 0,000 mm 1,8 UV-I 391 W/m 16,5 C 26,2 C 19,3 km/h (3 Bft) 100,00 %
21.06.2018 17:10 27,3 C 26,7 C 52 % 1008,6 hPa 0,0 l/m 13,6 km/h (3 Bft) W-SW 238 1 min 0,000 mm 1,8 UV-I 405 W/m 16,6 C 26,2 C 24,1 km/h (4 Bft) 100,00 %
21.06.2018 17:11 27,3 C 26,7 C 52 % 1008,5 hPa 0,0 l/m 10,6 km/h (2 Bft) SW 234 1 min 0,000 mm 1,8 UV-I 405 W/m 16,6 C 26,6 C 12,9 km/h (3 Bft) 100,00 %
21.06.2018 17:13 27,3 C 26,7 C 53 % 1008,5 hPa 0,0 l/m 14,0 km/h (3 Bft) W-SW 242 2 min 0,000 mm 1,7 UV-I 356 W/m 16,9 C 26,2 C 19,3 km/h (3 Bft) 100,00 %
21.06.2018 17:14 27,4 C 26,7 C 52 % 1008,5 hPa 0,0 l/m 9,2 km/h (2 Bft) W-SW 250 1 min 0,000 mm 1,6 UV-I 324 W/m 16,7 C 26,9 C 17,7 km/h (3 Bft) 100,00 %
21.06.2018 17:15 27,4 C 26,7 C 53 % 1008,5 hPa 0,0 l/m 12,2 km/h (2 Bft) SW 221 0 min 0,000 mm 1,5 UV-I 300 W/m 17,0 C 26,5 C 19,3 km/h (3 Bft) 96,15 %
21.06.2018 17:16 27,4 C 26,7 C 53 % 1008,5 hPa 0,0 l/m 9,3 km/h (2 Bft) SW 222 0 min 0,000 mm 1,5 UV-I 298 W/m 17,0 C 26,9 C 14,5 km/h (3 Bft) 100,00 %
21.06.2018 17:18 27,4 C 26,7 C 52 % 1008,5 hPa 0,0 l/m 10,6 km/h (2 Bft) W-SW 252 0 min 0,000 mm 1,5 UV-I 287 W/m 16,7 C 26,7 C 17,7 km/h (3 Bft) 95,74 %
21.06.2018 17:19 27,4 C 26,7 C 53 % 1008,5 hPa 0,0 l/m 12,2 km/h (2 Bft) W 263 0 min 0,000 mm 1,4 UV-I 279 W/m 17,0 C 26,5 C 17,7 km/h (3 Bft) 100,00 %
21.06.2018 17:20 27,4 C 26,7 C 52 % 1008,4 hPa 0,0 l/m 10,9 km/h (2 Bft) W-SW 241 0 min 0,000 mm 1,4 UV-I 276 W/m 16,7 C 26,7 C 17,7 km/h (3 Bft) 100,00 %
21.06.2018 17:21 27,3 C 26,7 C 52 % 1008,5 hPa 0,0 l/m 8,4 km/h (2 Bft) W-SW 248 0 min 0,000 mm 1,4 UV-I 277 W/m 16,6 C 26,9 C 12,9 km/h (3 Bft) 100,00 %
21.06.2018 17:23 27,4 C 26,7 C 54 % 1008,5 hPa 0,0 l/m 11,4 km/h (2 Bft) SW 231 0 min 0,000 mm 1,4 UV-I 278 W/m 17,3 C 26,6 C 17,7 km/h (3 Bft) 98,00 %
21.06.2018 17:24 27,4 C 26,7 C 53 % 1008,5 hPa 0,0 l/m 13,4 km/h (3 Bft) W-NW 285 0 min 0,000 mm 1,3 UV-I 249 W/m 17,0 C 26,4 C 20,9 km/h (4 Bft) 95,83 %
21.06.2018 17:25 27,4 C 26,7 C 53 % 1008,4 hPa 0,0 l/m 15,8 km/h (3 Bft) W-NW 296 0 min 0,000 mm 1,3 UV-I 249 W/m 17,0 C 26,1 C 22,5 km/h (4 Bft) 100,00 %
21.06.2018 17:26 27,4 C 26,7 C 52 % 1008,4 hPa 0,0 l/m 13,1 km/h (3 Bft) W-SW 252 0 min 0,000 mm 1,3 UV-I 264 W/m 16,7 C 26,4 C 17,7 km/h (3 Bft) 100,00 %
21.06.2018 17:27 27,3 C 26,7 C 52 % 1008,4 hPa 0,0 l/m 11,7 km/h (2 Bft) W-SW 252 1 min 0,000 mm 1,3 UV-I 308 W/m 16,6 C 26,5 C 19,3 km/h (3 Bft) 100,00 %
21.06.2018 17:28 27,4 C 26,7 C 53 % 1008,4 hPa 0,0 l/m 14,5 km/h (3 Bft) W-SW 253 1 min 0,000 mm 1,4 UV-I 336 W/m 17,0 C 26,3 C 22,5 km/h (4 Bft) 100,00 %
21.06.2018 17:29 27,4 C 26,7 C 52 % 1008,3 hPa 0,0 l/m 10,6 km/h (2 Bft) W-SW 257 1 min 0,000 mm 1,4 UV-I 368 W/m 16,7 C 26,7 C 14,5 km/h (3 Bft) 95,83 %
21.06.2018 17:30 27,5 C 26,7 C 53 % 1008,4 hPa 0,0 l/m 8,6 km/h (2 Bft) W 259 1 min 0,000 mm 1,5 UV-I 408 W/m 17,0 C 27,1 C 12,9 km/h (3 Bft) 100,00 %
21.06.2018 17:31 27,7 C 26,7 C 53 % 1008,4 hPa 0,0 l/m 14,0 km/h (3 Bft) W-SW 254 1 min 0,000 mm 1,5 UV-I 440 W/m 17,2 C 26,7 C 20,9 km/h (4 Bft) 100,00 %
21.06.2018 17:33 27,9 C 26,7 C 52 % 1008,4 hPa 0,0 l/m 12,9 km/h (3 Bft) SW 225 2 min 0,000 mm 1,5 UV-I 456 W/m 17,1 C 27,0 C 20,9 km/h (4 Bft) 100,00 %
21.06.2018 17:34 28,0 C 26,7 C 51 % 1008,4 hPa 0,0 l/m 8,4 km/h (2 Bft) SW 234 1 min 0,000 mm 1,5 UV-I 424 W/m 16,9 C 27,7 C 16,1 km/h (3 Bft) 100,00 %
21.06.2018 17:35 28,0 C 26,7 C 51 % 1008,4 hPa 0,0 l/m 14,7 km/h (3 Bft) W-SW 240 1 min 0,000 mm 1,4 UV-I 387 W/m 16,9 C 27,0 C 19,3 km/h (3 Bft) 100,00 %
21.06.2018 17:36 28,1 C 26,7 C 53 % 1008,4 hPa 0,0 l/m 12,7 km/h (3 Bft) W-SW 238 1 min 0,000 mm 1,4 UV-I 399 W/m 17,6 C 27,3 C 17,7 km/h (3 Bft) 95,65 %
21.06.2018 17:38 28,1 C 26,7 C 51 % 1008,4 hPa 0,0 l/m 10,7 km/h (2 Bft) W-SW 250 2 min 0,000 mm 1,4 UV-I 350 W/m 17,0 C 27,5 C 19,3 km/h (3 Bft) 95,74 %
21.06.2018 17:39 28,0 C 26,7 C 51 % 1008,4 hPa 0,0 l/m 11,1 km/h (2 Bft) W-SW 254 1 min 0,000 mm 1,4 UV-I 343 W/m 16,9 C 27,3 C 16,1 km/h (3 Bft) 100,00 %
21.06.2018 17:40 27,9 C 26,7 C 52 % 1008,4 hPa 0,0 l/m 11,5 km/h (2 Bft) W-SW 251 1 min 0,000 mm 1,3 UV-I 326 W/m 17,1 C 27,2 C 14,5 km/h (3 Bft) 95,65 %
21.06.2018 17:41 27,9 C 26,7 C 51 % 1008,3 hPa 0,0 l/m 12,9 km/h (3 Bft) W-SW 248 1 min 0,000 mm 1,3 UV-I 306 W/m 16,8 C 27,0 C 16,1 km/h (3 Bft) 100,00 %
21.06.2018 17:43 27,9 C 26,7 C 51 % 1008,4 hPa 0,0 l/m 12,3 km/h (3 Bft) W 279 2 min 0,000 mm 1,2 UV-I 279 W/m 16,8 C 27,1 C 19,3 km/h (3 Bft) 95,74 %
21.06.2018 17:44 27,9 C 26,7 C 52 % 1008,4 hPa 0,0 l/m 10,8 km/h (2 Bft) W-SW 258 0 min 0,000 mm 1,2 UV-I 246 W/m 17,1 C 27,3 C 16,1 km/h (3 Bft) 100,00 %
21.06.2018 17:45 27,8 C 26,7 C 51 % 1008,4 hPa 0,0 l/m 12,9 km/h (3 Bft) W 263 0 min 0,000 mm 1,1 UV-I 234 W/m 16,7 C 26,9 C 17,7 km/h (3 Bft) 95,83 %
21.06.2018 17:46 27,8 C 26,7 C 51 % 1008,4 hPa 0,0 l/m 13,2 km/h (3 Bft) W-SW 239 0 min 0,000 mm 1,1 UV-I 252 W/m 16,7 C 26,9 C 22,5 km/h (4 Bft) 100,00 %
21.06.2018 17:48 27,7 C 26,7 C 52 % 1008,5 hPa 0,0 l/m 11,6 km/h (2 Bft) W-SW 252 0 min 0,000 mm 1,1 UV-I 237 W/m 16,9 C 26,9 C 20,9 km/h (4 Bft) 97,87 %
21.06.2018 17:49 27,7 C 26,7 C 52 % 1008,5 hPa 0,0 l/m 11,6 km/h (2 Bft) SW 221 0 min 0,000 mm 1,0 UV-I 185 W/m 16,9 C 26,9 C 14,5 km/h (3 Bft) 91,67 %
21.06.2018 17:50 27,7 C 26,7 C 52 % 1008,5 hPa 0,0 l/m 13,1 km/h (3 Bft) W-SW 242 0 min 0,000 mm 0,9 UV-I 168 W/m 16,9 C 26,8 C 19,3 km/h (3 Bft) 100,00 %
21.06.2018 17:51 27,7 C 26,7 C 52 % 1008,5 hPa 0,0 l/m 10,7 km/h (2 Bft) W-SW 244 0 min 0,000 mm 0,9 UV-I 158 W/m 16,9 C 27,1 C 19,3 km/h (3 Bft) 95,65 %
21.06.2018 17:52 27,6 C 26,7 C 52 % 1008,5 hPa 0,0 l/m 7,4 km/h (2 Bft) W 267 0 min 0,000 mm 0,8 UV-I 154 W/m 16,8 C 27,4 C 11,3 km/h (2 Bft) 95,83 %
21.06.2018 17:53 27,6 C 26,7 C 53 % 1008,6 hPa 0,0 l/m 8,7 km/h (2 Bft) W 273 0 min 0,000 mm 0,8 UV-I 151 W/m 17,1 C 27,2 C 14,5 km/h (3 Bft) 95,65 %
21.06.2018 17:54 27,6 C 26,7 C 53 % 1008,5 hPa 0,0 l/m 11,1 km/h (2 Bft) W-SW 252 0 min 0,000 mm 0,8 UV-I 149 W/m 17,1 C 26,9 C 16,1 km/h (3 Bft) 95,83 %
21.06.2018 17:55 27,5 C 26,7 C 53 % 1008,5 hPa 0,0 l/m 10,0 km/h (2 Bft) SW 235 0 min 0,000 mm 0,8 UV-I 149 W/m 17,0 C 26,9 C 16,1 km/h (3 Bft) 100,00 %
21.06.2018 17:56 27,5 C 26,7 C 53 % 1008,5 hPa 0,0 l/m 7,8 km/h (2 Bft) SW 226 0 min 0,000 mm 0,8 UV-I 150 W/m 17,0 C 27,3 C 14,5 km/h (3 Bft) 91,67 %
21.06.2018 17:57 27,4 C 26,7 C 53 % 1008,5 hPa 0,0 l/m 15,6 km/h (3 Bft) W 264 0 min 0,000 mm 0,8 UV-I 149 W/m 17,0 C 26,2 C 20,9 km/h (4 Bft) 96,15 %
21.06.2018 17:58 27,4 C 26,7 C 52 % 1008,5 hPa 0,0 l/m 21,2 km/h (4 Bft) W-SW 255 0 min 0,000 mm 0,8 UV-I 149 W/m 16,7 C 25,7 C 33,8 km/h (5 Bft) 95,83 %
21.06.2018 17:59 27,4 C 26,7 C 53 % 1008,5 hPa 0,0 l/m 17,3 km/h (3 Bft) W 259 0 min 0,000 mm 0,8 UV-I 151 W/m 17,0 C 26,0 C 25,7 km/h (4 Bft) 100,00 %
21.06.2018 18:00 27,4 C 26,7 C 53 % 1008,5 hPa 0,0 l/m 11,5 km/h (2 Bft) W-SW 253 0 min 0,000 mm 0,8 UV-I 153 W/m 17,0 C 26,6 C 19,3 km/h (3 Bft) 91,67 %
21.06.2018 18:02 27,4 C 26,7 C 54 % 1008,5 hPa 0,0 l/m 5,9 km/h (2 Bft) N-NW 344 0 min 0,305 mm 0,8 UV-I 156 W/m 17,3 C 27,4 C 11,3 km/h (2 Bft) 96,00 %
21.06.2018 18:03 27,3 C 26,7 C 54 % 1008,6 hPa 0,0 l/m 4,8 km/h (1 Bft) W-SW 242 0 min 0,000 mm 0,8 UV-I 162 W/m 17,2 C 27,3 C 8,0 km/h (2 Bft) 95,65 %
21.06.2018 18:04 27,3 C 26,7 C 55 % 1008,6 hPa 0,0 l/m 3,1 km/h (1 Bft) NW 314 0 min 0,000 mm 0,8 UV-I 169 W/m 17,4 C 27,3 C 4,8 km/h (1 Bft) 100,00 %
21.06.2018 18:05 27,2 C 26,7 C 55 % 1008,6 hPa 0,0 l/m 7,4 km/h (2 Bft) NW 323 0 min 0,000 mm 0,8 UV-I 166 W/m 17,4 C 27,0 C 12,9 km/h (3 Bft) 96,15 %
21.06.2018 18:06 27,2 C 26,7 C 54 % 1008,6 hPa 0,0 l/m 8,3 km/h (2 Bft) W-NW 283 0 min 0,000 mm 0,7 UV-I 156 W/m 17,1 C 26,9 C 11,3 km/h (2 Bft) 100,00 %
21.06.2018 18:08 27,3 C 26,7 C 53 % 1008,7 hPa 0,0 l/m 5,8 km/h (2 Bft) NW 315 0 min 0,000 mm 0,7 UV-I 157 W/m 16,9 C 27,3 C 16,1 km/h (3 Bft) 96,00 %
21.06.2018 18:09 27,3 C 26,7 C 53 % 1008,7 hPa 0,0 l/m 6,4 km/h (2 Bft) NW 313 0 min 0,000 mm 0,7 UV-I 159 W/m 16,9 C 27,3 C 12,9 km/h (3 Bft) 100,00 %
21.06.2018 18:10 27,3 C 26,7 C 54 % 1008,7 hPa 0,0 l/m 2,3 km/h (1 Bft) NO 40 0 min 0,000 mm 0,7 UV-I 162 W/m 17,2 C 27,3 C 3,2 km/h (1 Bft) 100,00 %
21.06.2018 18:11 27,3 C 26,7 C 53 % 1008,7 hPa 0,0 l/m 5,9 km/h (2 Bft) W-NW 294 0 min 0,000 mm 0,7 UV-I 167 W/m 16,9 C 27,3 C 12,9 km/h (3 Bft) 92,59 %
21.06.2018 18:13 27,2 C 26,7 C 52 % 1008,7 hPa 0,0 l/m 6,7 km/h (2 Bft) W 279 0 min 0,000 mm 0,7 UV-I 179 W/m 16,5 C 27,1 C 16,1 km/h (3 Bft) 97,87 %
21.06.2018 18:14 27,2 C 26,7 C 51 % 1008,7 hPa 0,0 l/m 11,0 km/h (2 Bft) W 269 0 min 0,000 mm 0,7 UV-I 191 W/m 16,2 C 26,5 C 17,7 km/h (3 Bft) 95,65 %
21.06.2018 18:15 27,2 C 26,7 C 50 % 1008,7 hPa 0,0 l/m 5,7 km/h (1 Bft) NW 311 0 min 0,000 mm 0,7 UV-I 198 W/m 15,9 C 27,2 C 9,7 km/h (2 Bft) 100,00 %
21.06.2018 18:16 27,2 C 26,7 C 48 % 1008,8 hPa 0,0 l/m 10,9 km/h (2 Bft) W-NW 291 0 min 0,000 mm 0,7 UV-I 193 W/m 15,2 C 26,5 C 17,7 km/h (3 Bft) 95,65 %
21.06.2018 18:18 27,2 C 26,7 C 48 % 1008,8 hPa 0,0 l/m 12,1 km/h (2 Bft) W-NW 288 0 min 0,000 mm 0,7 UV-I 184 W/m 15,2 C 26,3 C 27,4 km/h (4 Bft) 100,00 %
21.06.2018 18:19 27,2 C 26,7 C 48 % 1008,8 hPa 0,0 l/m 3,8 km/h (1 Bft) W 271 0 min 0,000 mm 0,7 UV-I 179 W/m 15,2 C 27,2 C 6,4 km/h (2 Bft) 100,00 %
21.06.2018 18:20 27,2 C 26,7 C 49 % 1008,9 hPa 0,0 l/m 4,6 km/h (1 Bft) NW 309 0 min 0,000 mm 0,7 UV-I 177 W/m 15,5 C 27,2 C 11,3 km/h (2 Bft) 95,65 %
21.06.2018 18:21 27,2 C 26,7 C 49 % 1008,9 hPa 0,0 l/m 5,8 km/h (2 Bft) W 281 0 min 0,000 mm 0,7 UV-I 173 W/m 15,5 C 27,2 C 14,5 km/h (3 Bft) 100,00 %
21.06.2018 18:23 27,1 C 26,7 C 48 % 1008,9 hPa 0,0 l/m 5,7 km/h (1 Bft) W-SW 243 0 min 0,000 mm 0,6 UV-I 172 W/m 15,1 C 27,1 C 16,1 km/h (3 Bft) 93,62 %
21.06.2018 18:24 27,1 C 26,7 C 49 % 1008,9 hPa 0,0 l/m 6,2 km/h (2 Bft) W-NW 302 0 min 0,000 mm 0,6 UV-I 173 W/m 15,4 C 27,1 C 12,9 km/h (3 Bft) 92,31 %
21.06.2018 18:25 27,1 C 26,7 C 49 % 1008,9 hPa 0,0 l/m 6,2 km/h (2 Bft) W-SW 248 0 min 0,000 mm 0,6 UV-I 176 W/m 15,4 C 27,1 C 12,9 km/h (3 Bft) 100,00 %
21.06.2018 18:26 27,2 C 26,7 C 50 % 1009,0 hPa 0,0 l/m 3,3 km/h (1 Bft) N 351 0 min 0,000 mm 0,6 UV-I 177 W/m 15,9 C 27,2 C 4,8 km/h (1 Bft) 95,65 %
21.06.2018 18:28 27,1 C 26,7 C 48 % 1008,8 hPa 0,0 l/m 9,8 km/h (2 Bft) NW 316 0 min 0,000 mm 0,6 UV-I 182 W/m 15,1 C 26,5 C 24,1 km/h (4 Bft) 100,00 %
21.06.2018 18:29 27,1 C 26,7 C 48 % 1008,8 hPa 0,0 l/m 6,3 km/h (2 Bft) N 360 0 min 0,000 mm 0,6 UV-I 189 W/m 15,1 C 27,1 C 12,9 km/h (3 Bft) 95,65 %
21.06.2018 18:30 27,1 C 26,7 C 48 % 1008,8 hPa 0,0 l/m 8,8 km/h (2 Bft) W 273 0 min 0,000 mm 0,6 UV-I 201 W/m 15,1 C 26,7 C 16,1 km/h (3 Bft) 100,00 %
21.06.2018 18:31 27,1 C 26,7 C 48 % 1008,8 hPa 0,0 l/m 5,8 km/h (2 Bft) W-NW 282 1 min 0,000 mm 0,6 UV-I 220 W/m 15,1 C 27,1 C 17,7 km/h (3 Bft) 100,00 %
21.06.2018 18:32 27,1 C 26,7 C 48 % 1008,8 hPa 0,0 l/m 5,1 km/h (1 Bft) NW 306 1 min 0,000 mm 0,6 UV-I 238 W/m 15,1 C 27,1 C 11,3 km/h (2 Bft) 100,00 %
21.06.2018 18:33 27,2 C 26,7 C 48 % 1008,8 hPa 0,0 l/m 3,4 km/h (1 Bft) W-NW 300 1 min 0,000 mm 0,6 UV-I 253 W/m 15,2 C 27,2 C 6,4 km/h (2 Bft) 100,00 %
21.06.2018 18:34 27,2 C 26,7 C 48 % 1008,9 hPa 0,0 l/m 12,6 km/h (3 Bft) N-NW 327 1 min 0,000 mm 0,6 UV-I 264 W/m 15,2 C 26,2 C 20,9 km/h (4 Bft) 100,00 %
21.06.2018 18:35 27,2 C 26,7 C 48 % 1008,9 hPa 0,0 l/m 4,8 km/h (1 Bft) N 5 1 min 0,000 mm 0,6 UV-I 282 W/m 15,2 C 27,2 C 9,7 km/h (2 Bft) 100,00 %
21.06.2018 18:36 27,3 C 26,7 C 47 % 1008,9 hPa 0,0 l/m 5,1 km/h (1 Bft) SW 229 1 min 0,000 mm 0,7 UV-I 320 W/m 15,0 C 27,3 C 12,9 km/h (3 Bft) 100,00 %
21.06.2018 18:38 27,4 C 26,7 C 46 % 1008,8 hPa 0,0 l/m 6,1 km/h (2 Bft) N-NW 328 2 min 0,000 mm 0,7 UV-I 340 W/m 14,7 C 27,4 C 11,3 km/h (2 Bft) 94,92 %
21.06.2018 18:39 27,4 C 26,7 C 47 % 1008,8 hPa 0,0 l/m 5,5 km/h (1 Bft) SW 224 1 min 0,000 mm 0,7 UV-I 258 W/m 15,1 C 27,4 C 9,7 km/h (2 Bft) 100,00 %
21.06.2018 18:40 27,5 C 26,7 C 47 % 1008,8 hPa 0,0 l/m 9,7 km/h (2 Bft) W 269 1 min 0,000 mm 0,7 UV-I 326 W/m 15,2 C 27,0 C 16,1 km/h (3 Bft) 100,00 %
21.06.2018 18:41 27,6 C 26,7 C 47 % 1008,8 hPa 0,0 l/m 7,3 km/h (2 Bft) SW 224 1 min 0,000 mm 0,7 UV-I 386 W/m 15,3 C 27,4 C 16,1 km/h (3 Bft) 100,00 %
21.06.2018 18:42 27,6 C 26,7 C 46 % 1008,9 hPa 0,0 l/m 12,1 km/h (2 Bft) W 265 1 min 0,000 mm 0,7 UV-I 386 W/m 14,9 C 26,8 C 16,1 km/h (3 Bft) 100,00 %
21.06.2018 18:43 27,7 C 26,7 C 46 % 1008,9 hPa 0,0 l/m 8,7 km/h (2 Bft) W-SW 256 1 min 0,000 mm 0,7 UV-I 387 W/m 15,0 C 27,3 C 17,7 km/h (3 Bft) 95,83 %
21.06.2018 18:44 27,7 C 26,7 C 45 % 1008,7 hPa 0,0 l/m 12,6 km/h (3 Bft) W 275 1 min 0,000 mm 0,7 UV-I 390 W/m 14,7 C 26,8 C 20,9 km/h (4 Bft) 100,00 %
21.06.2018 18:45 27,7 C 26,7 C 46 % 1008,9 hPa 0,0 l/m 12,4 km/h (3 Bft) W 274 1 min 0,000 mm 0,7 UV-I 377 W/m 15,0 C 26,9 C 19,3 km/h (3 Bft) 100,00 %
21.06.2018 18:46 27,7 C 26,7 C 46 % 1008,8 hPa 0,0 l/m 9,9 km/h (2 Bft) S-SW 208 1 min 0,000 mm 0,7 UV-I 358 W/m 15,0 C 27,2 C 16,1 km/h (3 Bft) 100,00 %
21.06.2018 18:47 27,8 C 26,7 C 46 % 1008,8 hPa 0,0 l/m 8,9 km/h (2 Bft) W 281 1 min 0,000 mm 0,7 UV-I 325 W/m 15,1 C 27,4 C 16,1 km/h (3 Bft) 100,00 %
21.06.2018 18:48 27,8 C 26,7 C 45 % 1008,9 hPa 0,0 l/m 11,5 km/h (2 Bft) N-NW 342 1 min 0,000 mm 0,7 UV-I 231 W/m 14,8 C 27,1 C 20,9 km/h (4 Bft) 91,30 %
21.06.2018 18:49 27,7 C 26,7 C 46 % 1008,9 hPa 0,0 l/m 5,3 km/h (1 Bft) W 267 1 min 0,000 mm 0,6 UV-I 204 W/m 15,0 C 27,7 C 8,0 km/h (2 Bft) 95,83 %
21.06.2018 18:50 27,7 C 26,7 C 46 % 1008,8 hPa 0,0 l/m 3,1 km/h (1 Bft) N-NO 19 1 min 0,000 mm 0,6 UV-I 196 W/m 15,0 C 27,7 C 6,4 km/h (2 Bft) 100,00 %
21.06.2018 18:51 27,6 C 26,7 C 46 % 1008,9 hPa 0,0 l/m 6,3 km/h (2 Bft) NW 317 1 min 0,000 mm 0,6 UV-I 188 W/m 14,9 C 27,6 C 12,9 km/h (3 Bft) 100,00 %
21.06.2018 18:53 27,4 C 26,7 C 47 % 1008,9 hPa 0,0 l/m 5,3 km/h (1 Bft) O-SO 113 0 min 0,000 mm 0,6 UV-I 177 W/m 15,1 C 27,4 C 11,3 km/h (2 Bft) 96,00 %
21.06.2018 18:54 27,3 C 26,7 C 48 % 1008,9 hPa 0,0 l/m 4,1 km/h (1 Bft) NO 37 0 min 0,000 mm 0,6 UV-I 167 W/m 15,3 C 27,3 C 6,4 km/h (2 Bft) 100,00 %
21.06.2018 18:55 27,2 C 26,7 C 49 % 1009,0 hPa 0,0 l/m 7,4 km/h (2 Bft) W-SW 252 0 min 0,000 mm 0,5 UV-I 160 W/m 15,5 C 27,0 C 17,7 km/h (3 Bft) 100,00 %
21.06.2018 18:56 27,1 C 26,7 C 48 % 1009,0 hPa 0,0 l/m 12,8 km/h (3 Bft) SW 227 0 min 0,000 mm 0,5 UV-I 153 W/m 15,1 C 26,1 C 22,5 km/h (4 Bft) 100,00 %
21.06.2018 18:58 27,0 C 26,7 C 48 % 1009,0 hPa 0,0 l/m 6,3 km/h (2 Bft) W-SW 248 0 min 0,000 mm 0,5 UV-I 143 W/m 15,0 C 27,0 C 14,5 km/h (3 Bft) 100,00 %
21.06.2018 18:59 27,0 C 26,7 C 48 % 1009,0 hPa 0,0 l/m 6,9 km/h (2 Bft) W 259 0 min 0,000 mm 0,5 UV-I 135 W/m 15,0 C 26,9 C 12,9 km/h (3 Bft) 100,00 %
21.06.2018 19:00 27,0 C 26,7 C 48 % 1009,0 hPa 0,0 l/m 13,3 km/h (3 Bft) W-SW 254 0 min 0,000 mm 0,5 UV-I 134 W/m 15,0 C 25,9 C 17,7 km/h (3 Bft) 100,00 %
21.06.2018 19:02 26,9 C 26,7 C 48 % 1009,1 hPa 0,0 l/m 11,5 km/h (2 Bft) W-SW 238 0 min 0,203 mm 0,2 UV-I 127 W/m 14,9 C 26,0 C 27,4 km/h (4 Bft) 100,00 %
21.06.2018 19:03 26,9 C 26,7 C 48 % 1009,2 hPa 0,0 l/m 10,5 km/h (2 Bft) W 274 0 min 0,000 mm 0,0 UV-I 117 W/m 14,9 C 26,2 C 16,1 km/h (3 Bft) 100,00 %
21.06.2018 19:04 26,8 C 26,7 C 49 % 1009,3 hPa 0,0 l/m 4,0 km/h (1 Bft) W-SW 242 0 min 0,000 mm 0,0 UV-I 109 W/m 15,2 C 26,8 C 6,4 km/h (2 Bft) 100,00 %
21.06.2018 19:05 26,8 C 26,7 C 49 % 1009,3 hPa 0,0 l/m 6,1 km/h (2 Bft) W-NW 302 0 min 0,000 mm 0,0 UV-I 103 W/m 15,2 C 26,8 C 16,1 km/h (3 Bft) 100,00 %
21.06.2018 19:06 26,7 C 26,7 C 48 % 1009,2 hPa 0,0 l/m 12,1 km/h (2 Bft) N-NO 21 0 min 0,000 mm 0,0 UV-I 95 W/m 14,8 C 25,7 C 17,7 km/h (3 Bft) 100,00 %
21.06.2018 19:08 26,6 C 26,7 C 49 % 1009,5 hPa 0,0 l/m 8,2 km/h (2 Bft) W 261 0 min 0,000 mm 0,0 UV-I 83 W/m 15,0 C 26,2 C 24,1 km/h (4 Bft) 100,00 %
21.06.2018 19:09 26,5 C 26,7 C 49 % 1009,5 hPa 0,0 l/m 15,0 km/h (3 Bft) W 269 0 min 0,000 mm 0,0 UV-I 70 W/m 14,9 C 25,1 C 20,9 km/h (4 Bft) 100,00 %
21.06.2018 19:10 26,5 C 26,7 C 49 % 1009,6 hPa 0,0 l/m 12,3 km/h (3 Bft) W-NW 293 0 min 0,000 mm 0,0 UV-I 64 W/m 14,9 C 25,5 C 20,9 km/h (4 Bft) 100,00 %
21.06.2018 19:11 26,4 C 26,7 C 48 % 1009,6 hPa 0,0 l/m 16,4 km/h (3 Bft) W-NW 300 0 min 0,000 mm 0,0 UV-I 63 W/m 14,5 C 24,8 C 29,0 km/h (5 Bft) 100,00 %
21.06.2018 19:13 26,3 C 26,7 C 48 % 1009,8 hPa 0,0 l/m 15,8 km/h (3 Bft) W-NW 294 0 min 0,000 mm 0,0 UV-I 66 W/m 14,4 C 24,8 C 32,2 km/h (5 Bft) 98,31 %
21.06.2018 19:14 26,3 C 26,7 C 48 % 1009,8 hPa 0,0 l/m 18,3 km/h (3 Bft) N-NW 328 0 min 0,000 mm 0,0 UV-I 69 W/m 14,4 C 24,5 C 25,7 km/h (4 Bft) 100,00 %
21.06.2018 19:15 26,2 C 26,7 C 48 % 1009,9 hPa 0,0 l/m 18,3 km/h (3 Bft) W 269 0 min 0,000 mm 0,0 UV-I 72 W/m 14,3 C 24,4 C 25,7 km/h (4 Bft) 91,30 %
21.06.2018 19:16 26,2 C 26,7 C 47 % 1010,0 hPa 0,0 l/m 14,3 km/h (3 Bft) NW 324 0 min 0,000 mm 0,0 UV-I 74 W/m 14,0 C 24,9 C 22,5 km/h (4 Bft) 100,00 %
21.06.2018 19:17 26,1 C 26,7 C 48 % 1010,0 hPa 0,0 l/m 7,2 km/h (2 Bft) W-NW 300 0 min 0,000 mm 0,0 UV-I 74 W/m 14,2 C 25,9 C 14,5 km/h (3 Bft) 100,00 %
21.06.2018 19:18 26,0 C 26,7 C 47 % 1010,0 hPa 0,0 l/m 8,4 km/h (2 Bft) W-SW 257 0 min 0,000 mm 0,0 UV-I 72 W/m 13,8 C 25,6 C 16,1 km/h (3 Bft) 100,00 %
21.06.2018 19:19 25,9 C 26,7 C 48 % 1010,0 hPa 0,0 l/m 9,7 km/h (2 Bft) W 267 0 min 0,000 mm 0,0 UV-I 71 W/m 14,0 C 25,2 C 14,5 km/h (3 Bft) 100,00 %
21.06.2018 19:20 25,9 C 26,7 C 46 % 1010,0 hPa 0,0 l/m 17,0 km/h (3 Bft) N-NW 331 0 min 0,000 mm 0,0 UV-I 70 W/m 13,4 C 24,2 C 25,7 km/h (4 Bft) 100,00 %
21.06.2018 19:21 25,9 C 26,7 C 46 % 1010,0 hPa 0,0 l/m 10,4 km/h (2 Bft) W-SW 252 0 min 0,000 mm 0,0 UV-I 69 W/m 13,4 C 25,1 C 19,3 km/h (3 Bft) 100,00 %
21.06.2018 19:23 25,8 C 26,7 C 44 % 1010,1 hPa 0,0 l/m 9,8 km/h (2 Bft) NW 314 0 min 0,000 mm 0,0 UV-I 67 W/m 12,6 C 25,1 C 17,7 km/h (3 Bft) 98,00 %
21.06.2018 19:24 25,8 C 26,7 C 44 % 1010,1 hPa 0,0 l/m 14,5 km/h (3 Bft) W-NW 289 0 min 0,000 mm 0,0 UV-I 66 W/m 12,6 C 24,3 C 27,4 km/h (4 Bft) 100,00 %
21.06.2018 19:25 25,7 C 26,7 C 42 % 1010,2 hPa 0,0 l/m 12,1 km/h (2 Bft) W 272 0 min 0,000 mm 0,0 UV-I 67 W/m 11,8 C 24,6 C 16,1 km/h (3 Bft) 100,00 %
21.06.2018 19:26 25,7 C 26,7 C 42 % 1010,2 hPa 0,0 l/m 9,0 km/h (2 Bft) W-NW 300 0 min 0,000 mm 0,0 UV-I 69 W/m 11,8 C 25,1 C 17,7 km/h (3 Bft) 100,00 %
21.06.2018 19:28 25,7 C 26,7 C 40 % 1010,3 hPa 0,0 l/m 13,8 km/h (3 Bft) NW 319 0 min 0,000 mm 0,0 UV-I 79 W/m 11,1 C 24,3 C 27,4 km/h (4 Bft) 95,38 %
21.06.2018 19:29 25,7 C 26,7 C 40 % 1010,3 hPa 0,0 l/m 6,1 km/h (2 Bft) N-NW 338 0 min 0,000 mm 0,0 UV-I 92 W/m 11,1 C 25,7 C 12,9 km/h (3 Bft) 100,00 %
21.06.2018 19:30 25,7 C 26,7 C 40 % 1010,3 hPa 0,0 l/m 8,4 km/h (2 Bft) N-NW 338 0 min 0,000 mm 0,0 UV-I 96 W/m 11,1 C 25,3 C 20,9 km/h (4 Bft) 90,91 %
21.06.2018 19:31 25,7 C 26,7 C 38 % 1010,4 hPa 0,0 l/m 18,4 km/h (3 Bft) W 265 0 min 0,000 mm 0,0 UV-I 101 W/m 10,3 C 23,7 C 25,7 km/h (4 Bft) 100,00 %
21.06.2018 19:33 25,7 C 26,7 C 37 % 1010,4 hPa 0,0 l/m 12,3 km/h (3 Bft) W-SW 244 0 min 0,000 mm 0,0 UV-I 104 W/m 9,9 C 24,5 C 20,9 km/h (4 Bft) 96,61 %
21.06.2018 19:34 25,7 C 26,7 C 38 % 1010,4 hPa 0,0 l/m 14,4 km/h (3 Bft) W 279 0 min 0,000 mm 0,0 UV-I 104 W/m 10,3 C 24,2 C 20,9 km/h (4 Bft) 100,00 %
21.06.2018 19:35 25,7 C 26,7 C 38 % 1010,6 hPa 0,0 l/m 18,9 km/h (3 Bft) NW 325 0 min 0,000 mm 0,0 UV-I 103 W/m 10,3 C 23,7 C 30,6 km/h (5 Bft) 91,67 %
21.06.2018 19:36 25,7 C 26,7 C 39 % 1010,6 hPa 0,0 l/m 12,9 km/h (3 Bft) NW 310 0 min 0,000 mm 0,0 UV-I 102 W/m 10,7 C 24,5 C 20,9 km/h (4 Bft) 100,00 %
21.06.2018 19:38 25,6 C 26,7 C 38 % 1010,8 hPa 0,0 l/m 20,3 km/h (4 Bft) NW 311 0 min 0,000 mm 0,0 UV-I 100 W/m 10,2 C 23,4 C 35,4 km/h (5 Bft) 95,74 %
21.06.2018 19:39 25,6 C 26,7 C 37 % 1010,8 hPa 0,0 l/m 14,1 km/h (3 Bft) W 261 0 min 0,000 mm 0,0 UV-I 98 W/m 9,8 C 24,2 C 20,9 km/h (4 Bft) 96,77 %
21.06.2018 19:40 25,6 C 26,7 C 37 % 1010,8 hPa 0,0 l/m 14,7 km/h (3 Bft) W 265 0 min 0,000 mm 0,0 UV-I 97 W/m 9,8 C 24,1 C 20,9 km/h (4 Bft) 93,33 %
21.06.2018 19:41 25,5 C 26,7 C 37 % 1010,8 hPa 0,0 l/m 12,9 km/h (3 Bft) W 274 0 min 0,000 mm 0,0 UV-I 97 W/m 9,7 C 24,2 C 20,9 km/h (4 Bft) 95,65 %
21.06.2018 19:42 25,5 C 26,7 C 37 % 1010,8 hPa 0,0 l/m 7,3 km/h (2 Bft) W 271 0 min 0,000 mm 0,0 UV-I 100 W/m 9,7 C 25,3 C 16,1 km/h (3 Bft) 95,83 %
21.06.2018 19:43 25,4 C 26,7 C 38 % 1010,8 hPa 0,0 l/m 11,8 km/h (2 Bft) O 88 0 min 0,000 mm 0,0 UV-I 104 W/m 10,0 C 24,3 C 16,1 km/h (3 Bft) 95,65 %
21.06.2018 19:44 25,4 C 26,7 C 38 % 1010,8 hPa 0,0 l/m 7,4 km/h (2 Bft) W-SW 242 1 min 0,000 mm 0,0 UV-I 108 W/m 10,0 C 25,2 C 16,1 km/h (3 Bft) 95,83 %
21.06.2018 19:45 25,4 C 26,7 C 37 % 1010,8 hPa 0,0 l/m 8,0 km/h (2 Bft) W 259 1 min 0,000 mm 0,0 UV-I 114 W/m 9,6 C 25,0 C 11,3 km/h (2 Bft) 95,65 %
21.06.2018 19:46 25,4 C 26,7 C 38 % 1010,8 hPa 0,0 l/m 10,2 km/h (2 Bft) W-SW 253 1 min 0,000 mm 0,0 UV-I 118 W/m 10,0 C 24,6 C 16,1 km/h (3 Bft) 91,67 %
21.06.2018 19:47 25,4 C 26,7 C 38 % 1010,8 hPa 0,0 l/m 14,3 km/h (3 Bft) W-SW 252 1 min 0,000 mm 0,0 UV-I 120 W/m 10,0 C 23,9 C 22,5 km/h (4 Bft) 91,30 %
21.06.2018 19:48 25,4 C 26,7 C 38 % 1010,8 hPa 0,0 l/m 10,4 km/h (2 Bft) NW 317 1 min 0,000 mm 0,0 UV-I 121 W/m 10,0 C 24,5 C 19,3 km/h (3 Bft) 95,83 %
21.06.2018 19:49 25,3 C 26,7 C 37 % 1010,9 hPa 0,0 l/m 13,2 km/h (3 Bft) W-SW 240 1 min 0,000 mm 0,0 UV-I 120 W/m 9,6 C 23,9 C 17,7 km/h (3 Bft) 95,65 %
21.06.2018 19:50 25,3 C 26,7 C 38 % 1010,9 hPa 0,0 l/m 9,5 km/h (2 Bft) W 275 1 min 0,000 mm 0,0 UV-I 122 W/m 9,9 C 24,6 C 16,1 km/h (3 Bft) 95,83 %
21.06.2018 19:51 25,3 C 26,7 C 38 % 1010,9 hPa 0,0 l/m 10,2 km/h (2 Bft) W-NW 284 1 min 0,000 mm 0,0 UV-I 120 W/m 9,9 C 24,5 C 16,1 km/h (3 Bft) 91,30 %
21.06.2018 19:53 25,3 C 26,7 C 38 % 1010,8 hPa 0,0 l/m 7,6 km/h (2 Bft) W 265 2 min 0,000 mm 0,0 UV-I 119 W/m 9,9 C 25,0 C 16,1 km/h (3 Bft) 89,83 %
21.06.2018 19:54 25,3 C 26,7 C 39 % 1010,8 hPa 0,0 l/m 9,7 km/h (2 Bft) W 274 1 min 0,000 mm 0,0 UV-I 114 W/m 10,3 C 24,6 C 12,9 km/h (3 Bft) 91,67 %
21.06.2018 19:55 25,3 C 26,7 C 39 % 1010,8 hPa 0,0 l/m 8,2 km/h (2 Bft) W-NW 286 1 min 0,000 mm 0,0 UV-I 110 W/m 10,3 C 24,9 C 12,9 km/h (3 Bft) 100,00 %
21.06.2018 19:56 25,3 C 26,1 C 38 % 1010,9 hPa 0,0 l/m 9,9 km/h (2 Bft) SW 220 1 min 0,000 mm 0,0 UV-I 102 W/m 9,9 C 24,5 C 14,5 km/h (3 Bft) 92,31 %
21.06.2018 19:58 25,3 C 26,1 C 39 % 1010,9 hPa 0,0 l/m 7,7 km/h (2 Bft) W 275 2 min 0,000 mm 0,0 UV-I 91 W/m 10,3 C 25,0 C 17,7 km/h (3 Bft) 93,62 %
21.06.2018 19:59 25,2 C 26,1 C 39 % 1010,9 hPa 0,0 l/m 8,4 km/h (2 Bft) W-SW 246 0 min 0,000 mm 0,0 UV-I 80 W/m 10,2 C 24,7 C 11,3 km/h (2 Bft) 95,83 %
21.06.2018 20:00 25,2 C 26,1 C 39 % 1010,8 hPa 0,0 l/m 10,6 km/h (2 Bft) N-NW 335 0 min 0,000 mm 0,0 UV-I 75 W/m 10,2 C 24,3 C 14,5 km/h (3 Bft) 96,15 %
21.06.2018 20:02 25,1 C 26,1 C 39 % 1010,8 hPa 0,0 l/m 9,8 km/h (2 Bft) W 277 0 min 0,178 mm 0,0 UV-I 70 W/m 10,2 C 24,3 C 16,1 km/h (3 Bft) 92,11 %
21.06.2018 20:03 25,1 C 26,1 C 40 % 1010,8 hPa 0,0 l/m 12,7 km/h (3 Bft) W-SW 251 0 min 0,000 mm 0,0 UV-I 67 W/m 10,5 C 23,8 C 14,5 km/h (3 Bft) 91,67 %
21.06.2018 20:04 25,1 C 26,1 C 40 % 1010,9 hPa 0,0 l/m 11,1 km/h (2 Bft) NW 313 0 min 0,000 mm 0,0 UV-I 64 W/m 10,5 C 24,1 C 16,1 km/h (3 Bft) 100,00 %
21.06.2018 20:05 25,0 C 26,1 C 40 % 1010,7 hPa 0,0 l/m 12,6 km/h (3 Bft) W-NW 300 0 min 0,000 mm 0,0 UV-I 60 W/m 10,4 C 23,7 C 22,5 km/h (4 Bft) 91,67 %
21.06.2018 20:06 25,0 C 26,1 C 40 % 1010,9 hPa 0,0 l/m 13,4 km/h (3 Bft) W-SW 250 0 min 0,000 mm 0,0 UV-I 57 W/m 10,4 C 23,6 C 20,9 km/h (4 Bft) 100,00 %
21.06.2018 20:07 25,0 C 26,1 C 39 % 1010,9 hPa 0,0 l/m 11,4 km/h (2 Bft) W 273 0 min 0,000 mm 0,0 UV-I 54 W/m 10,1 C 23,9 C 16,1 km/h (3 Bft) 91,67 %
21.06.2018 20:08 24,9 C 26,1 C 40 % 1010,9 hPa 0,0 l/m 15,9 km/h (3 Bft) W-NW 290 0 min 0,000 mm 0,0 UV-I 50 W/m 10,4 C 23,1 C 25,7 km/h (4 Bft) 100,00 %
21.06.2018 20:09 24,9 C 26,1 C 40 % 1010,9 hPa 0,0 l/m 9,4 km/h (2 Bft) W 263 0 min 0,000 mm 0,0 UV-I 47 W/m 10,4 C 24,2 C 16,1 km/h (3 Bft) 91,67 %
21.06.2018 20:10 24,9 C 26,1 C 40 % 1010,9 hPa 0,0 l/m 10,4 km/h (2 Bft) W-SW 252 0 min 0,000 mm 0,0 UV-I 45 W/m 10,4 C 24,0 C 12,9 km/h (3 Bft) 96,15 %
21.06.2018 20:11 24,9 C 26,1 C 40 % 1010,9 hPa 0,0 l/m 9,4 km/h (2 Bft) W-SW 257 0 min 0,000 mm 0,0 UV-I 44 W/m 10,4 C 24,2 C 12,9 km/h (3 Bft) 100,00 %
21.06.2018 20:13 24,8 C 26,1 C 41 % 1010,9 hPa 0,0 l/m 12,2 km/h (2 Bft) W 273 0 min 0,000 mm 0,0 UV-I 40 W/m 10,6 C 23,5 C 19,3 km/h (3 Bft) 93,62 %
21.06.2018 20:14 24,8 C 26,1 C 41 % 1010,9 hPa 0,0 l/m 9,4 km/h (2 Bft) W 267 0 min 0,000 mm 0,0 UV-I 39 W/m 10,6 C 24,1 C 12,9 km/h (3 Bft) 86,96 %
21.06.2018 20:15 24,8 C 26,1 C 41 % 1011,0 hPa 0,0 l/m 8,9 km/h (2 Bft) W 270 0 min 0,000 mm 0,0 UV-I 33 W/m 10,6 C 24,2 C 14,5 km/h (3 Bft) 100,00 %
21.06.2018 20:16 24,7 C 26,1 C 41 % 1011,0 hPa 0,0 l/m 11,2 km/h (2 Bft) W 266 0 min 0,000 mm 0,0 UV-I 30 W/m 10,6 C 23,6 C 16,1 km/h (3 Bft) 91,30 %
21.06.2018 20:18 24,7 C 26,1 C 41 % 1011,0 hPa 0,0 l/m 11,4 km/h (2 Bft) W 270 0 min 0,000 mm 0,0 UV-I 24 W/m 10,6 C 23,6 C 17,7 km/h (3 Bft) 97,87 %
21.06.2018 20:19 24,6 C 26,1 C 41 % 1011,0 hPa 0,0 l/m 12,6 km/h (3 Bft) W 268 0 min 0,000 mm 0,0 UV-I 13 W/m 10,5 C 23,2 C 16,1 km/h (3 Bft) 95,83 %
21.06.2018 20:20 24,6 C 26,1 C 42 % 1011,0 hPa 0,0 l/m 11,3 km/h (2 Bft) W-NW 282 0 min 0,000 mm 0,0 UV-I 11 W/m 10,8 C 23,5 C 14,5 km/h (3 Bft) 100,00 %
21.06.2018 20:21 24,6 C 26,1 C 42 % 1011,1 hPa 0,0 l/m 8,2 km/h (2 Bft) W 261 0 min 0,000 mm 0,0 UV-I 12 W/m 10,8 C 24,1 C 11,3 km/h (2 Bft) 91,30 %
21.06.2018 20:22 24,6 C 26,1 C 42 % 1011,0 hPa 0,0 l/m 9,5 km/h (2 Bft) W 260 0 min 0,000 mm 0,0 UV-I 15 W/m 10,8 C 23,8 C 12,9 km/h (3 Bft) 100,00 %
21.06.2018 20:23 24,6 C 26,1 C 42 % 1011,1 hPa 0,0 l/m 11,7 km/h (2 Bft) W 274 0 min 0,000 mm 0,0 UV-I 13 W/m 10,8 C 23,4 C 19,3 km/h (3 Bft) 95,65 %
21.06.2018 20:24 24,6 C 26,1 C 42 % 1011,1 hPa 0,0 l/m 11,3 km/h (2 Bft) W-SW 252 0 min 0,000 mm 0,0 UV-I 12 W/m 10,8 C 23,5 C 16,1 km/h (3 Bft) 100,00 %
21.06.2018 20:25 24,5 C 26,1 C 43 % 1011,1 hPa 0,0 l/m 14,8 km/h (3 Bft) W 263 0 min 0,000 mm 0,0 UV-I 11 W/m 11,1 C 22,7 C 19,3 km/h (3 Bft) 92,86 %
21.06.2018 20:26 24,5 C 26,1 C 42 % 1011,1 hPa 0,0 l/m 14,8 km/h (3 Bft) W-SW 253 0 min 0,000 mm 0,0 UV-I 11 W/m 10,7 C 22,7 C 19,3 km/h (3 Bft) 95,83 %
21.06.2018 20:28 24,4 C 26,1 C 42 % 1011,2 hPa 0,0 l/m 12,1 km/h (2 Bft) W 263 0 min 0,000 mm 0,0 UV-I 12 W/m 10,6 C 23,1 C 17,7 km/h (3 Bft) 98,00 %
21.06.2018 20:29 24,4 C 26,1 C 42 % 1011,2 hPa 0,0 l/m 17,3 km/h (3 Bft) W 281 0 min 0,000 mm 0,0 UV-I 12 W/m 10,6 C 22,2 C 25,7 km/h (4 Bft) 95,65 %
21.06.2018 20:30 24,4 C 26,1 C 42 % 1011,1 hPa 0,0 l/m 14,8 km/h (3 Bft) W-SW 246 0 min 0,000 mm 0,0 UV-I 12 W/m 10,6 C 22,6 C 22,5 km/h (4 Bft) 95,83 %
21.06.2018 20:31 24,4 C 26,1 C 43 % 1011,1 hPa 0,0 l/m 13,7 km/h (3 Bft) W-NW 297 0 min 0,000 mm 0,0 UV-I 12 W/m 11,0 C 22,8 C 20,9 km/h (4 Bft) 95,65 %
21.06.2018 20:33 24,3 C 26,1 C 43 % 1011,2 hPa 0,0 l/m 12,8 km/h (3 Bft) W-SW 255 0 min 0,000 mm 0,0 UV-I 13 W/m 10,9 C 22,8 C 17,7 km/h (3 Bft) 97,87 %
21.06.2018 20:34 24,3 C 26,1 C 44 % 1011,2 hPa 0,0 l/m 14,4 km/h (3 Bft) W-SW 250 0 min 0,000 mm 0,0 UV-I 14 W/m 11,3 C 22,6 C 20,9 km/h (4 Bft) 93,33 %
21.06.2018 20:35 24,2 C 26,1 C 44 % 1011,2 hPa 0,0 l/m 9,7 km/h (2 Bft) W-SW 251 0 min 0,000 mm 0,0 UV-I 14 W/m 11,2 C 23,3 C 14,5 km/h (3 Bft) 100,00 %
21.06.2018 20:36 24,2 C 26,1 C 44 % 1011,2 hPa 0,0 l/m 14,1 km/h (3 Bft) W-SW 242 0 min 0,000 mm 0,0 UV-I 15 W/m 11,2 C 22,5 C 19,3 km/h (3 Bft) 96,15 %
21.06.2018 20:38 24,1 C 26,1 C 45 % 1011,1 hPa 0,0 l/m 16,5 km/h (3 Bft) W-SW 256 0 min 0,000 mm 0,0 UV-I 19 W/m 11,4 C 22,0 C 22,5 km/h (4 Bft) 98,31 %
21.06.2018 20:39 24,1 C 26,1 C 45 % 1011,1 hPa 0,0 l/m 16,3 km/h (3 Bft) W 273 0 min 0,000 mm 0,0 UV-I 21 W/m 11,4 C 22,0 C 22,5 km/h (4 Bft) 100,00 %
21.06.2018 20:40 24,1 C 26,1 C 45 % 1011,1 hPa 0,0 l/m 16,5 km/h (3 Bft) W 266 0 min 0,000 mm 0,0 UV-I 21 W/m 11,4 C 22,0 C 22,5 km/h (4 Bft) 100,00 %
21.06.2018 20:41 24,1 C 26,1 C 45 % 1011,2 hPa 0,0 l/m 14,1 km/h (3 Bft) W 267 0 min 0,000 mm 0,0 UV-I 20 W/m 11,4 C 22,4 C 19,3 km/h (3 Bft) 100,00 %
21.06.2018 20:43 24,0 C 26,1 C 46 % 1011,1 hPa 0,0 l/m 17,3 km/h (3 Bft) W-SW 250 0 min 0,000 mm 0,0 UV-I 19 W/m 11,7 C 21,7 C 22,5 km/h (4 Bft) 98,31 %
21.06.2018 20:44 23,9 C 26,1 C 46 % 1011,1 hPa 0,0 l/m 13,0 km/h (3 Bft) W-SW 245 0 min 0,000 mm 0,0 UV-I 18 W/m 11,6 C 22,3 C 17,7 km/h (3 Bft) 100,00 %
21.06.2018 20:45 23,9 C 26,1 C 47 % 1011,1 hPa 0,0 l/m 14,3 km/h (3 Bft) W 260 0 min 0,000 mm 0,0 UV-I 18 W/m 11,9 C 22,1 C 20,9 km/h (4 Bft) 100,00 %
21.06.2018 20:46 23,9 C 26,1 C 47 % 1011,1 hPa 0,0 l/m 18,3 km/h (3 Bft) W 266 0 min 0,000 mm 0,0 UV-I 17 W/m 11,9 C 21,5 C 22,5 km/h (4 Bft) 91,30 %
21.06.2018 20:48 23,8 C 26,1 C 47 % 1011,1 hPa 0,0 l/m 13,1 km/h (3 Bft) W-SW 242 0 min 0,000 mm 0,0 UV-I 16 W/m 11,8 C 22,2 C 20,9 km/h (4 Bft) 100,00 %
21.06.2018 20:49 23,8 C 26,1 C 47 % 1011,1 hPa 0,0 l/m 14,2 km/h (3 Bft) W 273 1 min 0,000 mm 0,0 UV-I 16 W/m 11,8 C 22,0 C 19,3 km/h (3 Bft) 100,00 %
21.06.2018 20:50 23,7 C 26,1 C 47 % 1011,1 hPa 0,0 l/m 11,4 km/h (2 Bft) W-SW 248 0 min 0,000 mm 0,0 UV-I 14 W/m 11,7 C 22,4 C 14,5 km/h (3 Bft) 100,00 %
21.06.2018 20:51 23,7 C 26,1 C 48 % 1011,1 hPa 0,0 l/m 14,1 km/h (3 Bft) W 268 1 min 0,000 mm 0,0 UV-I 14 W/m 12,0 C 21,9 C 17,7 km/h (3 Bft) 100,00 %
21.06.2018 20:52 23,6 C 26,1 C 48 % 1011,1 hPa 0,0 l/m 13,2 km/h (3 Bft) W 264 1 min 0,000 mm 0,0 UV-I 13 W/m 11,9 C 21,9 C 20,9 km/h (4 Bft) 100,00 %
21.06.2018 20:53 23,6 C 26,1 C 48 % 1011,2 hPa 0,0 l/m 13,1 km/h (3 Bft) W 262 1 min 0,000 mm 0,0 UV-I 12 W/m 11,9 C 22,0 C 17,7 km/h (3 Bft) 95,83 %
21.06.2018 20:54 23,6 C 26,1 C 48 % 1011,1 hPa 0,0 l/m 16,0 km/h (3 Bft) W 271 1 min 0,000 mm 0,0 UV-I 12 W/m 11,9 C 21,4 C 20,9 km/h (4 Bft) 100,00 %
21.06.2018 20:55 23,5 C 26,1 C 48 % 1011,2 hPa 0,0 l/m 14,1 km/h (3 Bft) W 263 0 min 0,000 mm 0,0 UV-I 12 W/m 11,8 C 21,7 C 17,7 km/h (3 Bft) 100,00 %
21.06.2018 20:56 23,5 C 26,1 C 48 % 1011,2 hPa 0,0 l/m 12,0 km/h (2 Bft) W-SW 257 0 min 0,000 mm 0,0 UV-I 12 W/m 11,8 C 22,1 C 16,1 km/h (3 Bft) 100,00 %
21.06.2018 20:57 23,4 C 26,1 C 48 % 1011,3 hPa 0,0 l/m 17,2 km/h (3 Bft) W-SW 252 0 min 0,000 mm 0,0 UV-I 12 W/m 11,8 C 21,0 C 22,5 km/h (4 Bft) 95,83 %
21.06.2018 20:58 23,4 C 26,1 C 48 % 1011,3 hPa 0,0 l/m 11,1 km/h (2 Bft) W-SW 242 0 min 0,000 mm 0,0 UV-I 11 W/m 11,8 C 22,1 C 17,7 km/h (3 Bft) 100,00 %
21.06.2018 20:59 23,4 C 26,1 C 48 % 1011,3 hPa 0,0 l/m 14,2 km/h (3 Bft) SW 233 0 min 0,000 mm 0,0 UV-I 10 W/m 11,8 C 21,5 C 17,7 km/h (3 Bft) 100,00 %
21.06.2018 21:00 23,4 C 26,1 C 48 % 1011,3 hPa 0,0 l/m 14,6 km/h (3 Bft) SW 234 0 min 0,127 mm 0,0 UV-I 9 W/m 11,8 C 21,4 C 22,5 km/h (4 Bft) 100,00 %
21.06.2018 21:02 23,4 C 26,1 C 48 % 1011,3 hPa 0,0 l/m 13,1 km/h (3 Bft) W 273 0 min 0,000 mm 0,0 UV-I 8 W/m 11,8 C 21,7 C 22,5 km/h (4 Bft) 97,87 %
21.06.2018 21:03 23,4 C 26,1 C 48 % 1011,3 hPa 0,0 l/m 13,6 km/h (3 Bft) W 281 0 min 0,000 mm 0,0 UV-I 7 W/m 11,8 C 21,6 C 22,5 km/h (4 Bft) 100,00 %
21.06.2018 21:04 23,3 C 26,1 C 48 % 1011,3 hPa 0,0 l/m 11,0 km/h (2 Bft) W 267 0 min 0,000 mm 0,0 UV-I 7 W/m 11,7 C 22,0 C 12,9 km/h (3 Bft) 100,00 %
21.06.2018 21:05 23,3 C 26,1 C 49 % 1011,3 hPa 0,0 l/m 12,2 km/h (2 Bft) W 265 0 min 0,000 mm 0,0 UV-I 8 W/m 12,0 C 21,8 C 16,1 km/h (3 Bft) 100,00 %
21.06.2018 21:06 23,3 C 26,1 C 48 % 1011,3 hPa 0,0 l/m 13,2 km/h (3 Bft) W-SW 257 0 min 0,000 mm 0,0 UV-I 9 W/m 11,7 C 21,6 C 19,3 km/h (3 Bft) 100,00 %
21.06.2018 21:07 23,3 C 26,1 C 48 % 1011,3 hPa 0,0 l/m 12,1 km/h (2 Bft) W 275 0 min 0,000 mm 0,0 UV-I 7 W/m 11,7 C 21,8 C 16,1 km/h (3 Bft) 100,00 %
21.06.2018 21:08 23,3 C 26,1 C 48 % 1011,4 hPa 0,0 l/m 11,1 km/h (2 Bft) W-SW 253 0 min 0,000 mm 0,0 UV-I 7 W/m 11,7 C 22,0 C 16,1 km/h (3 Bft) 100,00 %
21.06.2018 21:09 23,3 C 26,1 C 48 % 1011,4 hPa 0,0 l/m 14,3 km/h (3 Bft) W 277 0 min 0,000 mm 0,0 UV-I 7 W/m 11,7 C 21,4 C 19,3 km/h (3 Bft) 100,00 %
21.06.2018 21:10 23,3 C 26,1 C 48 % 1011,4 hPa 0,0 l/m 15,1 km/h (3 Bft) W-SW 256 0 min 0,000 mm 0,0 UV-I 7 W/m 11,7 C 21,2 C 22,5 km/h (4 Bft) 100,00 %
21.06.2018 21:11 23,3 C 26,1 C 48 % 1011,4 hPa 0,0 l/m 13,9 km/h (3 Bft) W 269 0 min 0,000 mm 0,0 UV-I 7 W/m 11,7 C 21,4 C 22,5 km/h (4 Bft) 95,65 %
21.06.2018 21:12 23,3 C 26,1 C 48 % 1011,5 hPa 0,0 l/m 12,1 km/h (2 Bft) W-SW 254 0 min 0,000 mm 0,0 UV-I 7 W/m 11,7 C 21,8 C 14,5 km/h (3 Bft) 100,00 %
21.06.2018 21:13 23,3 C 26,1 C 48 % 1011,5 hPa 0,0 l/m 11,9 km/h (2 Bft) W-SW 246 0 min 0,000 mm 0,0 UV-I 5 W/m 11,7 C 21,9 C 14,5 km/h (3 Bft) 91,30 %
21.06.2018 21:14 23,2 C 26,1 C 49 % 1011,4 hPa 0,0 l/m 11,5 km/h (2 Bft) W-SW 254 0 min 0,000 mm 0,0 UV-I 5 W/m 11,9 C 21,8 C 16,1 km/h (3 Bft) 100,00 %
21.06.2018 21:15 23,2 C 26,1 C 49 % 1011,5 hPa 0,0 l/m 12,1 km/h (2 Bft) W 262 0 min 0,000 mm 0,0 UV-I 5 W/m 11,9 C 21,7 C 14,5 km/h (3 Bft) 100,00 %
21.06.2018 21:16 23,1 C 26,1 C 49 % 1011,5 hPa 0,0 l/m 13,5 km/h (3 Bft) W 275 0 min 0,000 mm 0,0 UV-I 5 W/m 11,8 C 21,3 C 19,3 km/h (3 Bft) 100,00 %
21.06.2018 21:18 23,1 C 26,1 C 49 % 1011,6 hPa 0,0 l/m 12,6 km/h (3 Bft) W-SW 247 0 min 0,000 mm 0,0 UV-I 5 W/m 11,8 C 21,5 C 17,7 km/h (3 Bft) 100,00 %
21.06.2018 21:19 23,1 C 26,1 C 50 % 1011,6 hPa 0,0 l/m 12,2 km/h (2 Bft) W 267 0 min 0,000 mm 0,0 UV-I 5 W/m 12,1 C 21,6 C 16,1 km/h (3 Bft) 100,00 %
21.06.2018 21:20 23,1 C 26,1 C 50 % 1011,6 hPa 0,0 l/m 15,3 km/h (3 Bft) W-SW 249 0 min 0,000 mm 0,0 UV-I 5 W/m 12,1 C 21,0 C 19,3 km/h (3 Bft) 100,00 %
21.06.2018 21:21 23,0 C 26,1 C 50 % 1011,6 hPa 0,0 l/m 16,3 km/h (3 Bft) W 265 0 min 0,000 mm 0,0 UV-I 5 W/m 12,0 C 20,7 C 22,5 km/h (4 Bft) 100,00 %
21.06.2018 21:23 22,9 C 26,1 C 51 % 1011,7 hPa 0,0 l/m 12,5 km/h (3 Bft) W 269 0 min 0,000 mm 0,0 UV-I 1 W/m 12,2 C 21,3 C 19,3 km/h (3 Bft) 100,00 %
21.06.2018 21:24 22,8 C 26,1 C 52 % 1011,7 hPa 0,0 l/m 11,4 km/h (2 Bft) S-SW 202 0 min 0,000 mm 0,0 UV-I 0 W/m 12,4 C 21,4 C 16,1 km/h (3 Bft) 100,00 %
21.06.2018 21:25 22,8 C 26,1 C 52 % 1011,8 hPa 0,0 l/m 16,0 km/h (3 Bft) SW 223 0 min 0,000 mm 0,0 UV-I 0 W/m 12,4 C 20,5 C 20,9 km/h (4 Bft) 100,00 %
21.06.2018 21:26 22,8 C 26,1 C 53 % 1011,8 hPa 0,0 l/m 13,5 km/h (3 Bft) W 270 0 min 0,000 mm 0,0 UV-I 0 W/m 12,7 C 20,9 C 17,7 km/h (3 Bft) 100,00 %
21.06.2018 21:27 22,8 C 26,1 C 54 % 1011,8 hPa 0,0 l/m 12,5 km/h (3 Bft) SW 234 0 min 0,000 mm 0,0 UV-I 0 W/m 13,0 C 21,1 C 16,1 km/h (3 Bft) 100,00 %
21.06.2018 21:28 22,7 C 26,1 C 55 % 1011,8 hPa 0,0 l/m 12,2 km/h (2 Bft) W 271 0 min 0,000 mm 0,0 UV-I 0 W/m 13,2 C 21,1 C 16,1 km/h (3 Bft) 100,00 %
21.06.2018 21:29 22,7 C 26,1 C 56 % 1011,8 hPa 0,0 l/m 13,5 km/h (3 Bft) W 277 0 min 0,000 mm 0,0 UV-I 0 W/m 13,5 C 20,8 C 20,9 km/h (4 Bft) 100,00 %
21.06.2018 21:30 22,7 C 26,1 C 57 % 1011,9 hPa 0,0 l/m 13,6 km/h (3 Bft) W-SW 238 0 min 0,000 mm 0,0 UV-I 0 W/m 13,7 C 20,8 C 17,7 km/h (3 Bft) 100,00 %
21.06.2018 21:31 22,6 C 26,1 C 58 % 1011,9 hPa 0,0 l/m 10,7 km/h (2 Bft) W-SW 242 0 min 0,000 mm 0,0 UV-I 0 W/m 13,9 C 21,3 C 14,5 km/h (3 Bft) 100,00 %
21.06.2018 21:33 22,4 C 26,1 C 59 % 1012,0 hPa 0,0 l/m 11,3 km/h (2 Bft) W-SW 243 0 min 0,000 mm 0,0 UV-I 0 W/m 14,0 C 21,0 C 17,7 km/h (3 Bft) 97,87 %
21.06.2018 21:34 22,4 C 26,1 C 61 % 1012,0 hPa 0,0 l/m 11,5 km/h (2 Bft) SW 221 0 min 0,000 mm 0,0 UV-I 0 W/m 14,5 C 20,9 C 14,5 km/h (3 Bft) 100,00 %
21.06.2018 21:35 22,3 C 26,1 C 61 % 1011,9 hPa 0,0 l/m 9,3 km/h (2 Bft) SW 234 0 min 0,000 mm 0,0 UV-I 0 W/m 14,4 C 21,4 C 14,5 km/h (3 Bft) 95,83 %
21.06.2018 21:36 22,3 C 26,1 C 61 % 1011,9 hPa 0,0 l/m 10,4 km/h (2 Bft) SW 233 0 min 0,000 mm 0,0 UV-I 0 W/m 14,4 C 21,1 C 16,1 km/h (3 Bft) 95,83 %
21.06.2018 21:37 22,3 C 26,1 C 62 % 1012,0 hPa 0,0 l/m 13,1 km/h (3 Bft) W-SW 243 0 min 0,000 mm 0,0 UV-I 0 W/m 14,7 C 20,4 C 20,9 km/h (4 Bft) 100,00 %
21.06.2018 21:38 22,2 C 26,1 C 62 % 1012,0 hPa 0,0 l/m 14,5 km/h (3 Bft) SW 236 0 min 0,000 mm 0,0 UV-I 0 W/m 14,6 C 20,0 C 20,9 km/h (4 Bft) 96,88 %
21.06.2018 21:39 22,2 C 26,1 C 62 % 1012,0 hPa 0,0 l/m 18,0 km/h (3 Bft) SW 234 0 min 0,000 mm 0,0 UV-I 0 W/m 14,6 C 19,4 C 22,5 km/h (4 Bft) 100,00 %
21.06.2018 21:40 22,2 C 26,1 C 63 % 1012,0 hPa 0,0 l/m 14,3 km/h (3 Bft) W-SW 238 0 min 0,000 mm 0,0 UV-I 0 W/m 14,8 C 20,1 C 22,5 km/h (4 Bft) 95,83 %
21.06.2018 21:41 22,2 C 26,1 C 64 % 1012,0 hPa 0,0 l/m 13,1 km/h (3 Bft) W 263 0 min 0,000 mm 0,0 UV-I 0 W/m 15,1 C 20,3 C 22,5 km/h (4 Bft) 95,65 %
21.06.2018 21:42 22,1 C 26,1 C 64 % 1011,9 hPa 0,0 l/m 10,9 km/h (2 Bft) W-SW 242 0 min 0,000 mm 0,0 UV-I 0 W/m 15,0 C 20,7 C 14,5 km/h (3 Bft) 95,83 %
21.06.2018 21:43 22,1 C 26,1 C 64 % 1012,0 hPa 0,0 l/m 12,7 km/h (3 Bft) W 265 0 min 0,000 mm 0,0 UV-I 0 W/m 15,0 C 20,3 C 17,7 km/h (3 Bft) 100,00 %
21.06.2018 21:44 22,0 C 26,1 C 64 % 1012,0 hPa 0,0 l/m 10,3 km/h (2 Bft) SW 229 0 min 0,000 mm 0,0 UV-I 0 W/m 14,9 C 20,8 C 19,3 km/h (3 Bft) 97,22 %
21.06.2018 21:45 22,0 C 26,1 C 64 % 1012,0 hPa 0,0 l/m 10,7 km/h (2 Bft) W-SW 241 0 min 0,000 mm 0,0 UV-I 0 W/m 14,9 C 20,7 C 16,1 km/h (3 Bft) 100,00 %
21.06.2018 21:46 22,0 C 26,1 C 65 % 1012,0 hPa 0,0 l/m 12,5 km/h (3 Bft) W-SW 241 0 min 0,000 mm 0,0 UV-I 0 W/m 15,1 C 20,2 C 19,3 km/h (3 Bft) 95,83 %
21.06.2018 21:47 21,9 C 26,1 C 65 % 1012,0 hPa 0,0 l/m 12,5 km/h (3 Bft) SW 225 0 min 0,000 mm 0,0 UV-I 0 W/m 15,0 C 20,1 C 14,5 km/h (3 Bft) 100,00 %
21.06.2018 21:48 21,9 C 26,1 C 65 % 1012,0 hPa 0,0 l/m 10,9 km/h (2 Bft) W-SW 244 0 min 0,000 mm 0,0 UV-I 0 W/m 15,0 C 20,5 C 14,5 km/h (3 Bft) 96,15 %
21.06.2018 21:49 21,9 C 26,1 C 65 % 1012,1 hPa 0,0 l/m 13,3 km/h (3 Bft) W-SW 250 0 min 0,000 mm 0,0 UV-I 0 W/m 15,0 C 19,9 C 17,7 km/h (3 Bft) 95,83 %
21.06.2018 21:50 21,9 C 26,1 C 65 % 1012,1 hPa 0,0 l/m 14,2 km/h (3 Bft) W 263 0 min 0,000 mm 0,0 UV-I 0 W/m 15,0 C 19,7 C 16,1 km/h (3 Bft) 100,00 %
21.06.2018 21:51 21,9 C 26,1 C 65 % 1012,1 hPa 0,0 l/m 14,3 km/h (3 Bft) W-SW 242 0 min 0,000 mm 0,0 UV-I 0 W/m 15,0 C 19,7 C 17,7 km/h (3 Bft) 95,83 %
21.06.2018 21:52 21,9 C 26,1 C 65 % 1012,0 hPa 0,0 l/m 14,7 km/h (3 Bft) W-SW 239 0 min 0,000 mm 0,0 UV-I 0 W/m 15,0 C 19,6 C 20,9 km/h (4 Bft) 100,00 %
21.06.2018 21:53 21,9 C 26,1 C 65 % 1012,1 hPa 0,0 l/m 15,8 km/h (3 Bft) W-SW 243 0 min 0,000 mm 0,0 UV-I 0 W/m 15,0 C 19,4 C 22,5 km/h (4 Bft) 95,83 %
21.06.2018 21:54 21,9 C 26,1 C 65 % 1012,1 hPa 0,0 l/m 11,8 km/h (2 Bft) W-SW 248 0 min 0,000 mm 0,0 UV-I 0 W/m 15,0 C 20,3 C 19,3 km/h (3 Bft) 100,00 %
21.06.2018 21:55 21,8 C 26,1 C 66 % 1012,1 hPa 0,0 l/m 11,5 km/h (2 Bft) W-SW 256 0 min 0,000 mm 0,0 UV-I 0 W/m 15,2 C 20,2 C 17,7 km/h (3 Bft) 95,83 %
21.06.2018 21:56 21,8 C 26,1 C 66 % 1012,1 hPa 0,0 l/m 12,4 km/h (3 Bft) W-SW 240 0 min 0,000 mm 0,0 UV-I 0 W/m 15,2 C 20,0 C 17,7 km/h (3 Bft) 95,65 %
21.06.2018 21:58 21,7 C 26,1 C 66 % 1012,1 hPa 0,0 l/m 13,2 km/h (3 Bft) W 259 0 min 0,000 mm 0,0 UV-I 0 W/m 15,1 C 19,7 C 19,3 km/h (3 Bft) 97,87 %
21.06.2018 21:59 21,7 C 26,1 C 67 % 1012,1 hPa 0,0 l/m 14,6 km/h (3 Bft) W-SW 243 0 min 0,000 mm 0,0 UV-I 0 W/m 15,3 C 19,4 C 20,9 km/h (4 Bft) 100,00 %
21.06.2018 22:00 21,7 C 26,1 C 67 % 1012,1 hPa 0,0 l/m 15,3 km/h (3 Bft) SW 236 0 min 0,000 mm 0,0 UV-I 0 W/m 15,3 C 19,2 C 17,7 km/h (3 Bft) 96,15 %
21.06.2018 22:02 21,6 C 26,1 C 66 % 1012,1 hPa 0,0 l/m 13,2 km/h (3 Bft) W 268 0 min 0,101 mm 0,0 UV-I 0 W/m 15,0 C 19,6 C 22,5 km/h (4 Bft) 97,87 %
21.06.2018 22:03 21,6 C 26,1 C 66 % 1012,1 hPa 0,0 l/m 14,8 km/h (3 Bft) SW 234 0 min 0,000 mm 0,0 UV-I 0 W/m 15,0 C 19,2 C 20,9 km/h (4 Bft) 95,83 %
21.06.2018 22:04 21,6 C 26,1 C 65 % 1012,2 hPa 0,0 l/m 14,1 km/h (3 Bft) W-SW 237 0 min 0,000 mm 0,0 UV-I 0 W/m 14,7 C 19,4 C 19,3 km/h (3 Bft) 100,00 %
21.06.2018 22:05 21,6 C 26,1 C 65 % 1012,1 hPa 0,0 l/m 17,5 km/h (3 Bft) SW 223 0 min 0,000 mm 0,0 UV-I 0 W/m 14,7 C 18,7 C 24,1 km/h (4 Bft) 100,00 %
21.06.2018 22:06 21,6 C 26,1 C 65 % 1012,1 hPa 0,0 l/m 15,4 km/h (3 Bft) SW 223 0 min 0,000 mm 0,0 UV-I 0 W/m 14,7 C 19,1 C 19,3 km/h (3 Bft) 100,00 %
21.06.2018 22:08 21,6 C 26,1 C 65 % 1012,2 hPa 0,0 l/m 14,6 km/h (3 Bft) SW 236 0 min 0,000 mm 0,0 UV-I 0 W/m 14,7 C 19,3 C 20,9 km/h (4 Bft) 98,00 %
21.06.2018 22:09 21,6 C 26,1 C 65 % 1012,2 hPa 0,0 l/m 16,0 km/h (3 Bft) W-SW 249 0 min 0,000 mm 0,0 UV-I 0 W/m 14,7 C 19,0 C 20,9 km/h (4 Bft) 100,00 %
21.06.2018 22:10 21,5 C 26,1 C 65 % 1012,2 hPa 0,0 l/m 11,3 km/h (2 Bft) W 261 0 min 0,000 mm 0,0 UV-I 0 W/m 14,6 C 19,9 C 17,7 km/h (3 Bft) 95,65 %
21.06.2018 22:11 21,5 C 26,1 C 64 % 1012,2 hPa 0,0 l/m 13,0 km/h (3 Bft) W-SW 251 0 min 0,000 mm 0,0 UV-I 0 W/m 14,4 C 19,5 C 17,7 km/h (3 Bft) 100,00 %
21.06.2018 22:12 21,5 C 26,1 C 64 % 1012,2 hPa 0,0 l/m 14,6 km/h (3 Bft) W-SW 241 0 min 0,000 mm 0,0 UV-I 0 W/m 14,4 C 19,2 C 19,3 km/h (3 Bft) 100,00 %
21.06.2018 22:13 21,5 C 26,1 C 64 % 1012,2 hPa 0,0 l/m 13,5 km/h (3 Bft) W-SW 242 0 min 0,000 mm 0,0 UV-I 0 W/m 14,4 C 19,4 C 20,9 km/h (4 Bft) 100,00 %
21.06.2018 22:14 21,5 C 26,1 C 64 % 1012,2 hPa 0,0 l/m 14,8 km/h (3 Bft) W-SW 257 0 min 0,000 mm 0,0 UV-I 0 W/m 14,4 C 19,1 C 22,5 km/h (4 Bft) 100,00 %
21.06.2018 22:15 21,6 C 26,1 C 64 % 1012,2 hPa 0,0 l/m 15,2 km/h (3 Bft) W-SW 257 0 min 0,000 mm 0,0 UV-I 0 W/m 14,5 C 19,1 C 17,7 km/h (3 Bft) 100,00 %
21.06.2018 22:16 21,5 C 26,1 C 64 % 1012,2 hPa 0,0 l/m 14,2 km/h (3 Bft) SW 232 0 min 0,000 mm 0,0 UV-I 0 W/m 14,4 C 19,2 C 22,5 km/h (4 Bft) 100,00 %
21.06.2018 22:17 21,5 C 26,1 C 63 % 1012,3 hPa 0,0 l/m 11,9 km/h (2 Bft) W 264 0 min 0,000 mm 0,0 UV-I 0 W/m 14,2 C 19,8 C 17,7 km/h (3 Bft) 100,00 %
21.06.2018 22:18 21,5 C 26,1 C 63 % 1012,2 hPa 0,0 l/m 14,6 km/h (3 Bft) W-SW 257 0 min 0,000 mm 0,0 UV-I 0 W/m 14,2 C 19,2 C 20,9 km/h (4 Bft) 100,00 %
21.06.2018 22:19 21,5 C 26,1 C 63 % 1012,2 hPa 0,0 l/m 13,3 km/h (3 Bft) W 271 0 min 0,000 mm 0,0 UV-I 0 W/m 14,2 C 19,4 C 19,3 km/h (3 Bft) 100,00 %
21.06.2018 22:20 21,5 C 26,1 C 63 % 1012,2 hPa 0,0 l/m 10,9 km/h (2 Bft) SW 215 0 min 0,000 mm 0,0 UV-I 0 W/m 14,2 C 20,0 C 14,5 km/h (3 Bft) 100,00 %
21.06.2018 22:21 21,5 C 26,1 C 62 % 1012,2 hPa 0,0 l/m 12,9 km/h (3 Bft) W-SW 254 0 min 0,000 mm 0,0 UV-I 0 W/m 13,9 C 19,5 C 17,7 km/h (3 Bft) 100,00 %
21.06.2018 22:22 21,5 C 26,1 C 62 % 1012,2 hPa 0,0 l/m 13,2 km/h (3 Bft) W-NW 284 0 min 0,000 mm 0,0 UV-I 0 W/m 13,9 C 19,5 C 17,7 km/h (3 Bft) 100,00 %
21.06.2018 22:23 21,5 C 26,1 C 61 % 1012,3 hPa 0,0 l/m 16,4 km/h (3 Bft) W-SW 238 0 min 0,000 mm 0,0 UV-I 0 W/m 13,7 C 18,8 C 22,5 km/h (4 Bft) 100,00 %
21.06.2018 22:24 21,6 C 26,1 C 61 % 1012,3 hPa 0,0 l/m 14,7 km/h (3 Bft) W 267 0 min 0,000 mm 0,0 UV-I 0 W/m 13,7 C 19,3 C 20,9 km/h (4 Bft) 100,00 %
21.06.2018 22:25 21,6 C 26,1 C 61 % 1012,2 hPa 0,0 l/m 16,4 km/h (3 Bft) S-SW 211 0 min 0,000 mm 0,0 UV-I 0 W/m 13,7 C 18,9 C 20,9 km/h (4 Bft) 100,00 %
21.06.2018 22:26 21,6 C 26,1 C 61 % 1012,3 hPa 0,0 l/m 12,8 km/h (3 Bft) W-SW 251 0 min 0,000 mm 0,0 UV-I 0 W/m 13,7 C 19,7 C 17,7 km/h (3 Bft) 100,00 %
21.06.2018 22:27 21,6 C 26,1 C 60 % 1012,3 hPa 0,0 l/m 14,2 km/h (3 Bft) SW 236 0 min 0,000 mm 0,0 UV-I 0 W/m 13,5 C 19,4 C 17,7 km/h (3 Bft) 91,30 %
21.06.2018 22:28 21,6 C 26,1 C 60 % 1012,3 hPa 0,0 l/m 10,3 km/h (2 Bft) W-SW 244 0 min 0,000 mm 0,0 UV-I 0 W/m 13,5 C 20,3 C 17,7 km/h (3 Bft) 100,00 %
21.06.2018 22:29 21,6 C 26,1 C 60 % 1012,3 hPa 0,0 l/m 14,1 km/h (3 Bft) W-SW 246 0 min 0,000 mm 0,0 UV-I 0 W/m 13,5 C 19,4 C 17,7 km/h (3 Bft) 100,00 %
21.06.2018 22:30 21,6 C 26,1 C 60 % 1012,3 hPa 0,0 l/m 11,7 km/h (2 Bft) SW 225 0 min 0,000 mm 0,0 UV-I 0 W/m 13,5 C 19,9 C 14,5 km/h (3 Bft) 95,65 %
21.06.2018 22:31 21,6 C 26,1 C 60 % 1012,3 hPa 0,0 l/m 14,6 km/h (3 Bft) W 273 0 min 0,000 mm 0,0 UV-I 0 W/m 13,5 C 19,3 C 20,9 km/h (4 Bft) 95,83 %
21.06.2018 22:33 21,6 C 26,1 C 59 % 1012,3 hPa 0,0 l/m 15,5 km/h (3 Bft) W 269 0 min 0,000 mm 0,0 UV-I 0 W/m 13,2 C 19,1 C 20,9 km/h (4 Bft) 97,87 %
21.06.2018 22:34 21,6 C 26,1 C 60 % 1012,3 hPa 0,0 l/m 13,3 km/h (3 Bft) SW 232 0 min 0,000 mm 0,0 UV-I 0 W/m 13,5 C 19,6 C 16,1 km/h (3 Bft) 100,00 %
21.06.2018 22:35 21,7 C 26,1 C 59 % 1012,3 hPa 0,0 l/m 12,0 km/h (2 Bft) W 266 0 min 0,000 mm 0,0 UV-I 0 W/m 13,3 C 20,0 C 17,7 km/h (3 Bft) 100,00 %
21.06.2018 22:36 21,7 C 26,1 C 59 % 1012,3 hPa 0,0 l/m 15,8 km/h (3 Bft) W-SW 256 0 min 0,000 mm 0,0 UV-I 0 W/m 13,3 C 19,1 C 20,9 km/h (4 Bft) 100,00 %
21.06.2018 22:37 21,7 C 26,1 C 59 % 1012,3 hPa 0,0 l/m 17,7 km/h (3 Bft) W 271 0 min 0,000 mm 0,0 UV-I 0 W/m 13,3 C 18,8 C 22,5 km/h (4 Bft) 100,00 %
21.06.2018 22:38 21,7 C 26,1 C 59 % 1012,3 hPa 0,0 l/m 14,8 km/h (3 Bft) SW 234 0 min 0,000 mm 0,0 UV-I 0 W/m 13,3 C 19,4 C 20,9 km/h (4 Bft) 95,65 %
21.06.2018 22:39 21,7 C 26,1 C 58 % 1012,3 hPa 0,0 l/m 18,5 km/h (3 Bft) W 264 0 min 0,000 mm 0,0 UV-I 0 W/m 13,1 C 18,7 C 24,1 km/h (4 Bft) 100,00 %
21.06.2018 22:40 21,7 C 26,1 C 59 % 1012,3 hPa 0,0 l/m 13,5 km/h (3 Bft) W 262 0 min 0,000 mm 0,0 UV-I 0 W/m 13,3 C 19,6 C 20,9 km/h (4 Bft) 92,86 %
21.06.2018 22:41 21,7 C 26,1 C 59 % 1012,3 hPa 0,0 l/m 14,4 km/h (3 Bft) W-SW 245 0 min 0,000 mm 0,0 UV-I 0 W/m 13,3 C 19,4 C 17,7 km/h (3 Bft) 95,83 %
21.06.2018 22:42 21,7 C 26,1 C 58 % 1012,3 hPa 0,0 l/m 11,8 km/h (2 Bft) W 267 0 min 0,000 mm 0,0 UV-I 0 W/m 13,1 C 20,0 C 16,1 km/h (3 Bft) 100,00 %
21.06.2018 22:43 21,7 C 26,1 C 58 % 1012,2 hPa 0,0 l/m 14,8 km/h (3 Bft) W-SW 238 0 min 0,000 mm 0,0 UV-I 0 W/m 13,1 C 19,4 C 20,9 km/h (4 Bft) 95,65 %
21.06.2018 22:44 21,7 C 26,1 C 59 % 1012,2 hPa 0,0 l/m 14,7 km/h (3 Bft) W-SW 242 0 min 0,000 mm 0,0 UV-I 0 W/m 13,3 C 19,4 C 19,3 km/h (3 Bft) 100,00 %
21.06.2018 22:45 21,7 C 26,1 C 59 % 1012,2 hPa 0,0 l/m 13,3 km/h (3 Bft) W-SW 257 0 min 0,000 mm 0,0 UV-I 0 W/m 13,3 C 19,7 C 17,7 km/h (3 Bft) 91,30 %
21.06.2018 22:46 21,7 C 26,1 C 59 % 1012,1 hPa 0,0 l/m 11,3 km/h (2 Bft) W 270 0 min 0,000 mm 0,0 UV-I 0 W/m 13,3 C 20,2 C 16,1 km/h (3 Bft) 100,00 %
21.06.2018 22:47 21,6 C 26,1 C 59 % 1012,2 hPa 0,0 l/m 15,0 km/h (3 Bft) W-SW 241 0 min 0,000 mm 0,0 UV-I 0 W/m 13,2 C 19,2 C 19,3 km/h (3 Bft) 100,00 %
21.06.2018 22:48 21,7 C 26,1 C 59 % 1012,1 hPa 0,0 l/m 16,8 km/h (3 Bft) W 262 0 min 0,000 mm 0,0 UV-I 0 W/m 13,3 C 19,0 C 20,9 km/h (4 Bft) 100,00 %
21.06.2018 22:49 21,7 C 26,1 C 59 % 1012,1 hPa 0,0 l/m 11,1 km/h (2 Bft) W-SW 248 0 min 0,000 mm 0,0 UV-I 0 W/m 13,3 C 20,2 C 16,1 km/h (3 Bft) 100,00 %
21.06.2018 22:50 21,7 C 25,6 C 58 % 1012,1 hPa 0,0 l/m 11,9 km/h (2 Bft) W 259 0 min 0,000 mm 0,0 UV-I 0 W/m 13,1 C 20,0 C 14,5 km/h (3 Bft) 100,00 %
21.06.2018 22:51 21,7 C 26,1 C 58 % 1012,1 hPa 0,0 l/m 13,4 km/h (3 Bft) W 277 0 min 0,000 mm 0,0 UV-I 0 W/m 13,1 C 19,7 C 19,3 km/h (3 Bft) 100,00 %
21.06.2018 22:52 21,7 C 26,1 C 58 % 1012,1 hPa 0,0 l/m 8,9 km/h (2 Bft) W-NW 288 0 min 0,000 mm 0,0 UV-I 0 W/m 13,1 C 20,8 C 12,9 km/h (3 Bft) 100,00 %
21.06.2018 22:53 21,6 C 26,1 C 59 % 1012,0 hPa 0,0 l/m 13,2 km/h (3 Bft) W 272 0 min 0,000 mm 0,0 UV-I 0 W/m 13,2 C 19,6 C 19,3 km/h (3 Bft) 100,00 %
21.06.2018 22:54 21,6 C 26,1 C 59 % 1012,1 hPa 0,0 l/m 12,6 km/h (3 Bft) W 273 0 min 0,000 mm 0,0 UV-I 0 W/m 13,2 C 19,7 C 16,1 km/h (3 Bft) 100,00 %
21.06.2018 22:55 21,6 C 26,1 C 59 % 1012,1 hPa 0,0 l/m 13,4 km/h (3 Bft) W-SW 252 0 min 0,000 mm 0,0 UV-I 0 W/m 13,2 C 19,5 C 17,7 km/h (3 Bft) 95,65 %
21.06.2018 22:56 21,6 C 26,1 C 59 % 1012,2 hPa 0,0 l/m 13,5 km/h (3 Bft) W-SW 240 0 min 0,000 mm 0,0 UV-I 0 W/m 13,2 C 19,5 C 17,7 km/h (3 Bft) 100,00 %
21.06.2018 22:58 21,5 C 26,1 C 59 % 1012,2 hPa 0,0 l/m 12,1 km/h (2 Bft) W 267 0 min 0,000 mm 0,0 UV-I 0 W/m 13,1 C 19,7 C 17,7 km/h (3 Bft) 97,87 %
21.06.2018 22:59 21,5 C 26,1 C 59 % 1012,2 hPa 0,0 l/m 12,9 km/h (3 Bft) W 263 0 min 0,000 mm 0,0 UV-I 0 W/m 13,1 C 19,5 C 17,7 km/h (3 Bft) 95,65 %
21.06.2018 23:00 21,5 C 26,1 C 59 % 1012,1 hPa 0,0 l/m 16,0 km/h (3 Bft) W 259 0 min 0,000 mm 0,0 UV-I 0 W/m 13,1 C 18,9 C 24,1 km/h (4 Bft) 100,00 %
21.06.2018 23:02 21,5 C 26,1 C 59 % 1012,2 hPa 0,0 l/m 12,6 km/h (3 Bft) W-SW 252 0 min 0,076 mm 0,0 UV-I 0 W/m 13,1 C 19,6 C 19,3 km/h (3 Bft) 96,00 %
21.06.2018 23:03 21,5 C 26,1 C 59 % 1012,1 hPa 0,0 l/m 10,7 km/h (2 Bft) W 278 0 min 0,000 mm 0,0 UV-I 0 W/m 13,1 C 20,1 C 12,9 km/h (3 Bft) 95,65 %
21.06.2018 23:04 21,5 C 25,6 C 60 % 1012,1 hPa 0,0 l/m 15,2 km/h (3 Bft) W-SW 244 0 min 0,000 mm 0,0 UV-I 0 W/m 13,4 C 19,0 C 19,3 km/h (3 Bft) 100,00 %
21.06.2018 23:05 21,5 C 25,6 C 59 % 1012,1 hPa 0,0 l/m 10,7 km/h (2 Bft) W 262 0 min 0,000 mm 0,0 UV-I 0 W/m 13,1 C 20,1 C 14,5 km/h (3 Bft) 96,15 %
21.06.2018 23:06 21,5 C 25,6 C 60 % 1012,1 hPa 0,0 l/m 14,3 km/h (3 Bft) W-NW 288 0 min 0,000 mm 0,0 UV-I 0 W/m 13,4 C 19,2 C 22,5 km/h (4 Bft) 100,00 %
21.06.2018 23:07 21,5 C 25,6 C 59 % 1012,1 hPa 0,0 l/m 11,1 km/h (2 Bft) W 265 0 min 0,000 mm 0,0 UV-I 0 W/m 13,1 C 20,0 C 19,3 km/h (3 Bft) 100,00 %
21.06.2018 23:08 21,5 C 25,6 C 59 % 1012,1 hPa 0,0 l/m 11,0 km/h (2 Bft) W-SW 257 0 min 0,000 mm 0,0 UV-I 0 W/m 13,1 C 20,0 C 16,1 km/h (3 Bft) 100,00 %
21.06.2018 23:09 21,5 C 25,6 C 59 % 1012,0 hPa 0,0 l/m 9,2 km/h (2 Bft) W 274 0 min 0,000 mm 0,0 UV-I 0 W/m 13,1 C 20,5 C 16,1 km/h (3 Bft) 100,00 %
21.06.2018 23:10 21,6 C 25,6 C 60 % 1012,0 hPa 0,0 l/m 12,3 km/h (3 Bft) W-SW 256 0 min 0,000 mm 0,0 UV-I 0 W/m 13,5 C 19,8 C 16,1 km/h (3 Bft) 100,00 %
21.06.2018 23:11 21,6 C 25,6 C 59 % 1012,0 hPa 0,0 l/m 10,2 km/h (2 Bft) W-SW 252 0 min 0,000 mm 0,0 UV-I 0 W/m 13,2 C 20,4 C 14,5 km/h (3 Bft) 100,00 %
21.06.2018 23:12 21,6 C 25,6 C 59 % 1012,0 hPa 0,0 l/m 12,4 km/h (3 Bft) W-NW 290 0 min 0,000 mm 0,0 UV-I 0 W/m 13,2 C 19,8 C 16,1 km/h (3 Bft) 100,00 %
21.06.2018 23:13 21,6 C 25,6 C 59 % 1012,0 hPa 0,0 l/m 10,1 km/h (2 Bft) W 272 0 min 0,000 mm 0,0 UV-I 0 W/m 13,2 C 20,4 C 14,5 km/h (3 Bft) 100,00 %
21.06.2018 23:14 21,6 C 25,6 C 60 % 1012,0 hPa 0,0 l/m 7,0 km/h (2 Bft) W-SW 244 0 min 0,000 mm 0,0 UV-I 0 W/m 13,5 C 21,4 C 12,9 km/h (3 Bft) 95,65 %
21.06.2018 23:15 21,6 C 25,6 C 59 % 1012,0 hPa 0,0 l/m 7,1 km/h (2 Bft) W 269 0 min 0,000 mm 0,0 UV-I 0 W/m 13,2 C 21,3 C 11,3 km/h (2 Bft) 100,00 %
21.06.2018 23:16 21,5 C 25,6 C 60 % 1011,9 hPa 0,0 l/m 6,1 km/h (2 Bft) W-NW 301 0 min 0,000 mm 0,0 UV-I 0 W/m 13,4 C 21,5 C 9,7 km/h (2 Bft) 96,15 %
21.06.2018 23:17 21,5 C 25,6 C 60 % 1012,0 hPa 0,0 l/m 7,4 km/h (2 Bft) W-SW 258 0 min 0,000 mm 0,0 UV-I 0 W/m 13,4 C 21,1 C 11,3 km/h (2 Bft) 100,00 %
21.06.2018 23:18 21,6 C 25,6 C 60 % 1012,0 hPa 0,0 l/m 8,1 km/h (2 Bft) W 279 0 min 0,000 mm 0,0 UV-I 0 W/m 13,5 C 21,0 C 14,5 km/h (3 Bft) 100,00 %
21.06.2018 23:19 21,6 C 25,6 C 60 % 1012,0 hPa 0,0 l/m 10,8 km/h (2 Bft) W-SW 258 0 min 0,000 mm 0,0 UV-I 0 W/m 13,5 C 20,2 C 17,7 km/h (3 Bft) 100,00 %
21.06.2018 23:20 21,6 C 25,6 C 60 % 1012,0 hPa 0,0 l/m 11,7 km/h (2 Bft) W-NW 303 0 min 0,000 mm 0,0 UV-I 0 W/m 13,5 C 19,9 C 16,1 km/h (3 Bft) 95,65 %
21.06.2018 23:21 21,6 C 25,6 C 60 % 1012,0 hPa 0,0 l/m 9,3 km/h (2 Bft) W 264 0 min 0,000 mm 0,0 UV-I 0 W/m 13,5 C 20,6 C 14,5 km/h (3 Bft) 100,00 %
21.06.2018 23:22 21,6 C 25,6 C 60 % 1012,0 hPa 0,0 l/m 9,6 km/h (2 Bft) W 263 0 min 0,000 mm 0,0 UV-I 0 W/m 13,5 C 20,5 C 12,9 km/h (3 Bft) 100,00 %
21.06.2018 23:23 21,6 C 25,6 C 60 % 1012,0 hPa 0,0 l/m 7,5 km/h (2 Bft) W 260 0 min 0,000 mm 0,0 UV-I 0 W/m 13,5 C 21,2 C 11,3 km/h (2 Bft) 100,00 %
21.06.2018 23:24 21,6 C 25,6 C 60 % 1012,0 hPa 0,0 l/m 12,7 km/h (3 Bft) W 281 0 min 0,000 mm 0,0 UV-I 0 W/m 13,5 C 19,7 C 20,9 km/h (4 Bft) 100,00 %
21.06.2018 23:25 21,5 C 25,6 C 60 % 1012,0 hPa 0,0 l/m 11,3 km/h (2 Bft) W 266 0 min 0,000 mm 0,0 UV-I 0 W/m 13,4 C 19,9 C 16,1 km/h (3 Bft) 100,00 %
21.06.2018 23:26 21,5 C 25,6 C 60 % 1012,0 hPa 0,0 l/m 10,5 km/h (2 Bft) W 269 0 min 0,000 mm 0,0 UV-I 0 W/m 13,4 C 20,2 C 12,9 km/h (3 Bft) 93,33 %
21.06.2018 23:27 21,5 C 25,6 C 60 % 1012,0 hPa 0,0 l/m 9,4 km/h (2 Bft) W-SW 255 0 min 0,000 mm 0,0 UV-I 0 W/m 13,4 C 20,5 C 12,9 km/h (3 Bft) 100,00 %
21.06.2018 23:28 21,6 C 25,6 C 59 % 1012,0 hPa 0,0 l/m 11,5 km/h (2 Bft) W-SW 247 0 min 0,000 mm 0,0 UV-I 0 W/m 13,2 C 20,0 C 16,1 km/h (3 Bft) 95,83 %
21.06.2018 23:29 21,5 C 25,6 C 60 % 1012,0 hPa 0,0 l/m 8,4 km/h (2 Bft) W 275 0 min 0,000 mm 0,0 UV-I 0 W/m 13,4 C 20,8 C 11,3 km/h (2 Bft) 100,00 %
21.06.2018 23:30 21,5 C 25,6 C 59 % 1012,0 hPa 0,0 l/m 9,4 km/h (2 Bft) W-SW 257 0 min 0,000 mm 0,0 UV-I 0 W/m 13,1 C 20,5 C 14,5 km/h (3 Bft) 100,00 %
21.06.2018 23:31 21,6 C 25,6 C 60 % 1012,1 hPa 0,0 l/m 8,4 km/h (2 Bft) W 262 0 min 0,000 mm 0,0 UV-I 0 W/m 13,5 C 20,9 C 12,9 km/h (3 Bft) 82,61 %
21.06.2018 23:32 21,5 C 25,6 C 59 % 1012,0 hPa 0,0 l/m 7,7 km/h (2 Bft) W 267 0 min 0,000 mm 0,0 UV-I 0 W/m 13,1 C 21,0 C 12,9 km/h (3 Bft) 100,00 %
21.06.2018 23:33 21,5 C 25,6 C 59 % 1012,1 hPa 0,0 l/m 8,0 km/h (2 Bft) W-SW 239 0 min 0,000 mm 0,0 UV-I 0 W/m 13,1 C 20,9 C 14,5 km/h (3 Bft) 92,31 %
21.06.2018 23:34 21,5 C 25,6 C 59 % 1012,0 hPa 0,0 l/m 12,6 km/h (3 Bft) W-NW 283 0 min 0,000 mm 0,0 UV-I 0 W/m 13,1 C 19,6 C 20,9 km/h (4 Bft) 100,00 %
21.06.2018 23:35 21,5 C 25,6 C 59 % 1012,1 hPa 0,0 l/m 8,2 km/h (2 Bft) W-NW 302 0 min 0,000 mm 0,0 UV-I 0 W/m 13,1 C 20,9 C 14,5 km/h (3 Bft) 92,31 %
21.06.2018 23:36 21,5 C 25,6 C 59 % 1012,1 hPa 0,0 l/m 7,3 km/h (2 Bft) NW 317 0 min 0,000 mm 0,0 UV-I 0 W/m 13,1 C 21,2 C 16,1 km/h (3 Bft) 100,00 %
21.06.2018 23:37 21,5 C 25,6 C 59 % 1012,1 hPa 0,0 l/m 8,6 km/h (2 Bft) W 261 0 min 0,000 mm 0,0 UV-I 0 W/m 13,1 C 20,7 C 16,1 km/h (3 Bft) 92,31 %
21.06.2018 23:38 21,5 C 25,6 C 59 % 1012,2 hPa 0,0 l/m 6,7 km/h (2 Bft) W 271 0 min 0,000 mm 0,0 UV-I 0 W/m 13,1 C 21,4 C 9,7 km/h (2 Bft) 95,83 %
21.06.2018 23:39 21,5 C 25,6 C 59 % 1012,2 hPa 0,0 l/m 9,5 km/h (2 Bft) SW 230 0 min 0,000 mm 0,0 UV-I 0 W/m 13,1 C 20,4 C 12,9 km/h (3 Bft) 96,15 %
21.06.2018 23:40 21,5 C 25,6 C 59 % 1012,3 hPa 0,0 l/m 7,6 km/h (2 Bft) W 277 0 min 0,000 mm 0,0 UV-I 0 W/m 13,1 C 21,1 C 11,3 km/h (2 Bft) 91,67 %
21.06.2018 23:41 21,5 C 25,6 C 59 % 1012,3 hPa 0,0 l/m 16,5 km/h (3 Bft) W-SW 252 0 min 0,000 mm 0,0 UV-I 0 W/m 13,1 C 18,8 C 24,1 km/h (4 Bft) 100,00 %
21.06.2018 23:42 21,4 C 25,6 C 60 % 1012,4 hPa 0,0 l/m 17,0 km/h (3 Bft) W 265 0 min 0,000 mm 0,0 UV-I 0 W/m 13,3 C 18,5 C 25,7 km/h (4 Bft) 88,46 %
21.06.2018 23:43 21,3 C 25,6 C 62 % 1012,4 hPa 0,0 l/m 13,8 km/h (3 Bft) W 278 0 min 0,000 mm 0,0 UV-I 0 W/m 13,7 C 19,1 C 20,9 km/h (4 Bft) 100,00 %
21.06.2018 23:44 21,2 C 25,6 C 61 % 1012,4 hPa 0,0 l/m 13,3 km/h (3 Bft) W-SW 246 0 min 0,000 mm 0,0 UV-I 0 W/m 13,4 C 19,1 C 22,5 km/h (4 Bft) 91,30 %
21.06.2018 23:45 21,1 C 25,6 C 62 % 1012,5 hPa 0,0 l/m 17,7 km/h (3 Bft) W-NW 294 0 min 0,000 mm 0,0 UV-I 0 W/m 13,5 C 18,0 C 25,7 km/h (4 Bft) 100,00 %
21.06.2018 23:46 20,9 C 25,6 C 63 % 1012,5 hPa 0,0 l/m 11,1 km/h (2 Bft) W-SW 257 0 min 0,000 mm 0,0 UV-I 0 W/m 13,6 C 19,3 C 16,1 km/h (3 Bft) 88,46 %
21.06.2018 23:47 20,7 C 25,6 C 64 % 1012,6 hPa 0,0 l/m 20,2 km/h (4 Bft) W-NW 286 0 min 0,000 mm 0,0 UV-I 0 W/m 13,6 C 17,1 C 32,2 km/h (5 Bft) 95,83 %
21.06.2018 23:48 20,6 C 25,6 C 65 % 1012,6 hPa 0,0 l/m 19,9 km/h (4 Bft) W 273 0 min 0,000 mm 0,0 UV-I 0 W/m 13,8 C 17,0 C 29,0 km/h (5 Bft) 95,65 %
21.06.2018 23:49 20,3 C 25,6 C 68 % 1012,6 hPa 0,0 l/m 17,0 km/h (3 Bft) W 268 0 min 0,000 mm 0,0 UV-I 0 W/m 14,2 C 17,2 C 25,7 km/h (4 Bft) 95,83 %
21.06.2018 23:50 19,9 C 25,6 C 70 % 1012,7 hPa 0,0 l/m 18,8 km/h (3 Bft) W 263 0 min 0,000 mm 0,0 UV-I 0 W/m 14,3 C 16,3 C 25,7 km/h (4 Bft) 96,15 %
21.06.2018 23:51 19,7 C 25,6 C 71 % 1012,8 hPa 0,0 l/m 18,3 km/h (3 Bft) W 275 0 min 0,000 mm 0,0 UV-I 0 W/m 14,3 C 16,2 C 24,1 km/h (4 Bft) 91,67 %
21.06.2018 23:52 19,4 C 25,6 C 73 % 1012,8 hPa 0,2 l/m 13,8 km/h (3 Bft) W 260 0 min 0,000 mm 0,0 UV-I 0 W/m 14,4 C 16,8 C 17,7 km/h (3 Bft) 100,00 %
21.06.2018 23:53 19,2 C 25,6 C 74 % 1012,8 hPa 0,0 l/m 18,7 km/h (3 Bft) W 259 0 min 0,000 mm 0,0 UV-I 0 W/m 14,4 C 15,4 C 24,1 km/h (4 Bft) 95,83 %
21.06.2018 23:54 18,9 C 25,6 C 75 % 1012,9 hPa 0,0 l/m 18,5 km/h (3 Bft) W-SW 250 0 min 0,000 mm 0,0 UV-I 0 W/m 14,4 C 15,1 C 24,1 km/h (4 Bft) 91,67 %
21.06.2018 23:55 18,8 C 25,6 C 77 % 1012,9 hPa 0,0 l/m 20,5 km/h (4 Bft) W-SW 253 0 min 0,000 mm 0,0 UV-I 0 W/m 14,7 C 14,6 C 30,6 km/h (5 Bft) 94,74 %
21.06.2018 23:56 18,6 C 25,6 C 78 % 1012,8 hPa 0,0 l/m 21,6 km/h (4 Bft) W 262 0 min 0,000 mm 0,0 UV-I 0 W/m 14,7 C 14,1 C 27,4 km/h (4 Bft) 96,15 %
21.06.2018 23:58 18,3 C 25,6 C 79 % 1012,9 hPa 0,0 l/m 17,9 km/h (3 Bft) W-SW 255 0 min 0,000 mm 0,0 UV-I 0 W/m 14,6 C 14,5 C 25,7 km/h (4 Bft) 93,62 %
21.06.2018 23:59 18,2 C 25,6 C 80 % 1012,9 hPa 0,0 l/m 16,3 km/h (3 Bft) W-SW 237 0 min 0,000 mm 0,0 UV-I 0 W/m 14,7 C 14,7 C 20,9 km/h (4 Bft) 95,83 %
_ Min-Zeit 04:53 03:11 14:25 17:29 - 08:23 - - - - - - 19:49 23:56 00:07 23:31
Minimum _ 16,7 C 24,4 C 36 % 1008,3 hPa - 0,1 km/h (0 Bft) - - - - - - 9,6 C 14,1 C 1,6 km/h (1 Bft) 82,61 %
_ Max-Zeit 14:53 14:42 04:51 00:00 23:52 15:26 - - 10:28 14:00 12:59 13:54 12:11 14:55 15:26 00:14
Maximum _ 30,9 C 26,7 C 88 % 1015,5 hPa 0,2 l/m 24,2 km/h
W (4 Bft)
- - 2 min 0,686 mm 7,1 UV-I 984 W/m 18,3 C 30,9 C 43,5 km/h
W-SW (6 Bft)
100,00 %
Durchschnitt _ 23,2 C 25,5 C 63 % 1012,2 hPa #0,2 l/m 7,7 km/h (2 Bft) W-SW - #11:08 h #5,740 mm 3,4 UV-I 424 W/m 15,2 C 22,7 C 11,8 km/h (2 Bft) 97,73 %